<?xml version="1.0" encoding="UTF-8" standalone="no" ?>
<gpx xmlns="http://www.topografix.com/GPX/1/1" xmlns:xsi="http://www.w3.org/2001/XMLSchema-instance" xsi:schemaLocation="http://www.topografix.com/GPX/1/1 http://www.topografix.com/GPX/1/1/gpx.xsd" version="1.1" creator="VisuGPX - https://www.visugpx.com">
  <metadata>
    <name>étang du marais</name>
    <desc><![CDATA[petite balade sympa au départ de Rémering]]></desc>
  </metadata>
  <trk>
    <name><![CDATA[2013-09-22-01]]></name>
    <trkseg>
      <trkpt lat="49.0363" lon="6.93891">
        <ele>219.8</ele>
        <time>2013-09-22T07:37:25Z</time>
      </trkpt>
      <trkpt lat="49.0363" lon="6.9389">
        <ele>219.9</ele>
        <time>2013-09-22T07:37:26Z</time>
      </trkpt>
      <trkpt lat="49.0363" lon="6.9389">
        <ele>219.9</ele>
        <time>2013-09-22T07:37:26Z</time>
      </trkpt>
      <trkpt lat="49.03635" lon="6.93884">
        <ele>220.1</ele>
        <time>2013-09-22T07:37:31Z</time>
      </trkpt>
      <trkpt lat="49.0364" lon="6.93877">
        <ele>220</ele>
        <time>2013-09-22T07:37:36Z</time>
      </trkpt>
      <trkpt lat="49.03644" lon="6.9387">
        <ele>219.1</ele>
        <time>2013-09-22T07:37:41Z</time>
      </trkpt>
      <trkpt lat="49.03649" lon="6.93864">
        <ele>219</ele>
        <time>2013-09-22T07:37:46Z</time>
      </trkpt>
      <trkpt lat="49.03654" lon="6.93855">
        <ele>219.3</ele>
        <time>2013-09-22T07:37:51Z</time>
      </trkpt>
      <trkpt lat="49.03658" lon="6.93849">
        <ele>219</ele>
        <time>2013-09-22T07:37:56Z</time>
      </trkpt>
      <trkpt lat="49.03663" lon="6.93841">
        <ele>219.1</ele>
        <time>2013-09-22T07:38:01Z</time>
      </trkpt>
      <trkpt lat="49.03668" lon="6.93833">
        <ele>218.8</ele>
        <time>2013-09-22T07:38:06Z</time>
      </trkpt>
      <trkpt lat="49.03673" lon="6.93827">
        <ele>218.4</ele>
        <time>2013-09-22T07:38:11Z</time>
      </trkpt>
      <trkpt lat="49.03678" lon="6.93821">
        <ele>217.9</ele>
        <time>2013-09-22T07:38:16Z</time>
      </trkpt>
      <trkpt lat="49.03683" lon="6.93817">
        <ele>217.4</ele>
        <time>2013-09-22T07:38:21Z</time>
      </trkpt>
      <trkpt lat="49.03688" lon="6.93811">
        <ele>217.2</ele>
        <time>2013-09-22T07:38:26Z</time>
      </trkpt>
      <trkpt lat="49.03693" lon="6.93804">
        <ele>217.2</ele>
        <time>2013-09-22T07:38:31Z</time>
      </trkpt>
      <trkpt lat="49.03693" lon="6.93804">
        <ele>217.2</ele>
        <time>2013-09-22T07:38:31Z</time>
      </trkpt>
      <trkpt lat="49.03699" lon="6.93797">
        <ele>217.6</ele>
        <time>2013-09-22T07:38:36Z</time>
      </trkpt>
      <trkpt lat="49.03704" lon="6.93792">
        <ele>217.3</ele>
        <time>2013-09-22T07:38:41Z</time>
      </trkpt>
      <trkpt lat="49.03709" lon="6.93786">
        <ele>216.9</ele>
        <time>2013-09-22T07:38:46Z</time>
      </trkpt>
      <trkpt lat="49.03714" lon="6.9378">
        <ele>216</ele>
        <time>2013-09-22T07:38:51Z</time>
      </trkpt>
      <trkpt lat="49.03719" lon="6.93775">
        <ele>217</ele>
        <time>2013-09-22T07:38:56Z</time>
      </trkpt>
      <trkpt lat="49.03725" lon="6.93769">
        <ele>216.8</ele>
        <time>2013-09-22T07:39:01Z</time>
      </trkpt>
      <trkpt lat="49.0373" lon="6.93766">
        <ele>216.5</ele>
        <time>2013-09-22T07:39:06Z</time>
      </trkpt>
      <trkpt lat="49.03736" lon="6.93761">
        <ele>215.3</ele>
        <time>2013-09-22T07:39:11Z</time>
      </trkpt>
      <trkpt lat="49.03741" lon="6.93756">
        <ele>216.4</ele>
        <time>2013-09-22T07:39:16Z</time>
      </trkpt>
      <trkpt lat="49.03746" lon="6.93751">
        <ele>217</ele>
        <time>2013-09-22T07:39:21Z</time>
      </trkpt>
      <trkpt lat="49.03751" lon="6.93747">
        <ele>216.8</ele>
        <time>2013-09-22T07:39:26Z</time>
      </trkpt>
      <trkpt lat="49.03755" lon="6.93742">
        <ele>217.8</ele>
        <time>2013-09-22T07:39:31Z</time>
      </trkpt>
      <trkpt lat="49.0376" lon="6.93736">
        <ele>216.9</ele>
        <time>2013-09-22T07:39:36Z</time>
      </trkpt>
      <trkpt lat="49.0376" lon="6.93736">
        <ele>216.9</ele>
        <time>2013-09-22T07:39:36Z</time>
      </trkpt>
      <trkpt lat="49.03765" lon="6.93731">
        <ele>216.7</ele>
        <time>2013-09-22T07:39:41Z</time>
      </trkpt>
      <trkpt lat="49.03769" lon="6.93725">
        <ele>216.3</ele>
        <time>2013-09-22T07:39:46Z</time>
      </trkpt>
      <trkpt lat="49.03774" lon="6.9372">
        <ele>216.6</ele>
        <time>2013-09-22T07:39:51Z</time>
      </trkpt>
      <trkpt lat="49.03779" lon="6.93715">
        <ele>217.3</ele>
        <time>2013-09-22T07:39:56Z</time>
      </trkpt>
      <trkpt lat="49.03783" lon="6.9371">
        <ele>217.3</ele>
        <time>2013-09-22T07:40:01Z</time>
      </trkpt>
      <trkpt lat="49.03787" lon="6.93704">
        <ele>217.2</ele>
        <time>2013-09-22T07:40:06Z</time>
      </trkpt>
      <trkpt lat="49.03791" lon="6.93698">
        <ele>217.5</ele>
        <time>2013-09-22T07:40:11Z</time>
      </trkpt>
      <trkpt lat="49.03796" lon="6.93692">
        <ele>216.6</ele>
        <time>2013-09-22T07:40:16Z</time>
      </trkpt>
      <trkpt lat="49.03801" lon="6.93686">
        <ele>217.1</ele>
        <time>2013-09-22T07:40:21Z</time>
      </trkpt>
      <trkpt lat="49.03804" lon="6.93681">
        <ele>217.5</ele>
        <time>2013-09-22T07:40:26Z</time>
      </trkpt>
      <trkpt lat="49.03807" lon="6.93674">
        <ele>217.9</ele>
        <time>2013-09-22T07:40:31Z</time>
      </trkpt>
      <trkpt lat="49.03811" lon="6.93667">
        <ele>217.5</ele>
        <time>2013-09-22T07:40:36Z</time>
      </trkpt>
      <trkpt lat="49.03814" lon="6.9366">
        <ele>217.4</ele>
        <time>2013-09-22T07:40:41Z</time>
      </trkpt>
      <trkpt lat="49.03818" lon="6.93654">
        <ele>218</ele>
        <time>2013-09-22T07:40:46Z</time>
      </trkpt>
      <trkpt lat="49.03821" lon="6.93646">
        <ele>218.5</ele>
        <time>2013-09-22T07:40:51Z</time>
      </trkpt>
      <trkpt lat="49.03825" lon="6.93637">
        <ele>219.4</ele>
        <time>2013-09-22T07:40:56Z</time>
      </trkpt>
      <trkpt lat="49.03828" lon="6.93629">
        <ele>219.6</ele>
        <time>2013-09-22T07:41:01Z</time>
      </trkpt>
      <trkpt lat="49.03832" lon="6.93621">
        <ele>219.6</ele>
        <time>2013-09-22T07:41:06Z</time>
      </trkpt>
      <trkpt lat="49.03836" lon="6.93613">
        <ele>219.2</ele>
        <time>2013-09-22T07:41:11Z</time>
      </trkpt>
      <trkpt lat="49.0384" lon="6.93607">
        <ele>219.4</ele>
        <time>2013-09-22T07:41:16Z</time>
      </trkpt>
      <trkpt lat="49.03844" lon="6.93601">
        <ele>219.2</ele>
        <time>2013-09-22T07:41:21Z</time>
      </trkpt>
      <trkpt lat="49.03848" lon="6.93596">
        <ele>219.6</ele>
        <time>2013-09-22T07:41:26Z</time>
      </trkpt>
      <trkpt lat="49.03853" lon="6.93592">
        <ele>219.4</ele>
        <time>2013-09-22T07:41:31Z</time>
      </trkpt>
      <trkpt lat="49.03859" lon="6.93589">
        <ele>219.1</ele>
        <time>2013-09-22T07:41:36Z</time>
      </trkpt>
      <trkpt lat="49.03864" lon="6.93587">
        <ele>218.5</ele>
        <time>2013-09-22T07:41:41Z</time>
      </trkpt>
      <trkpt lat="49.03871" lon="6.93585">
        <ele>219.7</ele>
        <time>2013-09-22T07:41:46Z</time>
      </trkpt>
      <trkpt lat="49.03877" lon="6.93583">
        <ele>218.1</ele>
        <time>2013-09-22T07:41:51Z</time>
      </trkpt>
      <trkpt lat="49.03884" lon="6.93583">
        <ele>218.6</ele>
        <time>2013-09-22T07:41:56Z</time>
      </trkpt>
      <trkpt lat="49.03892" lon="6.93583">
        <ele>218</ele>
        <time>2013-09-22T07:42:01Z</time>
      </trkpt>
      <trkpt lat="49.03899" lon="6.93583">
        <ele>218.2</ele>
        <time>2013-09-22T07:42:06Z</time>
      </trkpt>
      <trkpt lat="49.03905" lon="6.93582">
        <ele>218.1</ele>
        <time>2013-09-22T07:42:11Z</time>
      </trkpt>
      <trkpt lat="49.03912" lon="6.93582">
        <ele>217.9</ele>
        <time>2013-09-22T07:42:16Z</time>
      </trkpt>
      <trkpt lat="49.03917" lon="6.9358">
        <ele>218.5</ele>
        <time>2013-09-22T07:42:21Z</time>
      </trkpt>
      <trkpt lat="49.03923" lon="6.93578">
        <ele>218.9</ele>
        <time>2013-09-22T07:42:26Z</time>
      </trkpt>
      <trkpt lat="49.03928" lon="6.93576">
        <ele>219</ele>
        <time>2013-09-22T07:42:31Z</time>
      </trkpt>
      <trkpt lat="49.03934" lon="6.93576">
        <ele>218.4</ele>
        <time>2013-09-22T07:42:36Z</time>
      </trkpt>
      <trkpt lat="49.0394" lon="6.93576">
        <ele>218.9</ele>
        <time>2013-09-22T07:42:41Z</time>
      </trkpt>
      <trkpt lat="49.03946" lon="6.93576">
        <ele>218.4</ele>
        <time>2013-09-22T07:42:46Z</time>
      </trkpt>
      <trkpt lat="49.03951" lon="6.93575">
        <ele>217.1</ele>
        <time>2013-09-22T07:42:51Z</time>
      </trkpt>
      <trkpt lat="49.03957" lon="6.93575">
        <ele>217.3</ele>
        <time>2013-09-22T07:42:56Z</time>
      </trkpt>
      <trkpt lat="49.03963" lon="6.93574">
        <ele>218.5</ele>
        <time>2013-09-22T07:43:01Z</time>
      </trkpt>
      <trkpt lat="49.0397" lon="6.93574">
        <ele>219</ele>
        <time>2013-09-22T07:43:06Z</time>
      </trkpt>
      <trkpt lat="49.03975" lon="6.93574">
        <ele>218.2</ele>
        <time>2013-09-22T07:43:11Z</time>
      </trkpt>
      <trkpt lat="49.03981" lon="6.93574">
        <ele>218.7</ele>
        <time>2013-09-22T07:43:16Z</time>
      </trkpt>
      <trkpt lat="49.03986" lon="6.93573">
        <ele>219.1</ele>
        <time>2013-09-22T07:43:21Z</time>
      </trkpt>
      <trkpt lat="49.03989" lon="6.93571">
        <ele>219.3</ele>
        <time>2013-09-22T07:43:26Z</time>
      </trkpt>
      <trkpt lat="49.03994" lon="6.93568">
        <ele>219.7</ele>
        <time>2013-09-22T07:43:31Z</time>
      </trkpt>
      <trkpt lat="49.04" lon="6.93564">
        <ele>219.5</ele>
        <time>2013-09-22T07:43:36Z</time>
      </trkpt>
      <trkpt lat="49.04005" lon="6.93559">
        <ele>219.9</ele>
        <time>2013-09-22T07:43:41Z</time>
      </trkpt>
      <trkpt lat="49.04009" lon="6.93553">
        <ele>220</ele>
        <time>2013-09-22T07:43:46Z</time>
      </trkpt>
      <trkpt lat="49.04012" lon="6.93545">
        <ele>220.7</ele>
        <time>2013-09-22T07:43:51Z</time>
      </trkpt>
      <trkpt lat="49.04013" lon="6.93537">
        <ele>221</ele>
        <time>2013-09-22T07:43:56Z</time>
      </trkpt>
      <trkpt lat="49.04014" lon="6.93528">
        <ele>221.3</ele>
        <time>2013-09-22T07:44:01Z</time>
      </trkpt>
      <trkpt lat="49.04014" lon="6.93519">
        <ele>221.7</ele>
        <time>2013-09-22T07:44:06Z</time>
      </trkpt>
      <trkpt lat="49.04015" lon="6.93511">
        <ele>222.9</ele>
        <time>2013-09-22T07:44:11Z</time>
      </trkpt>
      <trkpt lat="49.04015" lon="6.93502">
        <ele>221.8</ele>
        <time>2013-09-22T07:44:16Z</time>
      </trkpt>
      <trkpt lat="49.04015" lon="6.93492">
        <ele>222.3</ele>
        <time>2013-09-22T07:44:21Z</time>
      </trkpt>
      <trkpt lat="49.04016" lon="6.93483">
        <ele>223.5</ele>
        <time>2013-09-22T07:44:26Z</time>
      </trkpt>
      <trkpt lat="49.04017" lon="6.93475">
        <ele>224</ele>
        <time>2013-09-22T07:44:31Z</time>
      </trkpt>
      <trkpt lat="49.04017" lon="6.93467">
        <ele>225.4</ele>
        <time>2013-09-22T07:44:36Z</time>
      </trkpt>
      <trkpt lat="49.04018" lon="6.93459">
        <ele>224.9</ele>
        <time>2013-09-22T07:44:41Z</time>
      </trkpt>
      <trkpt lat="49.04019" lon="6.93451">
        <ele>224.6</ele>
        <time>2013-09-22T07:44:46Z</time>
      </trkpt>
      <trkpt lat="49.04021" lon="6.93442">
        <ele>224.6</ele>
        <time>2013-09-22T07:44:51Z</time>
      </trkpt>
      <trkpt lat="49.04022" lon="6.93434">
        <ele>225.2</ele>
        <time>2013-09-22T07:44:56Z</time>
      </trkpt>
      <trkpt lat="49.04024" lon="6.93427">
        <ele>226.8</ele>
        <time>2013-09-22T07:45:01Z</time>
      </trkpt>
      <trkpt lat="49.04026" lon="6.93417">
        <ele>226.9</ele>
        <time>2013-09-22T07:45:06Z</time>
      </trkpt>
      <trkpt lat="49.04028" lon="6.93409">
        <ele>227.1</ele>
        <time>2013-09-22T07:45:11Z</time>
      </trkpt>
      <trkpt lat="49.04031" lon="6.93399">
        <ele>227.1</ele>
        <time>2013-09-22T07:45:16Z</time>
      </trkpt>
      <trkpt lat="49.04033" lon="6.9339">
        <ele>226.7</ele>
        <time>2013-09-22T07:45:21Z</time>
      </trkpt>
      <trkpt lat="49.04035" lon="6.93382">
        <ele>227.2</ele>
        <time>2013-09-22T07:45:26Z</time>
      </trkpt>
      <trkpt lat="49.04036" lon="6.93374">
        <ele>227.8</ele>
        <time>2013-09-22T07:45:31Z</time>
      </trkpt>
      <trkpt lat="49.04037" lon="6.93366">
        <ele>228.1</ele>
        <time>2013-09-22T07:45:36Z</time>
      </trkpt>
      <trkpt lat="49.04038" lon="6.93357">
        <ele>228</ele>
        <time>2013-09-22T07:45:41Z</time>
      </trkpt>
      <trkpt lat="49.04039" lon="6.93349">
        <ele>227.7</ele>
        <time>2013-09-22T07:45:46Z</time>
      </trkpt>
      <trkpt lat="49.0404" lon="6.9334">
        <ele>227.6</ele>
        <time>2013-09-22T07:45:51Z</time>
      </trkpt>
      <trkpt lat="49.04041" lon="6.93331">
        <ele>228.3</ele>
        <time>2013-09-22T07:45:56Z</time>
      </trkpt>
      <trkpt lat="49.04042" lon="6.93321">
        <ele>228.1</ele>
        <time>2013-09-22T07:46:01Z</time>
      </trkpt>
      <trkpt lat="49.04044" lon="6.93314">
        <ele>228.9</ele>
        <time>2013-09-22T07:46:06Z</time>
      </trkpt>
      <trkpt lat="49.04044" lon="6.93306">
        <ele>229.1</ele>
        <time>2013-09-22T07:46:11Z</time>
      </trkpt>
      <trkpt lat="49.04044" lon="6.93298">
        <ele>229.9</ele>
        <time>2013-09-22T07:46:16Z</time>
      </trkpt>
      <trkpt lat="49.04044" lon="6.93289">
        <ele>230.1</ele>
        <time>2013-09-22T07:46:21Z</time>
      </trkpt>
      <trkpt lat="49.04045" lon="6.93278">
        <ele>230.2</ele>
        <time>2013-09-22T07:46:26Z</time>
      </trkpt>
      <trkpt lat="49.04046" lon="6.93269">
        <ele>229.4</ele>
        <time>2013-09-22T07:46:31Z</time>
      </trkpt>
      <trkpt lat="49.04046" lon="6.9326">
        <ele>230.3</ele>
        <time>2013-09-22T07:46:36Z</time>
      </trkpt>
      <trkpt lat="49.04047" lon="6.93251">
        <ele>229.7</ele>
        <time>2013-09-22T07:46:41Z</time>
      </trkpt>
      <trkpt lat="49.04048" lon="6.93242">
        <ele>230.1</ele>
        <time>2013-09-22T07:46:46Z</time>
      </trkpt>
      <trkpt lat="49.04049" lon="6.93232">
        <ele>230.4</ele>
        <time>2013-09-22T07:46:51Z</time>
      </trkpt>
      <trkpt lat="49.04049" lon="6.93224">
        <ele>230.3</ele>
        <time>2013-09-22T07:46:56Z</time>
      </trkpt>
      <trkpt lat="49.04049" lon="6.93215">
        <ele>230.8</ele>
        <time>2013-09-22T07:47:01Z</time>
      </trkpt>
      <trkpt lat="49.0405" lon="6.93206">
        <ele>230.9</ele>
        <time>2013-09-22T07:47:06Z</time>
      </trkpt>
      <trkpt lat="49.04051" lon="6.93196">
        <ele>231.6</ele>
        <time>2013-09-22T07:47:11Z</time>
      </trkpt>
      <trkpt lat="49.04052" lon="6.93187">
        <ele>231.3</ele>
        <time>2013-09-22T07:47:16Z</time>
      </trkpt>
      <trkpt lat="49.04053" lon="6.93177">
        <ele>232.2</ele>
        <time>2013-09-22T07:47:21Z</time>
      </trkpt>
      <trkpt lat="49.04053" lon="6.93167">
        <ele>232.6</ele>
        <time>2013-09-22T07:47:26Z</time>
      </trkpt>
      <trkpt lat="49.04054" lon="6.93157">
        <ele>232</ele>
        <time>2013-09-22T07:47:31Z</time>
      </trkpt>
      <trkpt lat="49.04055" lon="6.93147">
        <ele>231.9</ele>
        <time>2013-09-22T07:47:36Z</time>
      </trkpt>
      <trkpt lat="49.04055" lon="6.93139">
        <ele>232.5</ele>
        <time>2013-09-22T07:47:41Z</time>
      </trkpt>
      <trkpt lat="49.04054" lon="6.93129">
        <ele>232.8</ele>
        <time>2013-09-22T07:47:46Z</time>
      </trkpt>
      <trkpt lat="49.04054" lon="6.93122">
        <ele>232.9</ele>
        <time>2013-09-22T07:47:51Z</time>
      </trkpt>
      <trkpt lat="49.04054" lon="6.93113">
        <ele>233.6</ele>
        <time>2013-09-22T07:47:56Z</time>
      </trkpt>
      <trkpt lat="49.04054" lon="6.93105">
        <ele>233.8</ele>
        <time>2013-09-22T07:48:01Z</time>
      </trkpt>
      <trkpt lat="49.04054" lon="6.93096">
        <ele>233.8</ele>
        <time>2013-09-22T07:48:06Z</time>
      </trkpt>
      <trkpt lat="49.04053" lon="6.93087">
        <ele>234.4</ele>
        <time>2013-09-22T07:48:11Z</time>
      </trkpt>
      <trkpt lat="49.04053" lon="6.93079">
        <ele>233.9</ele>
        <time>2013-09-22T07:48:16Z</time>
      </trkpt>
      <trkpt lat="49.04053" lon="6.9307">
        <ele>234.9</ele>
        <time>2013-09-22T07:48:21Z</time>
      </trkpt>
      <trkpt lat="49.04053" lon="6.93062">
        <ele>234.4</ele>
        <time>2013-09-22T07:48:26Z</time>
      </trkpt>
      <trkpt lat="49.04053" lon="6.93053">
        <ele>234</ele>
        <time>2013-09-22T07:48:31Z</time>
      </trkpt>
      <trkpt lat="49.04053" lon="6.93042">
        <ele>234.4</ele>
        <time>2013-09-22T07:48:36Z</time>
      </trkpt>
      <trkpt lat="49.04053" lon="6.93032">
        <ele>234.6</ele>
        <time>2013-09-22T07:48:41Z</time>
      </trkpt>
      <trkpt lat="49.04053" lon="6.93022">
        <ele>233.5</ele>
        <time>2013-09-22T07:48:46Z</time>
      </trkpt>
      <trkpt lat="49.04053" lon="6.9301">
        <ele>234.7</ele>
        <time>2013-09-22T07:48:51Z</time>
      </trkpt>
      <trkpt lat="49.04053" lon="6.93001">
        <ele>234.6</ele>
        <time>2013-09-22T07:48:56Z</time>
      </trkpt>
      <trkpt lat="49.04053" lon="6.9299">
        <ele>233.7</ele>
        <time>2013-09-22T07:49:01Z</time>
      </trkpt>
      <trkpt lat="49.04054" lon="6.9298">
        <ele>234.9</ele>
        <time>2013-09-22T07:49:06Z</time>
      </trkpt>
      <trkpt lat="49.04054" lon="6.9297">
        <ele>235.1</ele>
        <time>2013-09-22T07:49:11Z</time>
      </trkpt>
      <trkpt lat="49.04054" lon="6.92961">
        <ele>235.3</ele>
        <time>2013-09-22T07:49:16Z</time>
      </trkpt>
      <trkpt lat="49.04054" lon="6.92952">
        <ele>234.5</ele>
        <time>2013-09-22T07:49:21Z</time>
      </trkpt>
      <trkpt lat="49.04054" lon="6.92942">
        <ele>235.5</ele>
        <time>2013-09-22T07:49:26Z</time>
      </trkpt>
      <trkpt lat="49.04054" lon="6.92932">
        <ele>234.9</ele>
        <time>2013-09-22T07:49:31Z</time>
      </trkpt>
      <trkpt lat="49.04054" lon="6.92924">
        <ele>234.1</ele>
        <time>2013-09-22T07:49:36Z</time>
      </trkpt>
      <trkpt lat="49.04055" lon="6.92915">
        <ele>234.3</ele>
        <time>2013-09-22T07:49:41Z</time>
      </trkpt>
      <trkpt lat="49.04055" lon="6.92905">
        <ele>233.8</ele>
        <time>2013-09-22T07:49:46Z</time>
      </trkpt>
      <trkpt lat="49.04055" lon="6.92896">
        <ele>234</ele>
        <time>2013-09-22T07:49:51Z</time>
      </trkpt>
      <trkpt lat="49.04055" lon="6.92886">
        <ele>234</ele>
        <time>2013-09-22T07:49:56Z</time>
      </trkpt>
      <trkpt lat="49.04055" lon="6.92877">
        <ele>234.8</ele>
        <time>2013-09-22T07:50:01Z</time>
      </trkpt>
      <trkpt lat="49.04055" lon="6.92869">
        <ele>234.7</ele>
        <time>2013-09-22T07:50:06Z</time>
      </trkpt>
      <trkpt lat="49.04055" lon="6.92866">
        <ele>235.2</ele>
        <time>2013-09-22T07:50:11Z</time>
      </trkpt>
      <trkpt lat="49.04055" lon="6.92864">
        <ele>235.2</ele>
        <time>2013-09-22T07:50:16Z</time>
      </trkpt>
      <trkpt lat="49.04055" lon="6.9286">
        <ele>235.1</ele>
        <time>2013-09-22T07:50:21Z</time>
      </trkpt>
      <trkpt lat="49.04054" lon="6.92852">
        <ele>234.5</ele>
        <time>2013-09-22T07:50:26Z</time>
      </trkpt>
      <trkpt lat="49.04053" lon="6.92843">
        <ele>235.3</ele>
        <time>2013-09-22T07:50:31Z</time>
      </trkpt>
      <trkpt lat="49.04053" lon="6.92832">
        <ele>235.5</ele>
        <time>2013-09-22T07:50:36Z</time>
      </trkpt>
      <trkpt lat="49.04055" lon="6.92822">
        <ele>234.8</ele>
        <time>2013-09-22T07:50:41Z</time>
      </trkpt>
      <trkpt lat="49.04055" lon="6.92814">
        <ele>234.5</ele>
        <time>2013-09-22T07:50:46Z</time>
      </trkpt>
      <trkpt lat="49.04055" lon="6.92804">
        <ele>234.7</ele>
        <time>2013-09-22T07:50:51Z</time>
      </trkpt>
      <trkpt lat="49.04055" lon="6.92795">
        <ele>235.2</ele>
        <time>2013-09-22T07:50:56Z</time>
      </trkpt>
      <trkpt lat="49.04054" lon="6.92786">
        <ele>235.6</ele>
        <time>2013-09-22T07:51:01Z</time>
      </trkpt>
      <trkpt lat="49.04054" lon="6.92777">
        <ele>236.1</ele>
        <time>2013-09-22T07:51:06Z</time>
      </trkpt>
      <trkpt lat="49.04054" lon="6.92768">
        <ele>235.7</ele>
        <time>2013-09-22T07:51:11Z</time>
      </trkpt>
      <trkpt lat="49.04054" lon="6.92757">
        <ele>235.4</ele>
        <time>2013-09-22T07:51:16Z</time>
      </trkpt>
      <trkpt lat="49.04054" lon="6.92747">
        <ele>236.1</ele>
        <time>2013-09-22T07:51:21Z</time>
      </trkpt>
      <trkpt lat="49.04054" lon="6.92738">
        <ele>235.4</ele>
        <time>2013-09-22T07:51:26Z</time>
      </trkpt>
      <trkpt lat="49.04054" lon="6.92728">
        <ele>235.6</ele>
        <time>2013-09-22T07:51:31Z</time>
      </trkpt>
      <trkpt lat="49.04054" lon="6.92718">
        <ele>235.8</ele>
        <time>2013-09-22T07:51:36Z</time>
      </trkpt>
      <trkpt lat="49.04054" lon="6.92709">
        <ele>236.6</ele>
        <time>2013-09-22T07:51:41Z</time>
      </trkpt>
      <trkpt lat="49.04054" lon="6.92699">
        <ele>236</ele>
        <time>2013-09-22T07:51:46Z</time>
      </trkpt>
      <trkpt lat="49.04053" lon="6.92691">
        <ele>236.6</ele>
        <time>2013-09-22T07:51:51Z</time>
      </trkpt>
      <trkpt lat="49.04054" lon="6.92683">
        <ele>236.5</ele>
        <time>2013-09-22T07:51:56Z</time>
      </trkpt>
      <trkpt lat="49.04055" lon="6.92674">
        <ele>237.1</ele>
        <time>2013-09-22T07:52:01Z</time>
      </trkpt>
      <trkpt lat="49.04053" lon="6.92664">
        <ele>237.7</ele>
        <time>2013-09-22T07:52:06Z</time>
      </trkpt>
      <trkpt lat="49.04053" lon="6.92654">
        <ele>236.7</ele>
        <time>2013-09-22T07:52:11Z</time>
      </trkpt>
      <trkpt lat="49.04052" lon="6.92645">
        <ele>236.5</ele>
        <time>2013-09-22T07:52:16Z</time>
      </trkpt>
      <trkpt lat="49.04051" lon="6.92635">
        <ele>236.4</ele>
        <time>2013-09-22T07:52:21Z</time>
      </trkpt>
      <trkpt lat="49.0405" lon="6.92625">
        <ele>235.5</ele>
        <time>2013-09-22T07:52:26Z</time>
      </trkpt>
      <trkpt lat="49.0405" lon="6.92615">
        <ele>236.4</ele>
        <time>2013-09-22T07:52:31Z</time>
      </trkpt>
      <trkpt lat="49.0405" lon="6.92606">
        <ele>236.1</ele>
        <time>2013-09-22T07:52:36Z</time>
      </trkpt>
      <trkpt lat="49.0405" lon="6.92596">
        <ele>236.7</ele>
        <time>2013-09-22T07:52:41Z</time>
      </trkpt>
      <trkpt lat="49.04049" lon="6.92587">
        <ele>237.3</ele>
        <time>2013-09-22T07:52:46Z</time>
      </trkpt>
      <trkpt lat="49.04049" lon="6.92578">
        <ele>237.7</ele>
        <time>2013-09-22T07:52:51Z</time>
      </trkpt>
      <trkpt lat="49.04049" lon="6.92568">
        <ele>237</ele>
        <time>2013-09-22T07:52:56Z</time>
      </trkpt>
      <trkpt lat="49.04049" lon="6.92559">
        <ele>237.3</ele>
        <time>2013-09-22T07:53:01Z</time>
      </trkpt>
      <trkpt lat="49.04049" lon="6.92549">
        <ele>238.3</ele>
        <time>2013-09-22T07:53:06Z</time>
      </trkpt>
      <trkpt lat="49.04049" lon="6.92539">
        <ele>237.5</ele>
        <time>2013-09-22T07:53:11Z</time>
      </trkpt>
      <trkpt lat="49.0405" lon="6.9253">
        <ele>237.5</ele>
        <time>2013-09-22T07:53:16Z</time>
      </trkpt>
      <trkpt lat="49.04051" lon="6.92522">
        <ele>238.2</ele>
        <time>2013-09-22T07:53:21Z</time>
      </trkpt>
      <trkpt lat="49.04051" lon="6.92513">
        <ele>238.8</ele>
        <time>2013-09-22T07:53:26Z</time>
      </trkpt>
      <trkpt lat="49.04052" lon="6.92504">
        <ele>238.3</ele>
        <time>2013-09-22T07:53:31Z</time>
      </trkpt>
      <trkpt lat="49.04052" lon="6.92496">
        <ele>238.9</ele>
        <time>2013-09-22T07:53:36Z</time>
      </trkpt>
      <trkpt lat="49.04053" lon="6.92487">
        <ele>239.8</ele>
        <time>2013-09-22T07:53:41Z</time>
      </trkpt>
      <trkpt lat="49.04053" lon="6.92478">
        <ele>239.8</ele>
        <time>2013-09-22T07:53:46Z</time>
      </trkpt>
      <trkpt lat="49.04053" lon="6.92468">
        <ele>240.7</ele>
        <time>2013-09-22T07:53:51Z</time>
      </trkpt>
      <trkpt lat="49.04054" lon="6.9246">
        <ele>240.4</ele>
        <time>2013-09-22T07:53:56Z</time>
      </trkpt>
      <trkpt lat="49.04055" lon="6.92452">
        <ele>240.3</ele>
        <time>2013-09-22T07:54:01Z</time>
      </trkpt>
      <trkpt lat="49.04056" lon="6.92443">
        <ele>241.9</ele>
        <time>2013-09-22T07:54:06Z</time>
      </trkpt>
      <trkpt lat="49.04058" lon="6.92434">
        <ele>240.7</ele>
        <time>2013-09-22T07:54:11Z</time>
      </trkpt>
      <trkpt lat="49.04058" lon="6.92425">
        <ele>242.7</ele>
        <time>2013-09-22T07:54:16Z</time>
      </trkpt>
      <trkpt lat="49.04058" lon="6.92417">
        <ele>242</ele>
        <time>2013-09-22T07:54:21Z</time>
      </trkpt>
      <trkpt lat="49.04059" lon="6.92408">
        <ele>242.8</ele>
        <time>2013-09-22T07:54:26Z</time>
      </trkpt>
      <trkpt lat="49.04061" lon="6.92399">
        <ele>243.5</ele>
        <time>2013-09-22T07:54:31Z</time>
      </trkpt>
      <trkpt lat="49.04061" lon="6.9239">
        <ele>243.8</ele>
        <time>2013-09-22T07:54:36Z</time>
      </trkpt>
      <trkpt lat="49.04063" lon="6.9238">
        <ele>243.8</ele>
        <time>2013-09-22T07:54:41Z</time>
      </trkpt>
      <trkpt lat="49.04063" lon="6.9237">
        <ele>244</ele>
        <time>2013-09-22T07:54:46Z</time>
      </trkpt>
      <trkpt lat="49.04064" lon="6.92361">
        <ele>244.3</ele>
        <time>2013-09-22T07:54:51Z</time>
      </trkpt>
      <trkpt lat="49.04065" lon="6.92351">
        <ele>244.2</ele>
        <time>2013-09-22T07:54:56Z</time>
      </trkpt>
      <trkpt lat="49.04065" lon="6.92343">
        <ele>244.8</ele>
        <time>2013-09-22T07:55:01Z</time>
      </trkpt>
      <trkpt lat="49.04065" lon="6.92334">
        <ele>244.6</ele>
        <time>2013-09-22T07:55:06Z</time>
      </trkpt>
      <trkpt lat="49.04066" lon="6.92326">
        <ele>245.4</ele>
        <time>2013-09-22T07:55:11Z</time>
      </trkpt>
      <trkpt lat="49.04066" lon="6.92318">
        <ele>244.4</ele>
        <time>2013-09-22T07:55:16Z</time>
      </trkpt>
      <trkpt lat="49.04066" lon="6.9231">
        <ele>245.4</ele>
        <time>2013-09-22T07:55:21Z</time>
      </trkpt>
      <trkpt lat="49.04066" lon="6.92301">
        <ele>245.7</ele>
        <time>2013-09-22T07:55:26Z</time>
      </trkpt>
      <trkpt lat="49.04067" lon="6.92292">
        <ele>245.7</ele>
        <time>2013-09-22T07:55:31Z</time>
      </trkpt>
      <trkpt lat="49.04068" lon="6.92284">
        <ele>245.7</ele>
        <time>2013-09-22T07:55:36Z</time>
      </trkpt>
      <trkpt lat="49.04067" lon="6.92275">
        <ele>246.3</ele>
        <time>2013-09-22T07:55:41Z</time>
      </trkpt>
      <trkpt lat="49.04068" lon="6.92265">
        <ele>246.6</ele>
        <time>2013-09-22T07:55:46Z</time>
      </trkpt>
      <trkpt lat="49.04068" lon="6.92256">
        <ele>246.6</ele>
        <time>2013-09-22T07:55:51Z</time>
      </trkpt>
      <trkpt lat="49.04068" lon="6.92248">
        <ele>247.2</ele>
        <time>2013-09-22T07:55:56Z</time>
      </trkpt>
      <trkpt lat="49.04065" lon="6.92239">
        <ele>247.7</ele>
        <time>2013-09-22T07:56:01Z</time>
      </trkpt>
      <trkpt lat="49.04064" lon="6.92231">
        <ele>248.4</ele>
        <time>2013-09-22T07:56:06Z</time>
      </trkpt>
      <trkpt lat="49.04063" lon="6.92223">
        <ele>248.5</ele>
        <time>2013-09-22T07:56:11Z</time>
      </trkpt>
      <trkpt lat="49.04061" lon="6.92213">
        <ele>248.7</ele>
        <time>2013-09-22T07:56:16Z</time>
      </trkpt>
      <trkpt lat="49.04059" lon="6.92204">
        <ele>248.1</ele>
        <time>2013-09-22T07:56:21Z</time>
      </trkpt>
      <trkpt lat="49.04056" lon="6.92195">
        <ele>248.6</ele>
        <time>2013-09-22T07:56:26Z</time>
      </trkpt>
      <trkpt lat="49.04052" lon="6.92187">
        <ele>249</ele>
        <time>2013-09-22T07:56:31Z</time>
      </trkpt>
      <trkpt lat="49.0405" lon="6.92179">
        <ele>250.1</ele>
        <time>2013-09-22T07:56:36Z</time>
      </trkpt>
      <trkpt lat="49.04046" lon="6.92172">
        <ele>250.5</ele>
        <time>2013-09-22T07:56:41Z</time>
      </trkpt>
      <trkpt lat="49.04043" lon="6.92164">
        <ele>250</ele>
        <time>2013-09-22T07:56:46Z</time>
      </trkpt>
      <trkpt lat="49.04041" lon="6.92155">
        <ele>250</ele>
        <time>2013-09-22T07:56:51Z</time>
      </trkpt>
      <trkpt lat="49.04038" lon="6.92145">
        <ele>250.3</ele>
        <time>2013-09-22T07:56:56Z</time>
      </trkpt>
      <trkpt lat="49.04036" lon="6.92135">
        <ele>250.6</ele>
        <time>2013-09-22T07:57:01Z</time>
      </trkpt>
      <trkpt lat="49.04034" lon="6.92127">
        <ele>250.8</ele>
        <time>2013-09-22T07:57:06Z</time>
      </trkpt>
      <trkpt lat="49.04031" lon="6.9212">
        <ele>251</ele>
        <time>2013-09-22T07:57:11Z</time>
      </trkpt>
      <trkpt lat="49.0403" lon="6.92112">
        <ele>251.5</ele>
        <time>2013-09-22T07:57:16Z</time>
      </trkpt>
      <trkpt lat="49.04029" lon="6.92103">
        <ele>251.5</ele>
        <time>2013-09-22T07:57:21Z</time>
      </trkpt>
      <trkpt lat="49.04028" lon="6.92095">
        <ele>251.7</ele>
        <time>2013-09-22T07:57:26Z</time>
      </trkpt>
      <trkpt lat="49.04027" lon="6.9209">
        <ele>252.3</ele>
        <time>2013-09-22T07:57:31Z</time>
      </trkpt>
      <trkpt lat="49.04025" lon="6.92084">
        <ele>251</ele>
        <time>2013-09-22T07:57:36Z</time>
      </trkpt>
      <trkpt lat="49.04022" lon="6.92078">
        <ele>251.1</ele>
        <time>2013-09-22T07:57:41Z</time>
      </trkpt>
      <trkpt lat="49.04019" lon="6.92073">
        <ele>251.2</ele>
        <time>2013-09-22T07:57:46Z</time>
      </trkpt>
      <trkpt lat="49.04016" lon="6.92068">
        <ele>251.7</ele>
        <time>2013-09-22T07:57:51Z</time>
      </trkpt>
      <trkpt lat="49.04012" lon="6.92061">
        <ele>251.5</ele>
        <time>2013-09-22T07:57:56Z</time>
      </trkpt>
      <trkpt lat="49.04008" lon="6.92056">
        <ele>251.9</ele>
        <time>2013-09-22T07:58:01Z</time>
      </trkpt>
      <trkpt lat="49.04004" lon="6.92052">
        <ele>251.9</ele>
        <time>2013-09-22T07:58:06Z</time>
      </trkpt>
      <trkpt lat="49.03999" lon="6.92048">
        <ele>252.4</ele>
        <time>2013-09-22T07:58:11Z</time>
      </trkpt>
      <trkpt lat="49.03994" lon="6.92043">
        <ele>250.8</ele>
        <time>2013-09-22T07:58:16Z</time>
      </trkpt>
      <trkpt lat="49.03987" lon="6.92041">
        <ele>251.5</ele>
        <time>2013-09-22T07:58:21Z</time>
      </trkpt>
      <trkpt lat="49.0398" lon="6.9204">
        <ele>251.3</ele>
        <time>2013-09-22T07:58:26Z</time>
      </trkpt>
      <trkpt lat="49.03973" lon="6.92042">
        <ele>250.4</ele>
        <time>2013-09-22T07:58:31Z</time>
      </trkpt>
      <trkpt lat="49.03966" lon="6.92044">
        <ele>250.2</ele>
        <time>2013-09-22T07:58:36Z</time>
      </trkpt>
      <trkpt lat="49.03959" lon="6.92048">
        <ele>250.5</ele>
        <time>2013-09-22T07:58:41Z</time>
      </trkpt>
      <trkpt lat="49.03953" lon="6.92051">
        <ele>250.1</ele>
        <time>2013-09-22T07:58:46Z</time>
      </trkpt>
      <trkpt lat="49.03946" lon="6.92054">
        <ele>249.5</ele>
        <time>2013-09-22T07:58:51Z</time>
      </trkpt>
      <trkpt lat="49.0394" lon="6.92057">
        <ele>248.5</ele>
        <time>2013-09-22T07:58:56Z</time>
      </trkpt>
      <trkpt lat="49.03933" lon="6.9206">
        <ele>248.4</ele>
        <time>2013-09-22T07:59:01Z</time>
      </trkpt>
      <trkpt lat="49.03927" lon="6.92063">
        <ele>247.4</ele>
        <time>2013-09-22T07:59:06Z</time>
      </trkpt>
      <trkpt lat="49.03921" lon="6.92066">
        <ele>247.2</ele>
        <time>2013-09-22T07:59:11Z</time>
      </trkpt>
      <trkpt lat="49.03915" lon="6.9207">
        <ele>246.6</ele>
        <time>2013-09-22T07:59:16Z</time>
      </trkpt>
      <trkpt lat="49.03909" lon="6.92072">
        <ele>246.3</ele>
        <time>2013-09-22T07:59:21Z</time>
      </trkpt>
      <trkpt lat="49.03903" lon="6.92076">
        <ele>245.5</ele>
        <time>2013-09-22T07:59:26Z</time>
      </trkpt>
      <trkpt lat="49.03897" lon="6.9208">
        <ele>245.7</ele>
        <time>2013-09-22T07:59:31Z</time>
      </trkpt>
      <trkpt lat="49.03891" lon="6.92084">
        <ele>245.1</ele>
        <time>2013-09-22T07:59:36Z</time>
      </trkpt>
      <trkpt lat="49.03886" lon="6.92086">
        <ele>244.1</ele>
        <time>2013-09-22T07:59:41Z</time>
      </trkpt>
      <trkpt lat="49.0388" lon="6.9209">
        <ele>244</ele>
        <time>2013-09-22T07:59:46Z</time>
      </trkpt>
      <trkpt lat="49.03874" lon="6.92094">
        <ele>243.6</ele>
        <time>2013-09-22T07:59:51Z</time>
      </trkpt>
      <trkpt lat="49.03868" lon="6.92099">
        <ele>244.3</ele>
        <time>2013-09-22T07:59:56Z</time>
      </trkpt>
      <trkpt lat="49.03863" lon="6.92103">
        <ele>243.4</ele>
        <time>2013-09-22T08:00:01Z</time>
      </trkpt>
      <trkpt lat="49.03857" lon="6.92108">
        <ele>243.1</ele>
        <time>2013-09-22T08:00:06Z</time>
      </trkpt>
      <trkpt lat="49.03852" lon="6.92113">
        <ele>243.1</ele>
        <time>2013-09-22T08:00:11Z</time>
      </trkpt>
      <trkpt lat="49.03846" lon="6.92119">
        <ele>242.8</ele>
        <time>2013-09-22T08:00:16Z</time>
      </trkpt>
      <trkpt lat="49.03841" lon="6.92124">
        <ele>243.2</ele>
        <time>2013-09-22T08:00:21Z</time>
      </trkpt>
      <trkpt lat="49.03838" lon="6.92127">
        <ele>242.3</ele>
        <time>2013-09-22T08:00:26Z</time>
      </trkpt>
      <trkpt lat="49.03835" lon="6.92129">
        <ele>241.5</ele>
        <time>2013-09-22T08:00:31Z</time>
      </trkpt>
      <trkpt lat="49.03832" lon="6.9213">
        <ele>241.7</ele>
        <time>2013-09-22T08:00:36Z</time>
      </trkpt>
      <trkpt lat="49.03829" lon="6.92132">
        <ele>241.1</ele>
        <time>2013-09-22T08:00:41Z</time>
      </trkpt>
      <trkpt lat="49.03826" lon="6.92135">
        <ele>240.9</ele>
        <time>2013-09-22T08:00:46Z</time>
      </trkpt>
      <trkpt lat="49.03823" lon="6.92139">
        <ele>241.2</ele>
        <time>2013-09-22T08:00:51Z</time>
      </trkpt>
      <trkpt lat="49.03821" lon="6.92146">
        <ele>242</ele>
        <time>2013-09-22T08:00:56Z</time>
      </trkpt>
      <trkpt lat="49.03818" lon="6.92152">
        <ele>242.2</ele>
        <time>2013-09-22T08:01:01Z</time>
      </trkpt>
      <trkpt lat="49.03814" lon="6.92157">
        <ele>242.7</ele>
        <time>2013-09-22T08:01:06Z</time>
      </trkpt>
      <trkpt lat="49.0381" lon="6.92163">
        <ele>242.4</ele>
        <time>2013-09-22T08:01:11Z</time>
      </trkpt>
      <trkpt lat="49.03806" lon="6.9217">
        <ele>241.5</ele>
        <time>2013-09-22T08:01:16Z</time>
      </trkpt>
      <trkpt lat="49.03802" lon="6.92176">
        <ele>242.2</ele>
        <time>2013-09-22T08:01:21Z</time>
      </trkpt>
      <trkpt lat="49.03798" lon="6.92183">
        <ele>241.7</ele>
        <time>2013-09-22T08:01:26Z</time>
      </trkpt>
      <trkpt lat="49.03794" lon="6.92189">
        <ele>241.9</ele>
        <time>2013-09-22T08:01:31Z</time>
      </trkpt>
      <trkpt lat="49.03791" lon="6.92196">
        <ele>242.3</ele>
        <time>2013-09-22T08:01:36Z</time>
      </trkpt>
      <trkpt lat="49.03788" lon="6.92202">
        <ele>243</ele>
        <time>2013-09-22T08:01:41Z</time>
      </trkpt>
      <trkpt lat="49.03784" lon="6.92208">
        <ele>243.1</ele>
        <time>2013-09-22T08:01:46Z</time>
      </trkpt>
      <trkpt lat="49.03781" lon="6.92214">
        <ele>243.8</ele>
        <time>2013-09-22T08:01:51Z</time>
      </trkpt>
      <trkpt lat="49.03778" lon="6.92219">
        <ele>243.9</ele>
        <time>2013-09-22T08:01:56Z</time>
      </trkpt>
      <trkpt lat="49.03773" lon="6.92225">
        <ele>244.2</ele>
        <time>2013-09-22T08:02:01Z</time>
      </trkpt>
      <trkpt lat="49.03769" lon="6.92231">
        <ele>244.7</ele>
        <time>2013-09-22T08:02:06Z</time>
      </trkpt>
      <trkpt lat="49.03765" lon="6.92238">
        <ele>244.8</ele>
        <time>2013-09-22T08:02:11Z</time>
      </trkpt>
      <trkpt lat="49.03761" lon="6.92244">
        <ele>245</ele>
        <time>2013-09-22T08:02:16Z</time>
      </trkpt>
      <trkpt lat="49.03757" lon="6.92251">
        <ele>244.6</ele>
        <time>2013-09-22T08:02:21Z</time>
      </trkpt>
      <trkpt lat="49.03753" lon="6.92259">
        <ele>245.1</ele>
        <time>2013-09-22T08:02:26Z</time>
      </trkpt>
      <trkpt lat="49.03749" lon="6.92266">
        <ele>245.1</ele>
        <time>2013-09-22T08:02:31Z</time>
      </trkpt>
      <trkpt lat="49.03746" lon="6.92274">
        <ele>245.5</ele>
        <time>2013-09-22T08:02:36Z</time>
      </trkpt>
      <trkpt lat="49.03743" lon="6.92283">
        <ele>245.4</ele>
        <time>2013-09-22T08:02:41Z</time>
      </trkpt>
      <trkpt lat="49.03742" lon="6.92289">
        <ele>244.6</ele>
        <time>2013-09-22T08:02:46Z</time>
      </trkpt>
      <trkpt lat="49.03741" lon="6.92296">
        <ele>245.4</ele>
        <time>2013-09-22T08:02:51Z</time>
      </trkpt>
      <trkpt lat="49.03738" lon="6.92304">
        <ele>245.4</ele>
        <time>2013-09-22T08:02:56Z</time>
      </trkpt>
      <trkpt lat="49.03735" lon="6.92311">
        <ele>244.8</ele>
        <time>2013-09-22T08:03:01Z</time>
      </trkpt>
      <trkpt lat="49.03732" lon="6.92318">
        <ele>245</ele>
        <time>2013-09-22T08:03:06Z</time>
      </trkpt>
      <trkpt lat="49.0373" lon="6.92325">
        <ele>245.1</ele>
        <time>2013-09-22T08:03:11Z</time>
      </trkpt>
      <trkpt lat="49.03729" lon="6.92332">
        <ele>245.3</ele>
        <time>2013-09-22T08:03:16Z</time>
      </trkpt>
      <trkpt lat="49.03727" lon="6.9234">
        <ele>245.1</ele>
        <time>2013-09-22T08:03:21Z</time>
      </trkpt>
      <trkpt lat="49.03724" lon="6.92347">
        <ele>244.4</ele>
        <time>2013-09-22T08:03:26Z</time>
      </trkpt>
      <trkpt lat="49.03723" lon="6.92355">
        <ele>244.1</ele>
        <time>2013-09-22T08:03:31Z</time>
      </trkpt>
      <trkpt lat="49.03721" lon="6.92363">
        <ele>244.6</ele>
        <time>2013-09-22T08:03:36Z</time>
      </trkpt>
      <trkpt lat="49.03719" lon="6.92371">
        <ele>245</ele>
        <time>2013-09-22T08:03:41Z</time>
      </trkpt>
      <trkpt lat="49.03717" lon="6.92381">
        <ele>245</ele>
        <time>2013-09-22T08:03:46Z</time>
      </trkpt>
      <trkpt lat="49.03716" lon="6.9239">
        <ele>245.2</ele>
        <time>2013-09-22T08:03:51Z</time>
      </trkpt>
      <trkpt lat="49.03715" lon="6.92399">
        <ele>245.5</ele>
        <time>2013-09-22T08:03:56Z</time>
      </trkpt>
      <trkpt lat="49.03713" lon="6.92409">
        <ele>245.7</ele>
        <time>2013-09-22T08:04:01Z</time>
      </trkpt>
      <trkpt lat="49.03712" lon="6.92418">
        <ele>245.4</ele>
        <time>2013-09-22T08:04:06Z</time>
      </trkpt>
      <trkpt lat="49.0371" lon="6.92427">
        <ele>245.3</ele>
        <time>2013-09-22T08:04:11Z</time>
      </trkpt>
      <trkpt lat="49.03708" lon="6.92437">
        <ele>246.3</ele>
        <time>2013-09-22T08:04:16Z</time>
      </trkpt>
      <trkpt lat="49.03707" lon="6.92446">
        <ele>246.7</ele>
        <time>2013-09-22T08:04:21Z</time>
      </trkpt>
      <trkpt lat="49.03705" lon="6.92457">
        <ele>246.4</ele>
        <time>2013-09-22T08:04:26Z</time>
      </trkpt>
      <trkpt lat="49.03703" lon="6.92466">
        <ele>246</ele>
        <time>2013-09-22T08:04:31Z</time>
      </trkpt>
      <trkpt lat="49.03702" lon="6.92476">
        <ele>245.3</ele>
        <time>2013-09-22T08:04:36Z</time>
      </trkpt>
      <trkpt lat="49.03701" lon="6.92485">
        <ele>245.5</ele>
        <time>2013-09-22T08:04:41Z</time>
      </trkpt>
      <trkpt lat="49.037" lon="6.92494">
        <ele>245.1</ele>
        <time>2013-09-22T08:04:46Z</time>
      </trkpt>
      <trkpt lat="49.037" lon="6.92504">
        <ele>244.6</ele>
        <time>2013-09-22T08:04:51Z</time>
      </trkpt>
      <trkpt lat="49.03699" lon="6.92513">
        <ele>245.8</ele>
        <time>2013-09-22T08:04:56Z</time>
      </trkpt>
      <trkpt lat="49.03698" lon="6.92521">
        <ele>246.1</ele>
        <time>2013-09-22T08:05:01Z</time>
      </trkpt>
      <trkpt lat="49.03698" lon="6.92531">
        <ele>245.7</ele>
        <time>2013-09-22T08:05:06Z</time>
      </trkpt>
      <trkpt lat="49.03698" lon="6.92541">
        <ele>245.3</ele>
        <time>2013-09-22T08:05:11Z</time>
      </trkpt>
      <trkpt lat="49.03699" lon="6.92551">
        <ele>245.2</ele>
        <time>2013-09-22T08:05:16Z</time>
      </trkpt>
      <trkpt lat="49.03699" lon="6.9256">
        <ele>246</ele>
        <time>2013-09-22T08:05:21Z</time>
      </trkpt>
      <trkpt lat="49.03699" lon="6.92569">
        <ele>245.7</ele>
        <time>2013-09-22T08:05:26Z</time>
      </trkpt>
      <trkpt lat="49.03698" lon="6.92578">
        <ele>244.8</ele>
        <time>2013-09-22T08:05:31Z</time>
      </trkpt>
      <trkpt lat="49.03697" lon="6.92587">
        <ele>244.8</ele>
        <time>2013-09-22T08:05:36Z</time>
      </trkpt>
      <trkpt lat="49.03694" lon="6.92595">
        <ele>245.2</ele>
        <time>2013-09-22T08:05:41Z</time>
      </trkpt>
      <trkpt lat="49.03692" lon="6.92603">
        <ele>245.1</ele>
        <time>2013-09-22T08:05:46Z</time>
      </trkpt>
      <trkpt lat="49.03689" lon="6.92609">
        <ele>244.2</ele>
        <time>2013-09-22T08:05:51Z</time>
      </trkpt>
      <trkpt lat="49.03686" lon="6.92615">
        <ele>245</ele>
        <time>2013-09-22T08:05:56Z</time>
      </trkpt>
      <trkpt lat="49.03681" lon="6.92621">
        <ele>244.5</ele>
        <time>2013-09-22T08:06:01Z</time>
      </trkpt>
      <trkpt lat="49.03676" lon="6.92627">
        <ele>244.6</ele>
        <time>2013-09-22T08:06:06Z</time>
      </trkpt>
      <trkpt lat="49.03671" lon="6.92632">
        <ele>245.2</ele>
        <time>2013-09-22T08:06:11Z</time>
      </trkpt>
      <trkpt lat="49.03666" lon="6.92636">
        <ele>244.4</ele>
        <time>2013-09-22T08:06:16Z</time>
      </trkpt>
      <trkpt lat="49.03661" lon="6.92639">
        <ele>245.2</ele>
        <time>2013-09-22T08:06:21Z</time>
      </trkpt>
      <trkpt lat="49.03655" lon="6.92642">
        <ele>245.1</ele>
        <time>2013-09-22T08:06:26Z</time>
      </trkpt>
      <trkpt lat="49.03649" lon="6.92645">
        <ele>245.1</ele>
        <time>2013-09-22T08:06:31Z</time>
      </trkpt>
      <trkpt lat="49.03643" lon="6.92646">
        <ele>245.2</ele>
        <time>2013-09-22T08:06:36Z</time>
      </trkpt>
      <trkpt lat="49.03636" lon="6.92648">
        <ele>245.2</ele>
        <time>2013-09-22T08:06:41Z</time>
      </trkpt>
      <trkpt lat="49.0363" lon="6.92649">
        <ele>245.2</ele>
        <time>2013-09-22T08:06:46Z</time>
      </trkpt>
      <trkpt lat="49.03623" lon="6.9265">
        <ele>246.6</ele>
        <time>2013-09-22T08:06:51Z</time>
      </trkpt>
      <trkpt lat="49.03617" lon="6.92651">
        <ele>246.4</ele>
        <time>2013-09-22T08:06:56Z</time>
      </trkpt>
      <trkpt lat="49.03611" lon="6.92651">
        <ele>245.2</ele>
        <time>2013-09-22T08:07:01Z</time>
      </trkpt>
      <trkpt lat="49.03605" lon="6.92653">
        <ele>245.1</ele>
        <time>2013-09-22T08:07:06Z</time>
      </trkpt>
      <trkpt lat="49.03598" lon="6.92653">
        <ele>245.1</ele>
        <time>2013-09-22T08:07:11Z</time>
      </trkpt>
      <trkpt lat="49.03592" lon="6.92655">
        <ele>245</ele>
        <time>2013-09-22T08:07:16Z</time>
      </trkpt>
      <trkpt lat="49.03586" lon="6.92657">
        <ele>244.6</ele>
        <time>2013-09-22T08:07:21Z</time>
      </trkpt>
      <trkpt lat="49.0358" lon="6.92661">
        <ele>244.3</ele>
        <time>2013-09-22T08:07:26Z</time>
      </trkpt>
      <trkpt lat="49.03574" lon="6.92664">
        <ele>244.4</ele>
        <time>2013-09-22T08:07:31Z</time>
      </trkpt>
      <trkpt lat="49.0357" lon="6.92658">
        <ele>244.1</ele>
        <time>2013-09-22T08:07:36Z</time>
      </trkpt>
      <trkpt lat="49.03569" lon="6.92651">
        <ele>244.1</ele>
        <time>2013-09-22T08:07:41Z</time>
      </trkpt>
      <trkpt lat="49.03569" lon="6.92643">
        <ele>244.1</ele>
        <time>2013-09-22T08:07:46Z</time>
      </trkpt>
      <trkpt lat="49.03569" lon="6.92635">
        <ele>243.7</ele>
        <time>2013-09-22T08:07:51Z</time>
      </trkpt>
      <trkpt lat="49.03568" lon="6.92625">
        <ele>244.1</ele>
        <time>2013-09-22T08:07:56Z</time>
      </trkpt>
      <trkpt lat="49.03568" lon="6.92617">
        <ele>244.4</ele>
        <time>2013-09-22T08:08:01Z</time>
      </trkpt>
      <trkpt lat="49.03568" lon="6.92608">
        <ele>244.3</ele>
        <time>2013-09-22T08:08:06Z</time>
      </trkpt>
      <trkpt lat="49.03568" lon="6.92598">
        <ele>244.6</ele>
        <time>2013-09-22T08:08:11Z</time>
      </trkpt>
      <trkpt lat="49.03568" lon="6.92588">
        <ele>244.3</ele>
        <time>2013-09-22T08:08:16Z</time>
      </trkpt>
      <trkpt lat="49.03568" lon="6.92578">
        <ele>244.5</ele>
        <time>2013-09-22T08:08:21Z</time>
      </trkpt>
      <trkpt lat="49.03569" lon="6.92569">
        <ele>244.2</ele>
        <time>2013-09-22T08:08:26Z</time>
      </trkpt>
      <trkpt lat="49.03568" lon="6.9256">
        <ele>244.8</ele>
        <time>2013-09-22T08:08:31Z</time>
      </trkpt>
      <trkpt lat="49.03568" lon="6.9255">
        <ele>245.9</ele>
        <time>2013-09-22T08:08:36Z</time>
      </trkpt>
      <trkpt lat="49.03569" lon="6.92541">
        <ele>245.1</ele>
        <time>2013-09-22T08:08:41Z</time>
      </trkpt>
      <trkpt lat="49.03569" lon="6.92532">
        <ele>245</ele>
        <time>2013-09-22T08:08:46Z</time>
      </trkpt>
      <trkpt lat="49.03569" lon="6.92523">
        <ele>244.7</ele>
        <time>2013-09-22T08:08:51Z</time>
      </trkpt>
      <trkpt lat="49.03568" lon="6.92516">
        <ele>244.4</ele>
        <time>2013-09-22T08:08:56Z</time>
      </trkpt>
      <trkpt lat="49.03568" lon="6.92507">
        <ele>244.7</ele>
        <time>2013-09-22T08:09:01Z</time>
      </trkpt>
      <trkpt lat="49.03567" lon="6.92499">
        <ele>244</ele>
        <time>2013-09-22T08:09:06Z</time>
      </trkpt>
      <trkpt lat="49.03566" lon="6.9249">
        <ele>244.2</ele>
        <time>2013-09-22T08:09:11Z</time>
      </trkpt>
      <trkpt lat="49.03564" lon="6.92481">
        <ele>244.1</ele>
        <time>2013-09-22T08:09:16Z</time>
      </trkpt>
      <trkpt lat="49.03563" lon="6.92472">
        <ele>243.3</ele>
        <time>2013-09-22T08:09:21Z</time>
      </trkpt>
      <trkpt lat="49.03562" lon="6.92461">
        <ele>242.9</ele>
        <time>2013-09-22T08:09:26Z</time>
      </trkpt>
      <trkpt lat="49.0356" lon="6.92452">
        <ele>242.5</ele>
        <time>2013-09-22T08:09:31Z</time>
      </trkpt>
      <trkpt lat="49.03559" lon="6.92441">
        <ele>242.5</ele>
        <time>2013-09-22T08:09:36Z</time>
      </trkpt>
      <trkpt lat="49.03557" lon="6.92432">
        <ele>242.5</ele>
        <time>2013-09-22T08:09:41Z</time>
      </trkpt>
      <trkpt lat="49.03554" lon="6.92423">
        <ele>242.2</ele>
        <time>2013-09-22T08:09:46Z</time>
      </trkpt>
      <trkpt lat="49.03552" lon="6.92414">
        <ele>242.1</ele>
        <time>2013-09-22T08:09:51Z</time>
      </trkpt>
      <trkpt lat="49.0355" lon="6.92405">
        <ele>241.7</ele>
        <time>2013-09-22T08:09:56Z</time>
      </trkpt>
      <trkpt lat="49.03547" lon="6.92398">
        <ele>242.1</ele>
        <time>2013-09-22T08:10:01Z</time>
      </trkpt>
      <trkpt lat="49.03544" lon="6.9239">
        <ele>241.2</ele>
        <time>2013-09-22T08:10:06Z</time>
      </trkpt>
      <trkpt lat="49.0354" lon="6.92382">
        <ele>241.1</ele>
        <time>2013-09-22T08:10:11Z</time>
      </trkpt>
      <trkpt lat="49.03537" lon="6.92375">
        <ele>240.4</ele>
        <time>2013-09-22T08:10:16Z</time>
      </trkpt>
      <trkpt lat="49.03534" lon="6.92366">
        <ele>240.2</ele>
        <time>2013-09-22T08:10:21Z</time>
      </trkpt>
      <trkpt lat="49.0353" lon="6.92359">
        <ele>239.7</ele>
        <time>2013-09-22T08:10:26Z</time>
      </trkpt>
      <trkpt lat="49.03526" lon="6.92352">
        <ele>238.8</ele>
        <time>2013-09-22T08:10:31Z</time>
      </trkpt>
      <trkpt lat="49.03523" lon="6.92345">
        <ele>239.1</ele>
        <time>2013-09-22T08:10:36Z</time>
      </trkpt>
      <trkpt lat="49.03519" lon="6.92338">
        <ele>239.1</ele>
        <time>2013-09-22T08:10:41Z</time>
      </trkpt>
      <trkpt lat="49.03515" lon="6.9233">
        <ele>238.9</ele>
        <time>2013-09-22T08:10:46Z</time>
      </trkpt>
      <trkpt lat="49.03511" lon="6.92323">
        <ele>238.6</ele>
        <time>2013-09-22T08:10:51Z</time>
      </trkpt>
      <trkpt lat="49.03506" lon="6.92316">
        <ele>239.6</ele>
        <time>2013-09-22T08:10:56Z</time>
      </trkpt>
      <trkpt lat="49.03502" lon="6.92308">
        <ele>238.3</ele>
        <time>2013-09-22T08:11:01Z</time>
      </trkpt>
      <trkpt lat="49.03497" lon="6.923">
        <ele>238.2</ele>
        <time>2013-09-22T08:11:06Z</time>
      </trkpt>
      <trkpt lat="49.03493" lon="6.92292">
        <ele>237.6</ele>
        <time>2013-09-22T08:11:11Z</time>
      </trkpt>
      <trkpt lat="49.03488" lon="6.92284">
        <ele>236.9</ele>
        <time>2013-09-22T08:11:16Z</time>
      </trkpt>
      <trkpt lat="49.03484" lon="6.92276">
        <ele>236.9</ele>
        <time>2013-09-22T08:11:21Z</time>
      </trkpt>
      <trkpt lat="49.03479" lon="6.92268">
        <ele>237</ele>
        <time>2013-09-22T08:11:26Z</time>
      </trkpt>
      <trkpt lat="49.03475" lon="6.9226">
        <ele>237.4</ele>
        <time>2013-09-22T08:11:31Z</time>
      </trkpt>
      <trkpt lat="49.0347" lon="6.92253">
        <ele>236.9</ele>
        <time>2013-09-22T08:11:36Z</time>
      </trkpt>
      <trkpt lat="49.03465" lon="6.92245">
        <ele>236.4</ele>
        <time>2013-09-22T08:11:41Z</time>
      </trkpt>
      <trkpt lat="49.0346" lon="6.92238">
        <ele>236</ele>
        <time>2013-09-22T08:11:46Z</time>
      </trkpt>
      <trkpt lat="49.03455" lon="6.92231">
        <ele>235.4</ele>
        <time>2013-09-22T08:11:51Z</time>
      </trkpt>
      <trkpt lat="49.0345" lon="6.92224">
        <ele>235.6</ele>
        <time>2013-09-22T08:11:56Z</time>
      </trkpt>
      <trkpt lat="49.03444" lon="6.92218">
        <ele>235.4</ele>
        <time>2013-09-22T08:12:01Z</time>
      </trkpt>
      <trkpt lat="49.03439" lon="6.92211">
        <ele>235.5</ele>
        <time>2013-09-22T08:12:06Z</time>
      </trkpt>
      <trkpt lat="49.03434" lon="6.92204">
        <ele>236.1</ele>
        <time>2013-09-22T08:12:11Z</time>
      </trkpt>
      <trkpt lat="49.03429" lon="6.92197">
        <ele>234.6</ele>
        <time>2013-09-22T08:12:16Z</time>
      </trkpt>
      <trkpt lat="49.03423" lon="6.92192">
        <ele>234.1</ele>
        <time>2013-09-22T08:12:21Z</time>
      </trkpt>
      <trkpt lat="49.03418" lon="6.92186">
        <ele>233.9</ele>
        <time>2013-09-22T08:12:26Z</time>
      </trkpt>
      <trkpt lat="49.03413" lon="6.92182">
        <ele>232.4</ele>
        <time>2013-09-22T08:12:31Z</time>
      </trkpt>
      <trkpt lat="49.03407" lon="6.92177">
        <ele>232.5</ele>
        <time>2013-09-22T08:12:36Z</time>
      </trkpt>
      <trkpt lat="49.03402" lon="6.92173">
        <ele>232.1</ele>
        <time>2013-09-22T08:12:41Z</time>
      </trkpt>
      <trkpt lat="49.03397" lon="6.92168">
        <ele>231.4</ele>
        <time>2013-09-22T08:12:46Z</time>
      </trkpt>
      <trkpt lat="49.03393" lon="6.92163">
        <ele>231</ele>
        <time>2013-09-22T08:12:51Z</time>
      </trkpt>
      <trkpt lat="49.03388" lon="6.92158">
        <ele>230.8</ele>
        <time>2013-09-22T08:12:56Z</time>
      </trkpt>
      <trkpt lat="49.03383" lon="6.92153">
        <ele>230.7</ele>
        <time>2013-09-22T08:13:01Z</time>
      </trkpt>
      <trkpt lat="49.03378" lon="6.92147">
        <ele>230</ele>
        <time>2013-09-22T08:13:06Z</time>
      </trkpt>
      <trkpt lat="49.03373" lon="6.9214">
        <ele>229.4</ele>
        <time>2013-09-22T08:13:11Z</time>
      </trkpt>
      <trkpt lat="49.03368" lon="6.92134">
        <ele>229.8</ele>
        <time>2013-09-22T08:13:16Z</time>
      </trkpt>
      <trkpt lat="49.03363" lon="6.92129">
        <ele>229.1</ele>
        <time>2013-09-22T08:13:21Z</time>
      </trkpt>
      <trkpt lat="49.03357" lon="6.92123">
        <ele>228.9</ele>
        <time>2013-09-22T08:13:26Z</time>
      </trkpt>
      <trkpt lat="49.03352" lon="6.92117">
        <ele>228.4</ele>
        <time>2013-09-22T08:13:31Z</time>
      </trkpt>
      <trkpt lat="49.03346" lon="6.92111">
        <ele>228.6</ele>
        <time>2013-09-22T08:13:36Z</time>
      </trkpt>
      <trkpt lat="49.03341" lon="6.92105">
        <ele>227.2</ele>
        <time>2013-09-22T08:13:41Z</time>
      </trkpt>
      <trkpt lat="49.03336" lon="6.92099">
        <ele>226.9</ele>
        <time>2013-09-22T08:13:46Z</time>
      </trkpt>
      <trkpt lat="49.03331" lon="6.92093">
        <ele>226.7</ele>
        <time>2013-09-22T08:13:51Z</time>
      </trkpt>
      <trkpt lat="49.03326" lon="6.92087">
        <ele>226.3</ele>
        <time>2013-09-22T08:13:56Z</time>
      </trkpt>
      <trkpt lat="49.03321" lon="6.92081">
        <ele>225.4</ele>
        <time>2013-09-22T08:14:01Z</time>
      </trkpt>
      <trkpt lat="49.03316" lon="6.92075">
        <ele>224.8</ele>
        <time>2013-09-22T08:14:06Z</time>
      </trkpt>
      <trkpt lat="49.03311" lon="6.9207">
        <ele>225.1</ele>
        <time>2013-09-22T08:14:11Z</time>
      </trkpt>
      <trkpt lat="49.03306" lon="6.92064">
        <ele>225.1</ele>
        <time>2013-09-22T08:14:16Z</time>
      </trkpt>
      <trkpt lat="49.03301" lon="6.92058">
        <ele>224.3</ele>
        <time>2013-09-22T08:14:21Z</time>
      </trkpt>
      <trkpt lat="49.03296" lon="6.92053">
        <ele>224.5</ele>
        <time>2013-09-22T08:14:26Z</time>
      </trkpt>
      <trkpt lat="49.03291" lon="6.92047">
        <ele>224</ele>
        <time>2013-09-22T08:14:31Z</time>
      </trkpt>
      <trkpt lat="49.03286" lon="6.92041">
        <ele>223.4</ele>
        <time>2013-09-22T08:14:36Z</time>
      </trkpt>
      <trkpt lat="49.03281" lon="6.92035">
        <ele>223.3</ele>
        <time>2013-09-22T08:14:41Z</time>
      </trkpt>
      <trkpt lat="49.03276" lon="6.92029">
        <ele>223.2</ele>
        <time>2013-09-22T08:14:46Z</time>
      </trkpt>
      <trkpt lat="49.0327" lon="6.92023">
        <ele>223.4</ele>
        <time>2013-09-22T08:14:51Z</time>
      </trkpt>
      <trkpt lat="49.03265" lon="6.92017">
        <ele>223.2</ele>
        <time>2013-09-22T08:14:56Z</time>
      </trkpt>
      <trkpt lat="49.0326" lon="6.92012">
        <ele>223.4</ele>
        <time>2013-09-22T08:15:01Z</time>
      </trkpt>
      <trkpt lat="49.03255" lon="6.92006">
        <ele>222.3</ele>
        <time>2013-09-22T08:15:06Z</time>
      </trkpt>
      <trkpt lat="49.0325" lon="6.92">
        <ele>222.2</ele>
        <time>2013-09-22T08:15:11Z</time>
      </trkpt>
      <trkpt lat="49.03245" lon="6.91994">
        <ele>221.8</ele>
        <time>2013-09-22T08:15:16Z</time>
      </trkpt>
      <trkpt lat="49.0324" lon="6.91988">
        <ele>221.3</ele>
        <time>2013-09-22T08:15:21Z</time>
      </trkpt>
      <trkpt lat="49.03236" lon="6.91981">
        <ele>221.5</ele>
        <time>2013-09-22T08:15:26Z</time>
      </trkpt>
      <trkpt lat="49.03231" lon="6.91977">
        <ele>221</ele>
        <time>2013-09-22T08:15:31Z</time>
      </trkpt>
      <trkpt lat="49.03227" lon="6.91971">
        <ele>221.6</ele>
        <time>2013-09-22T08:15:36Z</time>
      </trkpt>
      <trkpt lat="49.03224" lon="6.91966">
        <ele>220.8</ele>
        <time>2013-09-22T08:15:41Z</time>
      </trkpt>
      <trkpt lat="49.03221" lon="6.9196">
        <ele>220.6</ele>
        <time>2013-09-22T08:15:46Z</time>
      </trkpt>
      <trkpt lat="49.03219" lon="6.91954">
        <ele>220.9</ele>
        <time>2013-09-22T08:15:51Z</time>
      </trkpt>
      <trkpt lat="49.03216" lon="6.91948">
        <ele>220.6</ele>
        <time>2013-09-22T08:15:56Z</time>
      </trkpt>
      <trkpt lat="49.03213" lon="6.91942">
        <ele>221.4</ele>
        <time>2013-09-22T08:16:01Z</time>
      </trkpt>
      <trkpt lat="49.03209" lon="6.91938">
        <ele>221.3</ele>
        <time>2013-09-22T08:16:06Z</time>
      </trkpt>
      <trkpt lat="49.03205" lon="6.91939">
        <ele>221.4</ele>
        <time>2013-09-22T08:16:11Z</time>
      </trkpt>
      <trkpt lat="49.03201" lon="6.91943">
        <ele>221.1</ele>
        <time>2013-09-22T08:16:16Z</time>
      </trkpt>
      <trkpt lat="49.03198" lon="6.91948">
        <ele>221.2</ele>
        <time>2013-09-22T08:16:21Z</time>
      </trkpt>
      <trkpt lat="49.03194" lon="6.91953">
        <ele>221</ele>
        <time>2013-09-22T08:16:26Z</time>
      </trkpt>
      <trkpt lat="49.0319" lon="6.91958">
        <ele>220.6</ele>
        <time>2013-09-22T08:16:31Z</time>
      </trkpt>
      <trkpt lat="49.03186" lon="6.91963">
        <ele>220.5</ele>
        <time>2013-09-22T08:16:36Z</time>
      </trkpt>
      <trkpt lat="49.03182" lon="6.91969">
        <ele>220.9</ele>
        <time>2013-09-22T08:16:41Z</time>
      </trkpt>
      <trkpt lat="49.03178" lon="6.91976">
        <ele>220.9</ele>
        <time>2013-09-22T08:16:46Z</time>
      </trkpt>
      <trkpt lat="49.03175" lon="6.91984">
        <ele>220.9</ele>
        <time>2013-09-22T08:16:51Z</time>
      </trkpt>
      <trkpt lat="49.0317" lon="6.91993">
        <ele>221.2</ele>
        <time>2013-09-22T08:16:56Z</time>
      </trkpt>
      <trkpt lat="49.03167" lon="6.92001">
        <ele>221.1</ele>
        <time>2013-09-22T08:17:01Z</time>
      </trkpt>
      <trkpt lat="49.03165" lon="6.9201">
        <ele>220.7</ele>
        <time>2013-09-22T08:17:06Z</time>
      </trkpt>
      <trkpt lat="49.03162" lon="6.92017">
        <ele>220.2</ele>
        <time>2013-09-22T08:17:11Z</time>
      </trkpt>
      <trkpt lat="49.03159" lon="6.92025">
        <ele>220.3</ele>
        <time>2013-09-22T08:17:16Z</time>
      </trkpt>
      <trkpt lat="49.03156" lon="6.92034">
        <ele>220.5</ele>
        <time>2013-09-22T08:17:21Z</time>
      </trkpt>
      <trkpt lat="49.03153" lon="6.92042">
        <ele>220.2</ele>
        <time>2013-09-22T08:17:26Z</time>
      </trkpt>
      <trkpt lat="49.0315" lon="6.92049">
        <ele>220.2</ele>
        <time>2013-09-22T08:17:31Z</time>
      </trkpt>
      <trkpt lat="49.03146" lon="6.92056">
        <ele>220.3</ele>
        <time>2013-09-22T08:17:36Z</time>
      </trkpt>
      <trkpt lat="49.03141" lon="6.92061">
        <ele>219.8</ele>
        <time>2013-09-22T08:17:41Z</time>
      </trkpt>
      <trkpt lat="49.03136" lon="6.92066">
        <ele>220</ele>
        <time>2013-09-22T08:17:46Z</time>
      </trkpt>
      <trkpt lat="49.03132" lon="6.92071">
        <ele>220</ele>
        <time>2013-09-22T08:17:51Z</time>
      </trkpt>
      <trkpt lat="49.0313" lon="6.92079">
        <ele>219.4</ele>
        <time>2013-09-22T08:17:56Z</time>
      </trkpt>
      <trkpt lat="49.03126" lon="6.92086">
        <ele>219.2</ele>
        <time>2013-09-22T08:18:01Z</time>
      </trkpt>
      <trkpt lat="49.03125" lon="6.92091">
        <ele>219.5</ele>
        <time>2013-09-22T08:18:06Z</time>
      </trkpt>
      <trkpt lat="49.03127" lon="6.92097">
        <ele>219.6</ele>
        <time>2013-09-22T08:18:11Z</time>
      </trkpt>
      <trkpt lat="49.03127" lon="6.921">
        <ele>219</ele>
        <time>2013-09-22T08:18:16Z</time>
      </trkpt>
      <trkpt lat="49.03126" lon="6.92101">
        <ele>219.4</ele>
        <time>2013-09-22T08:18:21Z</time>
      </trkpt>
      <trkpt lat="49.03127" lon="6.92101">
        <ele>219.3</ele>
        <time>2013-09-22T08:18:26Z</time>
      </trkpt>
      <trkpt lat="49.03127" lon="6.92101">
        <ele>219.5</ele>
        <time>2013-09-22T08:18:31Z</time>
      </trkpt>
      <trkpt lat="49.03127" lon="6.921">
        <ele>219.6</ele>
        <time>2013-09-22T08:18:36Z</time>
      </trkpt>
      <trkpt lat="49.03128" lon="6.92098">
        <ele>219.3</ele>
        <time>2013-09-22T08:18:41Z</time>
      </trkpt>
      <trkpt lat="49.03128" lon="6.92097">
        <ele>219.5</ele>
        <time>2013-09-22T08:18:46Z</time>
      </trkpt>
      <trkpt lat="49.03127" lon="6.92098">
        <ele>219.7</ele>
        <time>2013-09-22T08:18:51Z</time>
      </trkpt>
      <trkpt lat="49.03127" lon="6.921">
        <ele>219.5</ele>
        <time>2013-09-22T08:18:56Z</time>
      </trkpt>
      <trkpt lat="49.03126" lon="6.92103">
        <ele>219.5</ele>
        <time>2013-09-22T08:19:01Z</time>
      </trkpt>
      <trkpt lat="49.03125" lon="6.92106">
        <ele>220.3</ele>
        <time>2013-09-22T08:19:06Z</time>
      </trkpt>
      <trkpt lat="49.03126" lon="6.92107">
        <ele>220.1</ele>
        <time>2013-09-22T08:19:11Z</time>
      </trkpt>
      <trkpt lat="49.03126" lon="6.92106">
        <ele>218.8</ele>
        <time>2013-09-22T08:19:16Z</time>
      </trkpt>
      <trkpt lat="49.03124" lon="6.92105">
        <ele>219.5</ele>
        <time>2013-09-22T08:19:21Z</time>
      </trkpt>
      <trkpt lat="49.03123" lon="6.92104">
        <ele>219.2</ele>
        <time>2013-09-22T08:19:26Z</time>
      </trkpt>
      <trkpt lat="49.03122" lon="6.92103">
        <ele>219.9</ele>
        <time>2013-09-22T08:19:31Z</time>
      </trkpt>
      <trkpt lat="49.03124" lon="6.92101">
        <ele>220.1</ele>
        <time>2013-09-22T08:19:36Z</time>
      </trkpt>
      <trkpt lat="49.03124" lon="6.92099">
        <ele>219.6</ele>
        <time>2013-09-22T08:19:41Z</time>
      </trkpt>
      <trkpt lat="49.03124" lon="6.92097">
        <ele>219.2</ele>
        <time>2013-09-22T08:19:46Z</time>
      </trkpt>
      <trkpt lat="49.03123" lon="6.92097">
        <ele>219.2</ele>
        <time>2013-09-22T08:19:51Z</time>
      </trkpt>
      <trkpt lat="49.03121" lon="6.92098">
        <ele>219.9</ele>
        <time>2013-09-22T08:19:56Z</time>
      </trkpt>
      <trkpt lat="49.03119" lon="6.92099">
        <ele>219.3</ele>
        <time>2013-09-22T08:20:01Z</time>
      </trkpt>
      <trkpt lat="49.03116" lon="6.92099">
        <ele>219</ele>
        <time>2013-09-22T08:20:06Z</time>
      </trkpt>
      <trkpt lat="49.03115" lon="6.921">
        <ele>218.7</ele>
        <time>2013-09-22T08:20:11Z</time>
      </trkpt>
      <trkpt lat="49.03112" lon="6.92102">
        <ele>219</ele>
        <time>2013-09-22T08:20:16Z</time>
      </trkpt>
      <trkpt lat="49.0311" lon="6.92103">
        <ele>219.3</ele>
        <time>2013-09-22T08:20:21Z</time>
      </trkpt>
      <trkpt lat="49.03108" lon="6.92102">
        <ele>219.5</ele>
        <time>2013-09-22T08:20:26Z</time>
      </trkpt>
      <trkpt lat="49.03105" lon="6.92102">
        <ele>219.5</ele>
        <time>2013-09-22T08:20:31Z</time>
      </trkpt>
      <trkpt lat="49.03102" lon="6.921">
        <ele>219.1</ele>
        <time>2013-09-22T08:20:36Z</time>
      </trkpt>
      <trkpt lat="49.03101" lon="6.92097">
        <ele>218.6</ele>
        <time>2013-09-22T08:20:41Z</time>
      </trkpt>
      <trkpt lat="49.03099" lon="6.92097">
        <ele>219.7</ele>
        <time>2013-09-22T08:20:46Z</time>
      </trkpt>
      <trkpt lat="49.03098" lon="6.92097">
        <ele>219.7</ele>
        <time>2013-09-22T08:20:51Z</time>
      </trkpt>
      <trkpt lat="49.03096" lon="6.92098">
        <ele>219.6</ele>
        <time>2013-09-22T08:20:56Z</time>
      </trkpt>
      <trkpt lat="49.03095" lon="6.921">
        <ele>218.9</ele>
        <time>2013-09-22T08:21:01Z</time>
      </trkpt>
      <trkpt lat="49.03096" lon="6.92101">
        <ele>218.4</ele>
        <time>2013-09-22T08:21:06Z</time>
      </trkpt>
      <trkpt lat="49.03094" lon="6.92103">
        <ele>219.2</ele>
        <time>2013-09-22T08:21:11Z</time>
      </trkpt>
      <trkpt lat="49.03094" lon="6.92105">
        <ele>219</ele>
        <time>2013-09-22T08:21:16Z</time>
      </trkpt>
      <trkpt lat="49.03092" lon="6.92109">
        <ele>218.8</ele>
        <time>2013-09-22T08:21:21Z</time>
      </trkpt>
      <trkpt lat="49.03092" lon="6.92112">
        <ele>218.6</ele>
        <time>2013-09-22T08:21:26Z</time>
      </trkpt>
      <trkpt lat="49.03091" lon="6.92116">
        <ele>218.8</ele>
        <time>2013-09-22T08:21:31Z</time>
      </trkpt>
      <trkpt lat="49.03089" lon="6.9212">
        <ele>218.8</ele>
        <time>2013-09-22T08:21:36Z</time>
      </trkpt>
      <trkpt lat="49.03086" lon="6.92125">
        <ele>219</ele>
        <time>2013-09-22T08:21:41Z</time>
      </trkpt>
      <trkpt lat="49.03084" lon="6.9213">
        <ele>219.3</ele>
        <time>2013-09-22T08:21:46Z</time>
      </trkpt>
      <trkpt lat="49.0308" lon="6.92136">
        <ele>219.4</ele>
        <time>2013-09-22T08:21:51Z</time>
      </trkpt>
      <trkpt lat="49.03078" lon="6.92142">
        <ele>219.4</ele>
        <time>2013-09-22T08:21:56Z</time>
      </trkpt>
      <trkpt lat="49.03076" lon="6.92147">
        <ele>219.5</ele>
        <time>2013-09-22T08:22:01Z</time>
      </trkpt>
      <trkpt lat="49.03073" lon="6.92153">
        <ele>219.3</ele>
        <time>2013-09-22T08:22:06Z</time>
      </trkpt>
      <trkpt lat="49.03071" lon="6.9216">
        <ele>219.1</ele>
        <time>2013-09-22T08:22:11Z</time>
      </trkpt>
      <trkpt lat="49.03067" lon="6.92168">
        <ele>219.1</ele>
        <time>2013-09-22T08:22:16Z</time>
      </trkpt>
      <trkpt lat="49.03064" lon="6.92175">
        <ele>219.2</ele>
        <time>2013-09-22T08:22:21Z</time>
      </trkpt>
      <trkpt lat="49.0306" lon="6.92182">
        <ele>219</ele>
        <time>2013-09-22T08:22:26Z</time>
      </trkpt>
      <trkpt lat="49.03056" lon="6.92189">
        <ele>219.6</ele>
        <time>2013-09-22T08:22:31Z</time>
      </trkpt>
      <trkpt lat="49.03052" lon="6.92197">
        <ele>219.8</ele>
        <time>2013-09-22T08:22:36Z</time>
      </trkpt>
      <trkpt lat="49.03048" lon="6.92203">
        <ele>219.4</ele>
        <time>2013-09-22T08:22:41Z</time>
      </trkpt>
      <trkpt lat="49.03043" lon="6.92209">
        <ele>218.3</ele>
        <time>2013-09-22T08:22:46Z</time>
      </trkpt>
      <trkpt lat="49.03037" lon="6.92215">
        <ele>218.5</ele>
        <time>2013-09-22T08:22:51Z</time>
      </trkpt>
      <trkpt lat="49.03032" lon="6.92221">
        <ele>218.5</ele>
        <time>2013-09-22T08:22:56Z</time>
      </trkpt>
      <trkpt lat="49.03026" lon="6.92227">
        <ele>218.6</ele>
        <time>2013-09-22T08:23:01Z</time>
      </trkpt>
      <trkpt lat="49.03021" lon="6.92233">
        <ele>218.4</ele>
        <time>2013-09-22T08:23:06Z</time>
      </trkpt>
      <trkpt lat="49.03016" lon="6.92238">
        <ele>218.6</ele>
        <time>2013-09-22T08:23:11Z</time>
      </trkpt>
      <trkpt lat="49.0301" lon="6.92243">
        <ele>219</ele>
        <time>2013-09-22T08:23:16Z</time>
      </trkpt>
      <trkpt lat="49.03005" lon="6.92247">
        <ele>219.3</ele>
        <time>2013-09-22T08:23:21Z</time>
      </trkpt>
      <trkpt lat="49.03" lon="6.92248">
        <ele>219.9</ele>
        <time>2013-09-22T08:23:26Z</time>
      </trkpt>
      <trkpt lat="49.02996" lon="6.92246">
        <ele>220.1</ele>
        <time>2013-09-22T08:23:31Z</time>
      </trkpt>
      <trkpt lat="49.02991" lon="6.92243">
        <ele>219.6</ele>
        <time>2013-09-22T08:23:36Z</time>
      </trkpt>
      <trkpt lat="49.02987" lon="6.92238">
        <ele>219.5</ele>
        <time>2013-09-22T08:23:41Z</time>
      </trkpt>
      <trkpt lat="49.02984" lon="6.92233">
        <ele>219.3</ele>
        <time>2013-09-22T08:23:46Z</time>
      </trkpt>
      <trkpt lat="49.0298" lon="6.92226">
        <ele>219.5</ele>
        <time>2013-09-22T08:23:51Z</time>
      </trkpt>
      <trkpt lat="49.02976" lon="6.92217">
        <ele>219.6</ele>
        <time>2013-09-22T08:23:56Z</time>
      </trkpt>
      <trkpt lat="49.02972" lon="6.92209">
        <ele>220.1</ele>
        <time>2013-09-22T08:24:01Z</time>
      </trkpt>
      <trkpt lat="49.02969" lon="6.92201">
        <ele>219.9</ele>
        <time>2013-09-22T08:24:06Z</time>
      </trkpt>
      <trkpt lat="49.02967" lon="6.92193">
        <ele>220.5</ele>
        <time>2013-09-22T08:24:11Z</time>
      </trkpt>
      <trkpt lat="49.02964" lon="6.92184">
        <ele>220.5</ele>
        <time>2013-09-22T08:24:16Z</time>
      </trkpt>
      <trkpt lat="49.02963" lon="6.92174">
        <ele>219.8</ele>
        <time>2013-09-22T08:24:21Z</time>
      </trkpt>
      <trkpt lat="49.02962" lon="6.92165">
        <ele>220.7</ele>
        <time>2013-09-22T08:24:26Z</time>
      </trkpt>
      <trkpt lat="49.02964" lon="6.92157">
        <ele>220.8</ele>
        <time>2013-09-22T08:24:31Z</time>
      </trkpt>
      <trkpt lat="49.02964" lon="6.92146">
        <ele>220.5</ele>
        <time>2013-09-22T08:24:36Z</time>
      </trkpt>
      <trkpt lat="49.02965" lon="6.92135">
        <ele>220.8</ele>
        <time>2013-09-22T08:24:41Z</time>
      </trkpt>
      <trkpt lat="49.02966" lon="6.92126">
        <ele>220.6</ele>
        <time>2013-09-22T08:24:46Z</time>
      </trkpt>
      <trkpt lat="49.02966" lon="6.92118">
        <ele>220.6</ele>
        <time>2013-09-22T08:24:51Z</time>
      </trkpt>
      <trkpt lat="49.02967" lon="6.92108">
        <ele>220.5</ele>
        <time>2013-09-22T08:24:56Z</time>
      </trkpt>
      <trkpt lat="49.02968" lon="6.92098">
        <ele>219.9</ele>
        <time>2013-09-22T08:25:01Z</time>
      </trkpt>
      <trkpt lat="49.02972" lon="6.9209">
        <ele>220</ele>
        <time>2013-09-22T08:25:06Z</time>
      </trkpt>
      <trkpt lat="49.02975" lon="6.92082">
        <ele>219.8</ele>
        <time>2013-09-22T08:25:11Z</time>
      </trkpt>
      <trkpt lat="49.02977" lon="6.92073">
        <ele>220.2</ele>
        <time>2013-09-22T08:25:16Z</time>
      </trkpt>
      <trkpt lat="49.02976" lon="6.92064">
        <ele>219.9</ele>
        <time>2013-09-22T08:25:21Z</time>
      </trkpt>
      <trkpt lat="49.02978" lon="6.92052">
        <ele>219.3</ele>
        <time>2013-09-22T08:25:26Z</time>
      </trkpt>
      <trkpt lat="49.02983" lon="6.92044">
        <ele>219.5</ele>
        <time>2013-09-22T08:25:31Z</time>
      </trkpt>
      <trkpt lat="49.02985" lon="6.92036">
        <ele>219.6</ele>
        <time>2013-09-22T08:25:36Z</time>
      </trkpt>
      <trkpt lat="49.02987" lon="6.92027">
        <ele>219.6</ele>
        <time>2013-09-22T08:25:41Z</time>
      </trkpt>
      <trkpt lat="49.0299" lon="6.92018">
        <ele>219.6</ele>
        <time>2013-09-22T08:25:46Z</time>
      </trkpt>
      <trkpt lat="49.02994" lon="6.92009">
        <ele>219.9</ele>
        <time>2013-09-22T08:25:51Z</time>
      </trkpt>
      <trkpt lat="49.02999" lon="6.92006">
        <ele>219.7</ele>
        <time>2013-09-22T08:25:56Z</time>
      </trkpt>
      <trkpt lat="49.03004" lon="6.92004">
        <ele>220.4</ele>
        <time>2013-09-22T08:26:01Z</time>
      </trkpt>
      <trkpt lat="49.03008" lon="6.92003">
        <ele>220.5</ele>
        <time>2013-09-22T08:26:06Z</time>
      </trkpt>
      <trkpt lat="49.03012" lon="6.92001">
        <ele>221.4</ele>
        <time>2013-09-22T08:26:11Z</time>
      </trkpt>
      <trkpt lat="49.03017" lon="6.91998">
        <ele>220.8</ele>
        <time>2013-09-22T08:26:16Z</time>
      </trkpt>
      <trkpt lat="49.03021" lon="6.91994">
        <ele>221.9</ele>
        <time>2013-09-22T08:26:21Z</time>
      </trkpt>
      <trkpt lat="49.03025" lon="6.9199">
        <ele>222.3</ele>
        <time>2013-09-22T08:26:26Z</time>
      </trkpt>
      <trkpt lat="49.03029" lon="6.91983">
        <ele>222.2</ele>
        <time>2013-09-22T08:26:31Z</time>
      </trkpt>
      <trkpt lat="49.03032" lon="6.91976">
        <ele>222</ele>
        <time>2013-09-22T08:26:36Z</time>
      </trkpt>
      <trkpt lat="49.03035" lon="6.91968">
        <ele>222.5</ele>
        <time>2013-09-22T08:26:41Z</time>
      </trkpt>
      <trkpt lat="49.03039" lon="6.9196">
        <ele>222.9</ele>
        <time>2013-09-22T08:26:46Z</time>
      </trkpt>
      <trkpt lat="49.03041" lon="6.9195">
        <ele>221.7</ele>
        <time>2013-09-22T08:26:51Z</time>
      </trkpt>
      <trkpt lat="49.03041" lon="6.91941">
        <ele>222</ele>
        <time>2013-09-22T08:26:56Z</time>
      </trkpt>
      <trkpt lat="49.03039" lon="6.91929">
        <ele>221.7</ele>
        <time>2013-09-22T08:27:01Z</time>
      </trkpt>
      <trkpt lat="49.03038" lon="6.91918">
        <ele>220.5</ele>
        <time>2013-09-22T08:27:06Z</time>
      </trkpt>
      <trkpt lat="49.03036" lon="6.91908">
        <ele>220.8</ele>
        <time>2013-09-22T08:27:11Z</time>
      </trkpt>
      <trkpt lat="49.03035" lon="6.91899">
        <ele>219.9</ele>
        <time>2013-09-22T08:27:16Z</time>
      </trkpt>
      <trkpt lat="49.03034" lon="6.9189">
        <ele>219.4</ele>
        <time>2013-09-22T08:27:21Z</time>
      </trkpt>
      <trkpt lat="49.03035" lon="6.91881">
        <ele>219</ele>
        <time>2013-09-22T08:27:26Z</time>
      </trkpt>
      <trkpt lat="49.03035" lon="6.91872">
        <ele>218.7</ele>
        <time>2013-09-22T08:27:31Z</time>
      </trkpt>
      <trkpt lat="49.03036" lon="6.91864">
        <ele>217.4</ele>
        <time>2013-09-22T08:27:36Z</time>
      </trkpt>
      <trkpt lat="49.03038" lon="6.91855">
        <ele>218.3</ele>
        <time>2013-09-22T08:27:41Z</time>
      </trkpt>
      <trkpt lat="49.0304" lon="6.91846">
        <ele>218.5</ele>
        <time>2013-09-22T08:27:46Z</time>
      </trkpt>
      <trkpt lat="49.03043" lon="6.91838">
        <ele>218.3</ele>
        <time>2013-09-22T08:27:51Z</time>
      </trkpt>
      <trkpt lat="49.03045" lon="6.9183">
        <ele>218.3</ele>
        <time>2013-09-22T08:27:56Z</time>
      </trkpt>
      <trkpt lat="49.03046" lon="6.91821">
        <ele>218.7</ele>
        <time>2013-09-22T08:28:01Z</time>
      </trkpt>
      <trkpt lat="49.03048" lon="6.91814">
        <ele>218.3</ele>
        <time>2013-09-22T08:28:06Z</time>
      </trkpt>
      <trkpt lat="49.03051" lon="6.91806">
        <ele>218.8</ele>
        <time>2013-09-22T08:28:11Z</time>
      </trkpt>
      <trkpt lat="49.03052" lon="6.91798">
        <ele>218.4</ele>
        <time>2013-09-22T08:28:16Z</time>
      </trkpt>
      <trkpt lat="49.03053" lon="6.91788">
        <ele>217.9</ele>
        <time>2013-09-22T08:28:21Z</time>
      </trkpt>
      <trkpt lat="49.03054" lon="6.91779">
        <ele>217.9</ele>
        <time>2013-09-22T08:28:26Z</time>
      </trkpt>
      <trkpt lat="49.03056" lon="6.9177">
        <ele>218.4</ele>
        <time>2013-09-22T08:28:31Z</time>
      </trkpt>
      <trkpt lat="49.03057" lon="6.91761">
        <ele>218</ele>
        <time>2013-09-22T08:28:36Z</time>
      </trkpt>
      <trkpt lat="49.03059" lon="6.91753">
        <ele>218.7</ele>
        <time>2013-09-22T08:28:41Z</time>
      </trkpt>
      <trkpt lat="49.0306" lon="6.91744">
        <ele>217.9</ele>
        <time>2013-09-22T08:28:46Z</time>
      </trkpt>
      <trkpt lat="49.03062" lon="6.91736">
        <ele>218.6</ele>
        <time>2013-09-22T08:28:51Z</time>
      </trkpt>
      <trkpt lat="49.03064" lon="6.91727">
        <ele>219</ele>
        <time>2013-09-22T08:28:56Z</time>
      </trkpt>
      <trkpt lat="49.03066" lon="6.91717">
        <ele>218.3</ele>
        <time>2013-09-22T08:29:01Z</time>
      </trkpt>
      <trkpt lat="49.03068" lon="6.91709">
        <ele>217.9</ele>
        <time>2013-09-22T08:29:06Z</time>
      </trkpt>
      <trkpt lat="49.03069" lon="6.91701">
        <ele>218.2</ele>
        <time>2013-09-22T08:29:11Z</time>
      </trkpt>
      <trkpt lat="49.03072" lon="6.91693">
        <ele>218</ele>
        <time>2013-09-22T08:29:16Z</time>
      </trkpt>
      <trkpt lat="49.03074" lon="6.91687">
        <ele>217.4</ele>
        <time>2013-09-22T08:29:21Z</time>
      </trkpt>
      <trkpt lat="49.03076" lon="6.91679">
        <ele>218.4</ele>
        <time>2013-09-22T08:29:26Z</time>
      </trkpt>
      <trkpt lat="49.03078" lon="6.9167">
        <ele>218.5</ele>
        <time>2013-09-22T08:29:31Z</time>
      </trkpt>
      <trkpt lat="49.03079" lon="6.91661">
        <ele>218.1</ele>
        <time>2013-09-22T08:29:36Z</time>
      </trkpt>
      <trkpt lat="49.03082" lon="6.91652">
        <ele>218.3</ele>
        <time>2013-09-22T08:29:41Z</time>
      </trkpt>
      <trkpt lat="49.03084" lon="6.91645">
        <ele>217.6</ele>
        <time>2013-09-22T08:29:46Z</time>
      </trkpt>
      <trkpt lat="49.03087" lon="6.91638">
        <ele>218.4</ele>
        <time>2013-09-22T08:29:51Z</time>
      </trkpt>
      <trkpt lat="49.03089" lon="6.91631">
        <ele>218.6</ele>
        <time>2013-09-22T08:29:56Z</time>
      </trkpt>
      <trkpt lat="49.03092" lon="6.91623">
        <ele>217.8</ele>
        <time>2013-09-22T08:30:01Z</time>
      </trkpt>
      <trkpt lat="49.03096" lon="6.91616">
        <ele>217.6</ele>
        <time>2013-09-22T08:30:06Z</time>
      </trkpt>
      <trkpt lat="49.03098" lon="6.91608">
        <ele>218.3</ele>
        <time>2013-09-22T08:30:11Z</time>
      </trkpt>
      <trkpt lat="49.03101" lon="6.916">
        <ele>217.1</ele>
        <time>2013-09-22T08:30:16Z</time>
      </trkpt>
      <trkpt lat="49.03105" lon="6.91592">
        <ele>216.7</ele>
        <time>2013-09-22T08:30:21Z</time>
      </trkpt>
      <trkpt lat="49.03107" lon="6.91584">
        <ele>217.7</ele>
        <time>2013-09-22T08:30:26Z</time>
      </trkpt>
      <trkpt lat="49.03109" lon="6.91575">
        <ele>218.1</ele>
        <time>2013-09-22T08:30:31Z</time>
      </trkpt>
      <trkpt lat="49.03113" lon="6.91568">
        <ele>218.3</ele>
        <time>2013-09-22T08:30:36Z</time>
      </trkpt>
      <trkpt lat="49.03116" lon="6.91559">
        <ele>218.4</ele>
        <time>2013-09-22T08:30:41Z</time>
      </trkpt>
      <trkpt lat="49.03118" lon="6.91547">
        <ele>218.8</ele>
        <time>2013-09-22T08:30:46Z</time>
      </trkpt>
      <trkpt lat="49.0312" lon="6.91536">
        <ele>218.7</ele>
        <time>2013-09-22T08:30:51Z</time>
      </trkpt>
      <trkpt lat="49.03121" lon="6.91525">
        <ele>218.7</ele>
        <time>2013-09-22T08:30:56Z</time>
      </trkpt>
      <trkpt lat="49.03122" lon="6.91514">
        <ele>218</ele>
        <time>2013-09-22T08:31:01Z</time>
      </trkpt>
      <trkpt lat="49.03123" lon="6.91504">
        <ele>218.8</ele>
        <time>2013-09-22T08:31:06Z</time>
      </trkpt>
      <trkpt lat="49.03124" lon="6.91494">
        <ele>218.5</ele>
        <time>2013-09-22T08:31:11Z</time>
      </trkpt>
      <trkpt lat="49.03125" lon="6.91484">
        <ele>217.3</ele>
        <time>2013-09-22T08:31:16Z</time>
      </trkpt>
      <trkpt lat="49.03127" lon="6.91475">
        <ele>217.7</ele>
        <time>2013-09-22T08:31:21Z</time>
      </trkpt>
      <trkpt lat="49.03128" lon="6.91467">
        <ele>217.9</ele>
        <time>2013-09-22T08:31:26Z</time>
      </trkpt>
      <trkpt lat="49.03129" lon="6.91459">
        <ele>218.1</ele>
        <time>2013-09-22T08:31:31Z</time>
      </trkpt>
      <trkpt lat="49.03131" lon="6.91451">
        <ele>218.4</ele>
        <time>2013-09-22T08:31:36Z</time>
      </trkpt>
      <trkpt lat="49.03132" lon="6.91441">
        <ele>217.7</ele>
        <time>2013-09-22T08:31:41Z</time>
      </trkpt>
      <trkpt lat="49.03133" lon="6.91432">
        <ele>217.4</ele>
        <time>2013-09-22T08:31:46Z</time>
      </trkpt>
      <trkpt lat="49.03135" lon="6.91423">
        <ele>217.3</ele>
        <time>2013-09-22T08:31:51Z</time>
      </trkpt>
      <trkpt lat="49.03136" lon="6.91415">
        <ele>218.2</ele>
        <time>2013-09-22T08:31:56Z</time>
      </trkpt>
      <trkpt lat="49.03137" lon="6.91406">
        <ele>217.9</ele>
        <time>2013-09-22T08:32:01Z</time>
      </trkpt>
      <trkpt lat="49.03139" lon="6.91398">
        <ele>217.8</ele>
        <time>2013-09-22T08:32:06Z</time>
      </trkpt>
      <trkpt lat="49.03141" lon="6.91388">
        <ele>218</ele>
        <time>2013-09-22T08:32:11Z</time>
      </trkpt>
      <trkpt lat="49.03143" lon="6.91379">
        <ele>218.5</ele>
        <time>2013-09-22T08:32:16Z</time>
      </trkpt>
      <trkpt lat="49.03145" lon="6.91369">
        <ele>218</ele>
        <time>2013-09-22T08:32:21Z</time>
      </trkpt>
      <trkpt lat="49.03147" lon="6.91361">
        <ele>218.1</ele>
        <time>2013-09-22T08:32:26Z</time>
      </trkpt>
      <trkpt lat="49.03149" lon="6.91354">
        <ele>217.5</ele>
        <time>2013-09-22T08:32:31Z</time>
      </trkpt>
      <trkpt lat="49.0315" lon="6.91345">
        <ele>217.8</ele>
        <time>2013-09-22T08:32:36Z</time>
      </trkpt>
      <trkpt lat="49.03152" lon="6.91336">
        <ele>217.6</ele>
        <time>2013-09-22T08:32:41Z</time>
      </trkpt>
      <trkpt lat="49.03153" lon="6.91327">
        <ele>218</ele>
        <time>2013-09-22T08:32:46Z</time>
      </trkpt>
      <trkpt lat="49.03155" lon="6.91318">
        <ele>218.5</ele>
        <time>2013-09-22T08:32:51Z</time>
      </trkpt>
      <trkpt lat="49.03157" lon="6.91309">
        <ele>218</ele>
        <time>2013-09-22T08:32:56Z</time>
      </trkpt>
      <trkpt lat="49.03158" lon="6.913">
        <ele>217.9</ele>
        <time>2013-09-22T08:33:01Z</time>
      </trkpt>
      <trkpt lat="49.03159" lon="6.91292">
        <ele>217.9</ele>
        <time>2013-09-22T08:33:06Z</time>
      </trkpt>
      <trkpt lat="49.0316" lon="6.91284">
        <ele>217.1</ele>
        <time>2013-09-22T08:33:11Z</time>
      </trkpt>
      <trkpt lat="49.03163" lon="6.91274">
        <ele>217</ele>
        <time>2013-09-22T08:33:16Z</time>
      </trkpt>
      <trkpt lat="49.03163" lon="6.91268">
        <ele>216.7</ele>
        <time>2013-09-22T08:33:21Z</time>
      </trkpt>
      <trkpt lat="49.03164" lon="6.91261">
        <ele>217.7</ele>
        <time>2013-09-22T08:33:26Z</time>
      </trkpt>
      <trkpt lat="49.03165" lon="6.91252">
        <ele>217.4</ele>
        <time>2013-09-22T08:33:31Z</time>
      </trkpt>
      <trkpt lat="49.03166" lon="6.91243">
        <ele>217.8</ele>
        <time>2013-09-22T08:33:36Z</time>
      </trkpt>
      <trkpt lat="49.03167" lon="6.91234">
        <ele>217.5</ele>
        <time>2013-09-22T08:33:41Z</time>
      </trkpt>
      <trkpt lat="49.03167" lon="6.91225">
        <ele>217.5</ele>
        <time>2013-09-22T08:33:46Z</time>
      </trkpt>
      <trkpt lat="49.03168" lon="6.91216">
        <ele>217.9</ele>
        <time>2013-09-22T08:33:51Z</time>
      </trkpt>
      <trkpt lat="49.03169" lon="6.91207">
        <ele>218.1</ele>
        <time>2013-09-22T08:33:56Z</time>
      </trkpt>
      <trkpt lat="49.03169" lon="6.91198">
        <ele>218.2</ele>
        <time>2013-09-22T08:34:01Z</time>
      </trkpt>
      <trkpt lat="49.0317" lon="6.9119">
        <ele>218.6</ele>
        <time>2013-09-22T08:34:06Z</time>
      </trkpt>
      <trkpt lat="49.03171" lon="6.91182">
        <ele>217.7</ele>
        <time>2013-09-22T08:34:11Z</time>
      </trkpt>
      <trkpt lat="49.03172" lon="6.91175">
        <ele>217.2</ele>
        <time>2013-09-22T08:34:16Z</time>
      </trkpt>
      <trkpt lat="49.03174" lon="6.91167">
        <ele>217.3</ele>
        <time>2013-09-22T08:34:21Z</time>
      </trkpt>
      <trkpt lat="49.03177" lon="6.9116">
        <ele>217.9</ele>
        <time>2013-09-22T08:34:26Z</time>
      </trkpt>
      <trkpt lat="49.03181" lon="6.91153">
        <ele>217.9</ele>
        <time>2013-09-22T08:34:31Z</time>
      </trkpt>
      <trkpt lat="49.03184" lon="6.91144">
        <ele>217.5</ele>
        <time>2013-09-22T08:34:36Z</time>
      </trkpt>
      <trkpt lat="49.03187" lon="6.91134">
        <ele>218</ele>
        <time>2013-09-22T08:34:41Z</time>
      </trkpt>
      <trkpt lat="49.0319" lon="6.91125">
        <ele>218.3</ele>
        <time>2013-09-22T08:34:46Z</time>
      </trkpt>
      <trkpt lat="49.03194" lon="6.91116">
        <ele>218.6</ele>
        <time>2013-09-22T08:34:51Z</time>
      </trkpt>
      <trkpt lat="49.03197" lon="6.91106">
        <ele>218.4</ele>
        <time>2013-09-22T08:34:56Z</time>
      </trkpt>
      <trkpt lat="49.03201" lon="6.91098">
        <ele>218</ele>
        <time>2013-09-22T08:35:01Z</time>
      </trkpt>
      <trkpt lat="49.03205" lon="6.9109">
        <ele>218.2</ele>
        <time>2013-09-22T08:35:06Z</time>
      </trkpt>
      <trkpt lat="49.03209" lon="6.91083">
        <ele>218.3</ele>
        <time>2013-09-22T08:35:11Z</time>
      </trkpt>
      <trkpt lat="49.03214" lon="6.91078">
        <ele>218.7</ele>
        <time>2013-09-22T08:35:16Z</time>
      </trkpt>
      <trkpt lat="49.03219" lon="6.91072">
        <ele>218.8</ele>
        <time>2013-09-22T08:35:21Z</time>
      </trkpt>
      <trkpt lat="49.03224" lon="6.91065">
        <ele>217.5</ele>
        <time>2013-09-22T08:35:26Z</time>
      </trkpt>
      <trkpt lat="49.03227" lon="6.91058">
        <ele>217.9</ele>
        <time>2013-09-22T08:35:31Z</time>
      </trkpt>
      <trkpt lat="49.03231" lon="6.9105">
        <ele>218.3</ele>
        <time>2013-09-22T08:35:36Z</time>
      </trkpt>
      <trkpt lat="49.03235" lon="6.91038">
        <ele>218</ele>
        <time>2013-09-22T08:35:44Z</time>
      </trkpt>
      <trkpt lat="49.0324" lon="6.91025">
        <ele>218</ele>
        <time>2013-09-22T08:35:52Z</time>
      </trkpt>
      <trkpt lat="49.03243" lon="6.91017">
        <ele>218.8</ele>
        <time>2013-09-22T08:35:57Z</time>
      </trkpt>
      <trkpt lat="49.03246" lon="6.91008">
        <ele>218.4</ele>
        <time>2013-09-22T08:36:02Z</time>
      </trkpt>
      <trkpt lat="49.03249" lon="6.90999">
        <ele>218.1</ele>
        <time>2013-09-22T08:36:07Z</time>
      </trkpt>
      <trkpt lat="49.03252" lon="6.90991">
        <ele>217.7</ele>
        <time>2013-09-22T08:36:12Z</time>
      </trkpt>
      <trkpt lat="49.03252" lon="6.90983">
        <ele>218.2</ele>
        <time>2013-09-22T08:36:17Z</time>
      </trkpt>
      <trkpt lat="49.03251" lon="6.90974">
        <ele>218.4</ele>
        <time>2013-09-22T08:36:22Z</time>
      </trkpt>
      <trkpt lat="49.0325" lon="6.90966">
        <ele>218.5</ele>
        <time>2013-09-22T08:36:27Z</time>
      </trkpt>
      <trkpt lat="49.03248" lon="6.90959">
        <ele>218.9</ele>
        <time>2013-09-22T08:36:32Z</time>
      </trkpt>
      <trkpt lat="49.03247" lon="6.9095">
        <ele>218.7</ele>
        <time>2013-09-22T08:36:37Z</time>
      </trkpt>
      <trkpt lat="49.03246" lon="6.90942">
        <ele>219</ele>
        <time>2013-09-22T08:36:42Z</time>
      </trkpt>
      <trkpt lat="49.03245" lon="6.90936">
        <ele>219.1</ele>
        <time>2013-09-22T08:36:47Z</time>
      </trkpt>
      <trkpt lat="49.03244" lon="6.90928">
        <ele>219.8</ele>
        <time>2013-09-22T08:36:52Z</time>
      </trkpt>
      <trkpt lat="49.03243" lon="6.9092">
        <ele>219.2</ele>
        <time>2013-09-22T08:36:57Z</time>
      </trkpt>
      <trkpt lat="49.03239" lon="6.90912">
        <ele>219.7</ele>
        <time>2013-09-22T08:37:02Z</time>
      </trkpt>
      <trkpt lat="49.03236" lon="6.90903">
        <ele>218.9</ele>
        <time>2013-09-22T08:37:07Z</time>
      </trkpt>
      <trkpt lat="49.03231" lon="6.90894">
        <ele>219.1</ele>
        <time>2013-09-22T08:37:12Z</time>
      </trkpt>
      <trkpt lat="49.03226" lon="6.90886">
        <ele>219.6</ele>
        <time>2013-09-22T08:37:17Z</time>
      </trkpt>
      <trkpt lat="49.03223" lon="6.90879">
        <ele>219.9</ele>
        <time>2013-09-22T08:37:22Z</time>
      </trkpt>
      <trkpt lat="49.03219" lon="6.90872">
        <ele>220.4</ele>
        <time>2013-09-22T08:37:27Z</time>
      </trkpt>
      <trkpt lat="49.03215" lon="6.90865">
        <ele>220.7</ele>
        <time>2013-09-22T08:37:32Z</time>
      </trkpt>
      <trkpt lat="49.0321" lon="6.90858">
        <ele>220.5</ele>
        <time>2013-09-22T08:37:37Z</time>
      </trkpt>
      <trkpt lat="49.03203" lon="6.90851">
        <ele>220</ele>
        <time>2013-09-22T08:37:42Z</time>
      </trkpt>
      <trkpt lat="49.032" lon="6.90843">
        <ele>219.6</ele>
        <time>2013-09-22T08:37:47Z</time>
      </trkpt>
      <trkpt lat="49.03196" lon="6.90837">
        <ele>219.9</ele>
        <time>2013-09-22T08:37:52Z</time>
      </trkpt>
      <trkpt lat="49.0319" lon="6.90831">
        <ele>219.2</ele>
        <time>2013-09-22T08:37:57Z</time>
      </trkpt>
      <trkpt lat="49.03185" lon="6.90823">
        <ele>218.8</ele>
        <time>2013-09-22T08:38:02Z</time>
      </trkpt>
      <trkpt lat="49.03182" lon="6.90814">
        <ele>219.1</ele>
        <time>2013-09-22T08:38:07Z</time>
      </trkpt>
      <trkpt lat="49.03181" lon="6.90804">
        <ele>219.4</ele>
        <time>2013-09-22T08:38:12Z</time>
      </trkpt>
      <trkpt lat="49.0318" lon="6.90795">
        <ele>219.4</ele>
        <time>2013-09-22T08:38:17Z</time>
      </trkpt>
      <trkpt lat="49.03181" lon="6.90785">
        <ele>217.9</ele>
        <time>2013-09-22T08:38:22Z</time>
      </trkpt>
      <trkpt lat="49.0318" lon="6.90779">
        <ele>218.6</ele>
        <time>2013-09-22T08:38:27Z</time>
      </trkpt>
      <trkpt lat="49.03179" lon="6.90771">
        <ele>218.4</ele>
        <time>2013-09-22T08:38:32Z</time>
      </trkpt>
      <trkpt lat="49.03181" lon="6.9076">
        <ele>218.3</ele>
        <time>2013-09-22T08:38:37Z</time>
      </trkpt>
      <trkpt lat="49.03181" lon="6.9075">
        <ele>217.6</ele>
        <time>2013-09-22T08:38:42Z</time>
      </trkpt>
      <trkpt lat="49.0318" lon="6.90738">
        <ele>218.5</ele>
        <time>2013-09-22T08:38:47Z</time>
      </trkpt>
      <trkpt lat="49.03178" lon="6.90726">
        <ele>218.7</ele>
        <time>2013-09-22T08:38:52Z</time>
      </trkpt>
      <trkpt lat="49.03178" lon="6.90714">
        <ele>219.1</ele>
        <time>2013-09-22T08:38:57Z</time>
      </trkpt>
      <trkpt lat="49.03178" lon="6.90704">
        <ele>219.1</ele>
        <time>2013-09-22T08:39:02Z</time>
      </trkpt>
      <trkpt lat="49.03179" lon="6.90696">
        <ele>220.1</ele>
        <time>2013-09-22T08:39:07Z</time>
      </trkpt>
      <trkpt lat="49.0318" lon="6.90687">
        <ele>219.1</ele>
        <time>2013-09-22T08:39:12Z</time>
      </trkpt>
      <trkpt lat="49.0318" lon="6.90678">
        <ele>219.4</ele>
        <time>2013-09-22T08:39:17Z</time>
      </trkpt>
      <trkpt lat="49.03181" lon="6.90669">
        <ele>219.6</ele>
        <time>2013-09-22T08:39:22Z</time>
      </trkpt>
      <trkpt lat="49.03183" lon="6.90661">
        <ele>219.6</ele>
        <time>2013-09-22T08:39:27Z</time>
      </trkpt>
      <trkpt lat="49.03183" lon="6.90653">
        <ele>219.7</ele>
        <time>2013-09-22T08:39:32Z</time>
      </trkpt>
      <trkpt lat="49.03182" lon="6.90644">
        <ele>220.4</ele>
        <time>2013-09-22T08:39:37Z</time>
      </trkpt>
      <trkpt lat="49.03181" lon="6.90635">
        <ele>220</ele>
        <time>2013-09-22T08:39:42Z</time>
      </trkpt>
      <trkpt lat="49.03179" lon="6.90625">
        <ele>219.7</ele>
        <time>2013-09-22T08:39:47Z</time>
      </trkpt>
      <trkpt lat="49.03178" lon="6.90614">
        <ele>219.2</ele>
        <time>2013-09-22T08:39:52Z</time>
      </trkpt>
      <trkpt lat="49.03177" lon="6.90603">
        <ele>218.9</ele>
        <time>2013-09-22T08:39:57Z</time>
      </trkpt>
      <trkpt lat="49.03178" lon="6.90592">
        <ele>220.2</ele>
        <time>2013-09-22T08:40:02Z</time>
      </trkpt>
      <trkpt lat="49.03178" lon="6.90582">
        <ele>220.7</ele>
        <time>2013-09-22T08:40:07Z</time>
      </trkpt>
      <trkpt lat="49.03178" lon="6.90573">
        <ele>220.7</ele>
        <time>2013-09-22T08:40:12Z</time>
      </trkpt>
      <trkpt lat="49.03176" lon="6.90565">
        <ele>220.2</ele>
        <time>2013-09-22T08:40:17Z</time>
      </trkpt>
      <trkpt lat="49.03176" lon="6.90556">
        <ele>219.7</ele>
        <time>2013-09-22T08:40:22Z</time>
      </trkpt>
      <trkpt lat="49.03176" lon="6.90547">
        <ele>220.8</ele>
        <time>2013-09-22T08:40:27Z</time>
      </trkpt>
      <trkpt lat="49.03176" lon="6.90537">
        <ele>221</ele>
        <time>2013-09-22T08:40:32Z</time>
      </trkpt>
      <trkpt lat="49.03175" lon="6.90527">
        <ele>220.6</ele>
        <time>2013-09-22T08:40:37Z</time>
      </trkpt>
      <trkpt lat="49.03174" lon="6.90518">
        <ele>220</ele>
        <time>2013-09-22T08:40:42Z</time>
      </trkpt>
      <trkpt lat="49.03172" lon="6.90509">
        <ele>220.6</ele>
        <time>2013-09-22T08:40:47Z</time>
      </trkpt>
      <trkpt lat="49.03169" lon="6.905">
        <ele>220.5</ele>
        <time>2013-09-22T08:40:52Z</time>
      </trkpt>
      <trkpt lat="49.03165" lon="6.90496">
        <ele>220.2</ele>
        <time>2013-09-22T08:40:57Z</time>
      </trkpt>
      <trkpt lat="49.03158" lon="6.90495">
        <ele>219.9</ele>
        <time>2013-09-22T08:41:02Z</time>
      </trkpt>
      <trkpt lat="49.03152" lon="6.90495">
        <ele>219.4</ele>
        <time>2013-09-22T08:41:07Z</time>
      </trkpt>
      <trkpt lat="49.03147" lon="6.90494">
        <ele>220</ele>
        <time>2013-09-22T08:41:12Z</time>
      </trkpt>
      <trkpt lat="49.03141" lon="6.90496">
        <ele>221.1</ele>
        <time>2013-09-22T08:41:17Z</time>
      </trkpt>
      <trkpt lat="49.03135" lon="6.90498">
        <ele>220.7</ele>
        <time>2013-09-22T08:41:22Z</time>
      </trkpt>
      <trkpt lat="49.0313" lon="6.90501">
        <ele>220.5</ele>
        <time>2013-09-22T08:41:27Z</time>
      </trkpt>
      <trkpt lat="49.03124" lon="6.90503">
        <ele>220.6</ele>
        <time>2013-09-22T08:41:32Z</time>
      </trkpt>
      <trkpt lat="49.0312" lon="6.90505">
        <ele>221.1</ele>
        <time>2013-09-22T08:41:37Z</time>
      </trkpt>
      <trkpt lat="49.03114" lon="6.90507">
        <ele>222.3</ele>
        <time>2013-09-22T08:41:42Z</time>
      </trkpt>
      <trkpt lat="49.03108" lon="6.90509">
        <ele>223.5</ele>
        <time>2013-09-22T08:41:47Z</time>
      </trkpt>
      <trkpt lat="49.03101" lon="6.90512">
        <ele>223.1</ele>
        <time>2013-09-22T08:41:52Z</time>
      </trkpt>
      <trkpt lat="49.03096" lon="6.90515">
        <ele>223.4</ele>
        <time>2013-09-22T08:41:57Z</time>
      </trkpt>
      <trkpt lat="49.03091" lon="6.90519">
        <ele>223.8</ele>
        <time>2013-09-22T08:42:02Z</time>
      </trkpt>
      <trkpt lat="49.03085" lon="6.90521">
        <ele>223.8</ele>
        <time>2013-09-22T08:42:07Z</time>
      </trkpt>
      <trkpt lat="49.03082" lon="6.90524">
        <ele>223.7</ele>
        <time>2013-09-22T08:42:12Z</time>
      </trkpt>
      <trkpt lat="49.03078" lon="6.90526">
        <ele>223.7</ele>
        <time>2013-09-22T08:42:17Z</time>
      </trkpt>
      <trkpt lat="49.03074" lon="6.90528">
        <ele>223.3</ele>
        <time>2013-09-22T08:42:22Z</time>
      </trkpt>
      <trkpt lat="49.03069" lon="6.9053">
        <ele>223</ele>
        <time>2013-09-22T08:42:27Z</time>
      </trkpt>
      <trkpt lat="49.03063" lon="6.90532">
        <ele>223</ele>
        <time>2013-09-22T08:42:32Z</time>
      </trkpt>
      <trkpt lat="49.03055" lon="6.90536">
        <ele>222.7</ele>
        <time>2013-09-22T08:42:37Z</time>
      </trkpt>
      <trkpt lat="49.03048" lon="6.90538">
        <ele>221.8</ele>
        <time>2013-09-22T08:42:42Z</time>
      </trkpt>
      <trkpt lat="49.03043" lon="6.9054">
        <ele>221.7</ele>
        <time>2013-09-22T08:42:47Z</time>
      </trkpt>
      <trkpt lat="49.03036" lon="6.90543">
        <ele>220.9</ele>
        <time>2013-09-22T08:42:52Z</time>
      </trkpt>
      <trkpt lat="49.0303" lon="6.90546">
        <ele>220.2</ele>
        <time>2013-09-22T08:42:57Z</time>
      </trkpt>
      <trkpt lat="49.03023" lon="6.90549">
        <ele>220.2</ele>
        <time>2013-09-22T08:43:02Z</time>
      </trkpt>
      <trkpt lat="49.03018" lon="6.90551">
        <ele>220</ele>
        <time>2013-09-22T08:43:07Z</time>
      </trkpt>
      <trkpt lat="49.03011" lon="6.90554">
        <ele>219.1</ele>
        <time>2013-09-22T08:43:12Z</time>
      </trkpt>
      <trkpt lat="49.03004" lon="6.90557">
        <ele>218.6</ele>
        <time>2013-09-22T08:43:17Z</time>
      </trkpt>
      <trkpt lat="49.02998" lon="6.90561">
        <ele>218.7</ele>
        <time>2013-09-22T08:43:22Z</time>
      </trkpt>
      <trkpt lat="49.02993" lon="6.90565">
        <ele>218.9</ele>
        <time>2013-09-22T08:43:27Z</time>
      </trkpt>
      <trkpt lat="49.02987" lon="6.9057">
        <ele>218.3</ele>
        <time>2013-09-22T08:43:32Z</time>
      </trkpt>
      <trkpt lat="49.02982" lon="6.90576">
        <ele>218.4</ele>
        <time>2013-09-22T08:43:37Z</time>
      </trkpt>
      <trkpt lat="49.02978" lon="6.90583">
        <ele>218.3</ele>
        <time>2013-09-22T08:43:42Z</time>
      </trkpt>
      <trkpt lat="49.02976" lon="6.90591">
        <ele>218.1</ele>
        <time>2013-09-22T08:43:47Z</time>
      </trkpt>
      <trkpt lat="49.02974" lon="6.90599">
        <ele>217.6</ele>
        <time>2013-09-22T08:43:52Z</time>
      </trkpt>
      <trkpt lat="49.02973" lon="6.90608">
        <ele>217.8</ele>
        <time>2013-09-22T08:43:57Z</time>
      </trkpt>
      <trkpt lat="49.02972" lon="6.90618">
        <ele>218</ele>
        <time>2013-09-22T08:44:02Z</time>
      </trkpt>
      <trkpt lat="49.02972" lon="6.90629">
        <ele>217.9</ele>
        <time>2013-09-22T08:44:07Z</time>
      </trkpt>
      <trkpt lat="49.02971" lon="6.90639">
        <ele>218.2</ele>
        <time>2013-09-22T08:44:12Z</time>
      </trkpt>
      <trkpt lat="49.0297" lon="6.9065">
        <ele>217.7</ele>
        <time>2013-09-22T08:44:17Z</time>
      </trkpt>
      <trkpt lat="49.0297" lon="6.9066">
        <ele>217.5</ele>
        <time>2013-09-22T08:44:22Z</time>
      </trkpt>
      <trkpt lat="49.02969" lon="6.90669">
        <ele>218.1</ele>
        <time>2013-09-22T08:44:27Z</time>
      </trkpt>
      <trkpt lat="49.0297" lon="6.90679">
        <ele>218</ele>
        <time>2013-09-22T08:44:32Z</time>
      </trkpt>
      <trkpt lat="49.0297" lon="6.90688">
        <ele>218.5</ele>
        <time>2013-09-22T08:44:37Z</time>
      </trkpt>
      <trkpt lat="49.0297" lon="6.90697">
        <ele>218.7</ele>
        <time>2013-09-22T08:44:42Z</time>
      </trkpt>
      <trkpt lat="49.0297" lon="6.90705">
        <ele>217.6</ele>
        <time>2013-09-22T08:44:47Z</time>
      </trkpt>
      <trkpt lat="49.0297" lon="6.90713">
        <ele>218.2</ele>
        <time>2013-09-22T08:44:52Z</time>
      </trkpt>
      <trkpt lat="49.02969" lon="6.90722">
        <ele>217.7</ele>
        <time>2013-09-22T08:44:57Z</time>
      </trkpt>
      <trkpt lat="49.02969" lon="6.9073">
        <ele>218.2</ele>
        <time>2013-09-22T08:45:02Z</time>
      </trkpt>
      <trkpt lat="49.02969" lon="6.90734">
        <ele>218.6</ele>
        <time>2013-09-22T08:45:07Z</time>
      </trkpt>
      <trkpt lat="49.0297" lon="6.90738">
        <ele>218.2</ele>
        <time>2013-09-22T08:45:12Z</time>
      </trkpt>
      <trkpt lat="49.02971" lon="6.90743">
        <ele>217.9</ele>
        <time>2013-09-22T08:45:17Z</time>
      </trkpt>
      <trkpt lat="49.02971" lon="6.90748">
        <ele>217.8</ele>
        <time>2013-09-22T08:45:22Z</time>
      </trkpt>
      <trkpt lat="49.02971" lon="6.90755">
        <ele>218.1</ele>
        <time>2013-09-22T08:45:27Z</time>
      </trkpt>
      <trkpt lat="49.0297" lon="6.90761">
        <ele>218.3</ele>
        <time>2013-09-22T08:45:32Z</time>
      </trkpt>
      <trkpt lat="49.0297" lon="6.90769">
        <ele>218.9</ele>
        <time>2013-09-22T08:45:37Z</time>
      </trkpt>
      <trkpt lat="49.0297" lon="6.90776">
        <ele>217.5</ele>
        <time>2013-09-22T08:45:42Z</time>
      </trkpt>
      <trkpt lat="49.0297" lon="6.90784">
        <ele>217.8</ele>
        <time>2013-09-22T08:45:47Z</time>
      </trkpt>
      <trkpt lat="49.02969" lon="6.90793">
        <ele>218.3</ele>
        <time>2013-09-22T08:45:52Z</time>
      </trkpt>
      <trkpt lat="49.0297" lon="6.90801">
        <ele>218.4</ele>
        <time>2013-09-22T08:45:57Z</time>
      </trkpt>
      <trkpt lat="49.02969" lon="6.9081">
        <ele>218.5</ele>
        <time>2013-09-22T08:46:02Z</time>
      </trkpt>
      <trkpt lat="49.02969" lon="6.9082">
        <ele>218.7</ele>
        <time>2013-09-22T08:46:07Z</time>
      </trkpt>
      <trkpt lat="49.02971" lon="6.90827">
        <ele>218.4</ele>
        <time>2013-09-22T08:46:12Z</time>
      </trkpt>
      <trkpt lat="49.02972" lon="6.90835">
        <ele>219.3</ele>
        <time>2013-09-22T08:46:17Z</time>
      </trkpt>
      <trkpt lat="49.02974" lon="6.90844">
        <ele>217.8</ele>
        <time>2013-09-22T08:46:22Z</time>
      </trkpt>
      <trkpt lat="49.02975" lon="6.90852">
        <ele>217.5</ele>
        <time>2013-09-22T08:46:27Z</time>
      </trkpt>
      <trkpt lat="49.02976" lon="6.9086">
        <ele>217.8</ele>
        <time>2013-09-22T08:46:32Z</time>
      </trkpt>
      <trkpt lat="49.02976" lon="6.9087">
        <ele>218.7</ele>
        <time>2013-09-22T08:46:37Z</time>
      </trkpt>
      <trkpt lat="49.02975" lon="6.90879">
        <ele>217.9</ele>
        <time>2013-09-22T08:46:42Z</time>
      </trkpt>
      <trkpt lat="49.02973" lon="6.90889">
        <ele>218.5</ele>
        <time>2013-09-22T08:46:47Z</time>
      </trkpt>
      <trkpt lat="49.02971" lon="6.90898">
        <ele>218.3</ele>
        <time>2013-09-22T08:46:52Z</time>
      </trkpt>
      <trkpt lat="49.02971" lon="6.90909">
        <ele>217.5</ele>
        <time>2013-09-22T08:46:57Z</time>
      </trkpt>
      <trkpt lat="49.02969" lon="6.90917">
        <ele>217.9</ele>
        <time>2013-09-22T08:47:02Z</time>
      </trkpt>
      <trkpt lat="49.02967" lon="6.90925">
        <ele>217.9</ele>
        <time>2013-09-22T08:47:07Z</time>
      </trkpt>
      <trkpt lat="49.02967" lon="6.90932">
        <ele>218</ele>
        <time>2013-09-22T08:47:12Z</time>
      </trkpt>
      <trkpt lat="49.02966" lon="6.90939">
        <ele>218.7</ele>
        <time>2013-09-22T08:47:17Z</time>
      </trkpt>
      <trkpt lat="49.02965" lon="6.90948">
        <ele>218.5</ele>
        <time>2013-09-22T08:47:22Z</time>
      </trkpt>
      <trkpt lat="49.02965" lon="6.90955">
        <ele>219.1</ele>
        <time>2013-09-22T08:47:27Z</time>
      </trkpt>
      <trkpt lat="49.02966" lon="6.90964">
        <ele>218.9</ele>
        <time>2013-09-22T08:47:32Z</time>
      </trkpt>
      <trkpt lat="49.02967" lon="6.90973">
        <ele>218.7</ele>
        <time>2013-09-22T08:47:37Z</time>
      </trkpt>
      <trkpt lat="49.02965" lon="6.90982">
        <ele>218.5</ele>
        <time>2013-09-22T08:47:42Z</time>
      </trkpt>
      <trkpt lat="49.02964" lon="6.9099">
        <ele>218</ele>
        <time>2013-09-22T08:47:47Z</time>
      </trkpt>
      <trkpt lat="49.02964" lon="6.90999">
        <ele>219</ele>
        <time>2013-09-22T08:47:52Z</time>
      </trkpt>
      <trkpt lat="49.02963" lon="6.91007">
        <ele>219</ele>
        <time>2013-09-22T08:47:57Z</time>
      </trkpt>
      <trkpt lat="49.0296" lon="6.91014">
        <ele>219.1</ele>
        <time>2013-09-22T08:48:02Z</time>
      </trkpt>
      <trkpt lat="49.02957" lon="6.91021">
        <ele>219.3</ele>
        <time>2013-09-22T08:48:07Z</time>
      </trkpt>
      <trkpt lat="49.02953" lon="6.91027">
        <ele>219.4</ele>
        <time>2013-09-22T08:48:12Z</time>
      </trkpt>
      <trkpt lat="49.0295" lon="6.9103">
        <ele>219.7</ele>
        <time>2013-09-22T08:48:17Z</time>
      </trkpt>
      <trkpt lat="49.02946" lon="6.91032">
        <ele>219.2</ele>
        <time>2013-09-22T08:48:22Z</time>
      </trkpt>
      <trkpt lat="49.02943" lon="6.91032">
        <ele>219.6</ele>
        <time>2013-09-22T08:48:27Z</time>
      </trkpt>
      <trkpt lat="49.02938" lon="6.91031">
        <ele>219.1</ele>
        <time>2013-09-22T08:48:32Z</time>
      </trkpt>
      <trkpt lat="49.02934" lon="6.91031">
        <ele>218.9</ele>
        <time>2013-09-22T08:48:37Z</time>
      </trkpt>
      <trkpt lat="49.02928" lon="6.91028">
        <ele>218.7</ele>
        <time>2013-09-22T08:48:42Z</time>
      </trkpt>
      <trkpt lat="49.02923" lon="6.91024">
        <ele>218.4</ele>
        <time>2013-09-22T08:48:47Z</time>
      </trkpt>
      <trkpt lat="49.02918" lon="6.91022">
        <ele>218.7</ele>
        <time>2013-09-22T08:48:52Z</time>
      </trkpt>
      <trkpt lat="49.02912" lon="6.91021">
        <ele>219.5</ele>
        <time>2013-09-22T08:48:57Z</time>
      </trkpt>
      <trkpt lat="49.02906" lon="6.9102">
        <ele>219.2</ele>
        <time>2013-09-22T08:49:02Z</time>
      </trkpt>
      <trkpt lat="49.02902" lon="6.9102">
        <ele>218.3</ele>
        <time>2013-09-22T08:49:07Z</time>
      </trkpt>
      <trkpt lat="49.02895" lon="6.91022">
        <ele>218.2</ele>
        <time>2013-09-22T08:49:12Z</time>
      </trkpt>
      <trkpt lat="49.02888" lon="6.91024">
        <ele>218.6</ele>
        <time>2013-09-22T08:49:17Z</time>
      </trkpt>
      <trkpt lat="49.02883" lon="6.91027">
        <ele>218.8</ele>
        <time>2013-09-22T08:49:22Z</time>
      </trkpt>
      <trkpt lat="49.02879" lon="6.91032">
        <ele>219.2</ele>
        <time>2013-09-22T08:49:27Z</time>
      </trkpt>
      <trkpt lat="49.02875" lon="6.91037">
        <ele>218.8</ele>
        <time>2013-09-22T08:49:32Z</time>
      </trkpt>
      <trkpt lat="49.02873" lon="6.91043">
        <ele>218.3</ele>
        <time>2013-09-22T08:49:37Z</time>
      </trkpt>
      <trkpt lat="49.02871" lon="6.91052">
        <ele>218.9</ele>
        <time>2013-09-22T08:49:42Z</time>
      </trkpt>
      <trkpt lat="49.02869" lon="6.91062">
        <ele>219.3</ele>
        <time>2013-09-22T08:49:47Z</time>
      </trkpt>
      <trkpt lat="49.02869" lon="6.9107">
        <ele>219</ele>
        <time>2013-09-22T08:49:52Z</time>
      </trkpt>
      <trkpt lat="49.0287" lon="6.91078">
        <ele>218.4</ele>
        <time>2013-09-22T08:49:57Z</time>
      </trkpt>
      <trkpt lat="49.02872" lon="6.91086">
        <ele>218.4</ele>
        <time>2013-09-22T08:50:02Z</time>
      </trkpt>
      <trkpt lat="49.02874" lon="6.91096">
        <ele>218.6</ele>
        <time>2013-09-22T08:50:07Z</time>
      </trkpt>
      <trkpt lat="49.02876" lon="6.91104">
        <ele>219.2</ele>
        <time>2013-09-22T08:50:12Z</time>
      </trkpt>
      <trkpt lat="49.0288" lon="6.91113">
        <ele>218.7</ele>
        <time>2013-09-22T08:50:17Z</time>
      </trkpt>
      <trkpt lat="49.02883" lon="6.91119">
        <ele>218.3</ele>
        <time>2013-09-22T08:50:22Z</time>
      </trkpt>
      <trkpt lat="49.02887" lon="6.91126">
        <ele>218.2</ele>
        <time>2013-09-22T08:50:27Z</time>
      </trkpt>
      <trkpt lat="49.02892" lon="6.91133">
        <ele>218.1</ele>
        <time>2013-09-22T08:50:32Z</time>
      </trkpt>
      <trkpt lat="49.02893" lon="6.91142">
        <ele>219.7</ele>
        <time>2013-09-22T08:50:37Z</time>
      </trkpt>
      <trkpt lat="49.02894" lon="6.91149">
        <ele>218.8</ele>
        <time>2013-09-22T08:50:42Z</time>
      </trkpt>
      <trkpt lat="49.02894" lon="6.91157">
        <ele>219</ele>
        <time>2013-09-22T08:50:47Z</time>
      </trkpt>
      <trkpt lat="49.02895" lon="6.91166">
        <ele>219.2</ele>
        <time>2013-09-22T08:50:52Z</time>
      </trkpt>
      <trkpt lat="49.02895" lon="6.91175">
        <ele>219.4</ele>
        <time>2013-09-22T08:50:57Z</time>
      </trkpt>
      <trkpt lat="49.02895" lon="6.91185">
        <ele>219.5</ele>
        <time>2013-09-22T08:51:02Z</time>
      </trkpt>
      <trkpt lat="49.02895" lon="6.91193">
        <ele>220.3</ele>
        <time>2013-09-22T08:51:07Z</time>
      </trkpt>
      <trkpt lat="49.02895" lon="6.91203">
        <ele>220.7</ele>
        <time>2013-09-22T08:51:12Z</time>
      </trkpt>
      <trkpt lat="49.02894" lon="6.91212">
        <ele>220.3</ele>
        <time>2013-09-22T08:51:17Z</time>
      </trkpt>
      <trkpt lat="49.02894" lon="6.91221">
        <ele>220</ele>
        <time>2013-09-22T08:51:22Z</time>
      </trkpt>
      <trkpt lat="49.02894" lon="6.91228">
        <ele>220.3</ele>
        <time>2013-09-22T08:51:27Z</time>
      </trkpt>
      <trkpt lat="49.02894" lon="6.91237">
        <ele>220.4</ele>
        <time>2013-09-22T08:51:32Z</time>
      </trkpt>
      <trkpt lat="49.02895" lon="6.91244">
        <ele>220.1</ele>
        <time>2013-09-22T08:51:37Z</time>
      </trkpt>
      <trkpt lat="49.02896" lon="6.91253">
        <ele>219.7</ele>
        <time>2013-09-22T08:51:42Z</time>
      </trkpt>
      <trkpt lat="49.02895" lon="6.91262">
        <ele>219</ele>
        <time>2013-09-22T08:51:47Z</time>
      </trkpt>
      <trkpt lat="49.02893" lon="6.91271">
        <ele>218.8</ele>
        <time>2013-09-22T08:51:52Z</time>
      </trkpt>
      <trkpt lat="49.02894" lon="6.91282">
        <ele>218.1</ele>
        <time>2013-09-22T08:51:57Z</time>
      </trkpt>
      <trkpt lat="49.02894" lon="6.91291">
        <ele>218.3</ele>
        <time>2013-09-22T08:52:02Z</time>
      </trkpt>
      <trkpt lat="49.02895" lon="6.91301">
        <ele>218.4</ele>
        <time>2013-09-22T08:52:07Z</time>
      </trkpt>
      <trkpt lat="49.02896" lon="6.9131">
        <ele>218.1</ele>
        <time>2013-09-22T08:52:12Z</time>
      </trkpt>
      <trkpt lat="49.02895" lon="6.91317">
        <ele>218.1</ele>
        <time>2013-09-22T08:52:17Z</time>
      </trkpt>
      <trkpt lat="49.02893" lon="6.91325">
        <ele>218.4</ele>
        <time>2013-09-22T08:52:22Z</time>
      </trkpt>
      <trkpt lat="49.02891" lon="6.91333">
        <ele>218.8</ele>
        <time>2013-09-22T08:52:27Z</time>
      </trkpt>
      <trkpt lat="49.02889" lon="6.9134">
        <ele>219.6</ele>
        <time>2013-09-22T08:52:32Z</time>
      </trkpt>
      <trkpt lat="49.02888" lon="6.91344">
        <ele>219.3</ele>
        <time>2013-09-22T08:52:37Z</time>
      </trkpt>
      <trkpt lat="49.02885" lon="6.91351">
        <ele>219.3</ele>
        <time>2013-09-22T08:52:42Z</time>
      </trkpt>
      <trkpt lat="49.02884" lon="6.91358">
        <ele>219.4</ele>
        <time>2013-09-22T08:52:47Z</time>
      </trkpt>
      <trkpt lat="49.0288" lon="6.91365">
        <ele>219.7</ele>
        <time>2013-09-22T08:52:52Z</time>
      </trkpt>
      <trkpt lat="49.02876" lon="6.9137">
        <ele>219.1</ele>
        <time>2013-09-22T08:52:57Z</time>
      </trkpt>
      <trkpt lat="49.02871" lon="6.91375">
        <ele>219.4</ele>
        <time>2013-09-22T08:53:02Z</time>
      </trkpt>
      <trkpt lat="49.02867" lon="6.91378">
        <ele>219.7</ele>
        <time>2013-09-22T08:53:07Z</time>
      </trkpt>
      <trkpt lat="49.02862" lon="6.91381">
        <ele>218.9</ele>
        <time>2013-09-22T08:53:12Z</time>
      </trkpt>
      <trkpt lat="49.02857" lon="6.91386">
        <ele>218.6</ele>
        <time>2013-09-22T08:53:17Z</time>
      </trkpt>
      <trkpt lat="49.02851" lon="6.9139">
        <ele>219.2</ele>
        <time>2013-09-22T08:53:22Z</time>
      </trkpt>
      <trkpt lat="49.02846" lon="6.91394">
        <ele>219</ele>
        <time>2013-09-22T08:53:27Z</time>
      </trkpt>
      <trkpt lat="49.02841" lon="6.914">
        <ele>219.5</ele>
        <time>2013-09-22T08:53:32Z</time>
      </trkpt>
      <trkpt lat="49.02837" lon="6.91407">
        <ele>219.3</ele>
        <time>2013-09-22T08:53:37Z</time>
      </trkpt>
      <trkpt lat="49.02836" lon="6.91414">
        <ele>220.8</ele>
        <time>2013-09-22T08:53:42Z</time>
      </trkpt>
      <trkpt lat="49.02833" lon="6.91423">
        <ele>219.8</ele>
        <time>2013-09-22T08:53:47Z</time>
      </trkpt>
      <trkpt lat="49.0283" lon="6.91431">
        <ele>219.5</ele>
        <time>2013-09-22T08:53:52Z</time>
      </trkpt>
      <trkpt lat="49.02826" lon="6.9144">
        <ele>220.1</ele>
        <time>2013-09-22T08:53:57Z</time>
      </trkpt>
      <trkpt lat="49.02824" lon="6.91449">
        <ele>219.6</ele>
        <time>2013-09-22T08:54:02Z</time>
      </trkpt>
      <trkpt lat="49.02821" lon="6.91457">
        <ele>218.7</ele>
        <time>2013-09-22T08:54:07Z</time>
      </trkpt>
      <trkpt lat="49.02818" lon="6.91462">
        <ele>218.5</ele>
        <time>2013-09-22T08:54:12Z</time>
      </trkpt>
      <trkpt lat="49.02814" lon="6.91468">
        <ele>218.1</ele>
        <time>2013-09-22T08:54:17Z</time>
      </trkpt>
      <trkpt lat="49.02812" lon="6.91472">
        <ele>219</ele>
        <time>2013-09-22T08:54:22Z</time>
      </trkpt>
      <trkpt lat="49.0281" lon="6.91474">
        <ele>219.1</ele>
        <time>2013-09-22T08:54:27Z</time>
      </trkpt>
      <trkpt lat="49.02811" lon="6.91474">
        <ele>218.3</ele>
        <time>2013-09-22T08:54:32Z</time>
      </trkpt>
      <trkpt lat="49.02811" lon="6.91473">
        <ele>219.5</ele>
        <time>2013-09-22T08:54:37Z</time>
      </trkpt>
      <trkpt lat="49.02812" lon="6.91474">
        <ele>219.3</ele>
        <time>2013-09-22T08:54:42Z</time>
      </trkpt>
      <trkpt lat="49.02809" lon="6.91477">
        <ele>219.4</ele>
        <time>2013-09-22T08:54:47Z</time>
      </trkpt>
      <trkpt lat="49.02807" lon="6.91478">
        <ele>219.1</ele>
        <time>2013-09-22T08:54:52Z</time>
      </trkpt>
      <trkpt lat="49.02807" lon="6.91477">
        <ele>219</ele>
        <time>2013-09-22T08:54:57Z</time>
      </trkpt>
      <trkpt lat="49.02806" lon="6.91476">
        <ele>219</ele>
        <time>2013-09-22T08:55:02Z</time>
      </trkpt>
      <trkpt lat="49.02805" lon="6.91476">
        <ele>218.8</ele>
        <time>2013-09-22T08:55:07Z</time>
      </trkpt>
      <trkpt lat="49.02804" lon="6.91475">
        <ele>218.8</ele>
        <time>2013-09-22T08:55:12Z</time>
      </trkpt>
      <trkpt lat="49.02804" lon="6.91474">
        <ele>218.8</ele>
        <time>2013-09-22T08:55:17Z</time>
      </trkpt>
      <trkpt lat="49.02805" lon="6.91474">
        <ele>218.7</ele>
        <time>2013-09-22T08:55:22Z</time>
      </trkpt>
      <trkpt lat="49.02808" lon="6.91472">
        <ele>218.9</ele>
        <time>2013-09-22T08:55:27Z</time>
      </trkpt>
      <trkpt lat="49.02811" lon="6.91469">
        <ele>218.4</ele>
        <time>2013-09-22T08:55:32Z</time>
      </trkpt>
      <trkpt lat="49.02814" lon="6.91466">
        <ele>218.7</ele>
        <time>2013-09-22T08:55:37Z</time>
      </trkpt>
      <trkpt lat="49.02813" lon="6.91465">
        <ele>218.6</ele>
        <time>2013-09-22T08:55:42Z</time>
      </trkpt>
      <trkpt lat="49.02814" lon="6.91463">
        <ele>218.9</ele>
        <time>2013-09-22T08:55:47Z</time>
      </trkpt>
      <trkpt lat="49.02815" lon="6.91463">
        <ele>219.5</ele>
        <time>2013-09-22T08:55:52Z</time>
      </trkpt>
      <trkpt lat="49.02814" lon="6.91464">
        <ele>219.6</ele>
        <time>2013-09-22T08:55:57Z</time>
      </trkpt>
      <trkpt lat="49.02814" lon="6.91466">
        <ele>218</ele>
        <time>2013-09-22T08:56:02Z</time>
      </trkpt>
      <trkpt lat="49.02811" lon="6.91467">
        <ele>218.7</ele>
        <time>2013-09-22T08:56:07Z</time>
      </trkpt>
      <trkpt lat="49.02807" lon="6.91469">
        <ele>218</ele>
        <time>2013-09-22T08:56:14Z</time>
      </trkpt>
      <trkpt lat="49.02805" lon="6.9147">
        <ele>218.6</ele>
        <time>2013-09-22T08:56:19Z</time>
      </trkpt>
      <trkpt lat="49.02801" lon="6.91474">
        <ele>218</ele>
        <time>2013-09-22T08:56:24Z</time>
      </trkpt>
      <trkpt lat="49.02799" lon="6.91478">
        <ele>219.1</ele>
        <time>2013-09-22T08:56:29Z</time>
      </trkpt>
      <trkpt lat="49.02799" lon="6.91481">
        <ele>219</ele>
        <time>2013-09-22T08:56:34Z</time>
      </trkpt>
      <trkpt lat="49.02799" lon="6.91482">
        <ele>219.3</ele>
        <time>2013-09-22T08:56:39Z</time>
      </trkpt>
      <trkpt lat="49.02798" lon="6.91482">
        <ele>218.6</ele>
        <time>2013-09-22T08:56:44Z</time>
      </trkpt>
      <trkpt lat="49.02796" lon="6.91482">
        <ele>218.9</ele>
        <time>2013-09-22T08:56:49Z</time>
      </trkpt>
      <trkpt lat="49.02794" lon="6.91481">
        <ele>219.6</ele>
        <time>2013-09-22T08:56:54Z</time>
      </trkpt>
      <trkpt lat="49.02792" lon="6.91478">
        <ele>218.4</ele>
        <time>2013-09-22T08:56:59Z</time>
      </trkpt>
      <trkpt lat="49.0279" lon="6.91476">
        <ele>218.8</ele>
        <time>2013-09-22T08:57:04Z</time>
      </trkpt>
      <trkpt lat="49.02785" lon="6.91474">
        <ele>219.1</ele>
        <time>2013-09-22T08:57:09Z</time>
      </trkpt>
      <trkpt lat="49.02782" lon="6.91471">
        <ele>218.8</ele>
        <time>2013-09-22T08:57:14Z</time>
      </trkpt>
      <trkpt lat="49.0278" lon="6.91466">
        <ele>218.8</ele>
        <time>2013-09-22T08:57:19Z</time>
      </trkpt>
      <trkpt lat="49.02777" lon="6.91461">
        <ele>219.2</ele>
        <time>2013-09-22T08:57:24Z</time>
      </trkpt>
      <trkpt lat="49.02773" lon="6.91456">
        <ele>219.8</ele>
        <time>2013-09-22T08:57:29Z</time>
      </trkpt>
      <trkpt lat="49.02774" lon="6.91452">
        <ele>219.1</ele>
        <time>2013-09-22T08:57:34Z</time>
      </trkpt>
      <trkpt lat="49.02774" lon="6.91449">
        <ele>218.4</ele>
        <time>2013-09-22T08:57:39Z</time>
      </trkpt>
      <trkpt lat="49.02777" lon="6.91445">
        <ele>219.1</ele>
        <time>2013-09-22T08:57:44Z</time>
      </trkpt>
      <trkpt lat="49.02781" lon="6.91441">
        <ele>218.4</ele>
        <time>2013-09-22T08:57:49Z</time>
      </trkpt>
      <trkpt lat="49.02783" lon="6.91439">
        <ele>219.3</ele>
        <time>2013-09-22T08:57:54Z</time>
      </trkpt>
      <trkpt lat="49.02785" lon="6.91439">
        <ele>219.8</ele>
        <time>2013-09-22T08:57:59Z</time>
      </trkpt>
      <trkpt lat="49.02785" lon="6.91444">
        <ele>218.9</ele>
        <time>2013-09-22T08:58:04Z</time>
      </trkpt>
      <trkpt lat="49.02783" lon="6.91449">
        <ele>219</ele>
        <time>2013-09-22T08:58:09Z</time>
      </trkpt>
      <trkpt lat="49.0278" lon="6.91452">
        <ele>219.5</ele>
        <time>2013-09-22T08:58:14Z</time>
      </trkpt>
      <trkpt lat="49.02775" lon="6.91454">
        <ele>219.3</ele>
        <time>2013-09-22T08:58:19Z</time>
      </trkpt>
      <trkpt lat="49.02771" lon="6.91457">
        <ele>219.4</ele>
        <time>2013-09-22T08:58:24Z</time>
      </trkpt>
      <trkpt lat="49.02768" lon="6.91462">
        <ele>219.6</ele>
        <time>2013-09-22T08:58:29Z</time>
      </trkpt>
      <trkpt lat="49.02764" lon="6.91468">
        <ele>219.4</ele>
        <time>2013-09-22T08:58:34Z</time>
      </trkpt>
      <trkpt lat="49.02762" lon="6.91476">
        <ele>219.4</ele>
        <time>2013-09-22T08:58:39Z</time>
      </trkpt>
      <trkpt lat="49.02762" lon="6.91483">
        <ele>219.6</ele>
        <time>2013-09-22T08:58:44Z</time>
      </trkpt>
      <trkpt lat="49.02761" lon="6.9149">
        <ele>220.1</ele>
        <time>2013-09-22T08:58:49Z</time>
      </trkpt>
      <trkpt lat="49.02762" lon="6.91497">
        <ele>219.3</ele>
        <time>2013-09-22T08:58:54Z</time>
      </trkpt>
      <trkpt lat="49.02764" lon="6.91505">
        <ele>219.6</ele>
        <time>2013-09-22T08:58:59Z</time>
      </trkpt>
      <trkpt lat="49.02769" lon="6.91512">
        <ele>220.4</ele>
        <time>2013-09-22T08:59:04Z</time>
      </trkpt>
      <trkpt lat="49.02773" lon="6.9152">
        <ele>220.7</ele>
        <time>2013-09-22T08:59:09Z</time>
      </trkpt>
      <trkpt lat="49.0278" lon="6.91527">
        <ele>220.4</ele>
        <time>2013-09-22T08:59:14Z</time>
      </trkpt>
      <trkpt lat="49.02785" lon="6.91536">
        <ele>221.1</ele>
        <time>2013-09-22T08:59:19Z</time>
      </trkpt>
      <trkpt lat="49.02788" lon="6.91543">
        <ele>220.2</ele>
        <time>2013-09-22T08:59:24Z</time>
      </trkpt>
      <trkpt lat="49.02791" lon="6.91552">
        <ele>219.8</ele>
        <time>2013-09-22T08:59:29Z</time>
      </trkpt>
      <trkpt lat="49.02792" lon="6.9156">
        <ele>219.9</ele>
        <time>2013-09-22T08:59:34Z</time>
      </trkpt>
      <trkpt lat="49.02794" lon="6.91568">
        <ele>220.4</ele>
        <time>2013-09-22T08:59:39Z</time>
      </trkpt>
      <trkpt lat="49.02796" lon="6.91576">
        <ele>219.8</ele>
        <time>2013-09-22T08:59:44Z</time>
      </trkpt>
      <trkpt lat="49.02796" lon="6.91584">
        <ele>220.7</ele>
        <time>2013-09-22T08:59:49Z</time>
      </trkpt>
      <trkpt lat="49.02795" lon="6.91593">
        <ele>220.3</ele>
        <time>2013-09-22T08:59:54Z</time>
      </trkpt>
      <trkpt lat="49.02795" lon="6.91603">
        <ele>220.1</ele>
        <time>2013-09-22T08:59:59Z</time>
      </trkpt>
      <trkpt lat="49.02793" lon="6.91612">
        <ele>221</ele>
        <time>2013-09-22T09:00:04Z</time>
      </trkpt>
      <trkpt lat="49.02791" lon="6.9162">
        <ele>221</ele>
        <time>2013-09-22T09:00:09Z</time>
      </trkpt>
      <trkpt lat="49.0279" lon="6.91628">
        <ele>220.6</ele>
        <time>2013-09-22T09:00:14Z</time>
      </trkpt>
      <trkpt lat="49.02787" lon="6.91636">
        <ele>220.5</ele>
        <time>2013-09-22T09:00:19Z</time>
      </trkpt>
      <trkpt lat="49.02785" lon="6.91645">
        <ele>220.8</ele>
        <time>2013-09-22T09:00:24Z</time>
      </trkpt>
      <trkpt lat="49.02783" lon="6.91654">
        <ele>220.6</ele>
        <time>2013-09-22T09:00:29Z</time>
      </trkpt>
      <trkpt lat="49.0278" lon="6.91665">
        <ele>220.7</ele>
        <time>2013-09-22T09:00:34Z</time>
      </trkpt>
      <trkpt lat="49.02777" lon="6.91675">
        <ele>221</ele>
        <time>2013-09-22T09:00:39Z</time>
      </trkpt>
      <trkpt lat="49.02778" lon="6.91683">
        <ele>219.9</ele>
        <time>2013-09-22T09:00:44Z</time>
      </trkpt>
      <trkpt lat="49.02779" lon="6.91692">
        <ele>220.1</ele>
        <time>2013-09-22T09:00:49Z</time>
      </trkpt>
      <trkpt lat="49.02778" lon="6.91703">
        <ele>219.6</ele>
        <time>2013-09-22T09:00:54Z</time>
      </trkpt>
      <trkpt lat="49.02778" lon="6.91713">
        <ele>219.6</ele>
        <time>2013-09-22T09:00:59Z</time>
      </trkpt>
      <trkpt lat="49.02779" lon="6.91724">
        <ele>219.5</ele>
        <time>2013-09-22T09:01:04Z</time>
      </trkpt>
      <trkpt lat="49.02779" lon="6.91736">
        <ele>219.2</ele>
        <time>2013-09-22T09:01:09Z</time>
      </trkpt>
      <trkpt lat="49.02777" lon="6.91745">
        <ele>219.8</ele>
        <time>2013-09-22T09:01:14Z</time>
      </trkpt>
      <trkpt lat="49.02774" lon="6.91753">
        <ele>220.1</ele>
        <time>2013-09-22T09:01:19Z</time>
      </trkpt>
      <trkpt lat="49.02771" lon="6.91761">
        <ele>220.3</ele>
        <time>2013-09-22T09:01:24Z</time>
      </trkpt>
      <trkpt lat="49.02768" lon="6.91769">
        <ele>220.3</ele>
        <time>2013-09-22T09:01:29Z</time>
      </trkpt>
      <trkpt lat="49.02763" lon="6.91776">
        <ele>220</ele>
        <time>2013-09-22T09:01:34Z</time>
      </trkpt>
      <trkpt lat="49.02757" lon="6.91781">
        <ele>219.7</ele>
        <time>2013-09-22T09:01:39Z</time>
      </trkpt>
      <trkpt lat="49.02753" lon="6.91787">
        <ele>220.3</ele>
        <time>2013-09-22T09:01:44Z</time>
      </trkpt>
      <trkpt lat="49.02746" lon="6.91791">
        <ele>219.6</ele>
        <time>2013-09-22T09:01:49Z</time>
      </trkpt>
      <trkpt lat="49.02742" lon="6.91795">
        <ele>219.7</ele>
        <time>2013-09-22T09:01:54Z</time>
      </trkpt>
      <trkpt lat="49.02737" lon="6.91797">
        <ele>220.5</ele>
        <time>2013-09-22T09:01:59Z</time>
      </trkpt>
      <trkpt lat="49.02733" lon="6.91801">
        <ele>220.3</ele>
        <time>2013-09-22T09:02:04Z</time>
      </trkpt>
      <trkpt lat="49.02728" lon="6.91808">
        <ele>220.1</ele>
        <time>2013-09-22T09:02:10Z</time>
      </trkpt>
      <trkpt lat="49.02722" lon="6.91814">
        <ele>220</ele>
        <time>2013-09-22T09:02:15Z</time>
      </trkpt>
      <trkpt lat="49.02714" lon="6.91821">
        <ele>219.9</ele>
        <time>2013-09-22T09:02:20Z</time>
      </trkpt>
      <trkpt lat="49.02706" lon="6.91825">
        <ele>218.5</ele>
        <time>2013-09-22T09:02:25Z</time>
      </trkpt>
      <trkpt lat="49.027" lon="6.91828">
        <ele>218.1</ele>
        <time>2013-09-22T09:02:30Z</time>
      </trkpt>
      <trkpt lat="49.02693" lon="6.91831">
        <ele>218.7</ele>
        <time>2013-09-22T09:02:35Z</time>
      </trkpt>
      <trkpt lat="49.02688" lon="6.91834">
        <ele>219.4</ele>
        <time>2013-09-22T09:02:40Z</time>
      </trkpt>
      <trkpt lat="49.02681" lon="6.91835">
        <ele>219.5</ele>
        <time>2013-09-22T09:02:45Z</time>
      </trkpt>
      <trkpt lat="49.02677" lon="6.91835">
        <ele>219.4</ele>
        <time>2013-09-22T09:02:50Z</time>
      </trkpt>
      <trkpt lat="49.02672" lon="6.91836">
        <ele>219.1</ele>
        <time>2013-09-22T09:02:55Z</time>
      </trkpt>
      <trkpt lat="49.02666" lon="6.91838">
        <ele>219.2</ele>
        <time>2013-09-22T09:03:00Z</time>
      </trkpt>
      <trkpt lat="49.02659" lon="6.91838">
        <ele>219.4</ele>
        <time>2013-09-22T09:03:05Z</time>
      </trkpt>
      <trkpt lat="49.02654" lon="6.91839">
        <ele>218.9</ele>
        <time>2013-09-22T09:03:10Z</time>
      </trkpt>
      <trkpt lat="49.02651" lon="6.91838">
        <ele>219.1</ele>
        <time>2013-09-22T09:03:15Z</time>
      </trkpt>
      <trkpt lat="49.02644" lon="6.91839">
        <ele>219.9</ele>
        <time>2013-09-22T09:03:20Z</time>
      </trkpt>
      <trkpt lat="49.02638" lon="6.91838">
        <ele>219.6</ele>
        <time>2013-09-22T09:03:25Z</time>
      </trkpt>
      <trkpt lat="49.02634" lon="6.91836">
        <ele>219.7</ele>
        <time>2013-09-22T09:03:30Z</time>
      </trkpt>
      <trkpt lat="49.02627" lon="6.91833">
        <ele>219</ele>
        <time>2013-09-22T09:03:35Z</time>
      </trkpt>
      <trkpt lat="49.02622" lon="6.9183">
        <ele>218.3</ele>
        <time>2013-09-22T09:03:40Z</time>
      </trkpt>
      <trkpt lat="49.02618" lon="6.91828">
        <ele>219</ele>
        <time>2013-09-22T09:03:45Z</time>
      </trkpt>
      <trkpt lat="49.02612" lon="6.91827">
        <ele>219</ele>
        <time>2013-09-22T09:03:50Z</time>
      </trkpt>
      <trkpt lat="49.02608" lon="6.91824">
        <ele>218.4</ele>
        <time>2013-09-22T09:03:55Z</time>
      </trkpt>
      <trkpt lat="49.02603" lon="6.9182">
        <ele>218.4</ele>
        <time>2013-09-22T09:04:00Z</time>
      </trkpt>
      <trkpt lat="49.02597" lon="6.91818">
        <ele>218.6</ele>
        <time>2013-09-22T09:04:05Z</time>
      </trkpt>
      <trkpt lat="49.0259" lon="6.91817">
        <ele>218.5</ele>
        <time>2013-09-22T09:04:10Z</time>
      </trkpt>
      <trkpt lat="49.02584" lon="6.9181">
        <ele>218.2</ele>
        <time>2013-09-22T09:04:15Z</time>
      </trkpt>
      <trkpt lat="49.02578" lon="6.91804">
        <ele>218.8</ele>
        <time>2013-09-22T09:04:20Z</time>
      </trkpt>
      <trkpt lat="49.02573" lon="6.91798">
        <ele>218.5</ele>
        <time>2013-09-22T09:04:25Z</time>
      </trkpt>
      <trkpt lat="49.02566" lon="6.9179">
        <ele>219.3</ele>
        <time>2013-09-22T09:04:30Z</time>
      </trkpt>
      <trkpt lat="49.02559" lon="6.91784">
        <ele>219.8</ele>
        <time>2013-09-22T09:04:35Z</time>
      </trkpt>
      <trkpt lat="49.02551" lon="6.91777">
        <ele>219.6</ele>
        <time>2013-09-22T09:04:40Z</time>
      </trkpt>
      <trkpt lat="49.02542" lon="6.9177">
        <ele>219.7</ele>
        <time>2013-09-22T09:04:45Z</time>
      </trkpt>
      <trkpt lat="49.02536" lon="6.91762">
        <ele>218.9</ele>
        <time>2013-09-22T09:04:50Z</time>
      </trkpt>
      <trkpt lat="49.02529" lon="6.91755">
        <ele>219.8</ele>
        <time>2013-09-22T09:04:55Z</time>
      </trkpt>
      <trkpt lat="49.02522" lon="6.91748">
        <ele>220.1</ele>
        <time>2013-09-22T09:05:00Z</time>
      </trkpt>
      <trkpt lat="49.02515" lon="6.9174">
        <ele>220.5</ele>
        <time>2013-09-22T09:05:05Z</time>
      </trkpt>
      <trkpt lat="49.0251" lon="6.91731">
        <ele>220.1</ele>
        <time>2013-09-22T09:05:10Z</time>
      </trkpt>
      <trkpt lat="49.02505" lon="6.91721">
        <ele>220.1</ele>
        <time>2013-09-22T09:05:15Z</time>
      </trkpt>
      <trkpt lat="49.02502" lon="6.91714">
        <ele>220.2</ele>
        <time>2013-09-22T09:05:20Z</time>
      </trkpt>
      <trkpt lat="49.02498" lon="6.91707">
        <ele>220.1</ele>
        <time>2013-09-22T09:05:25Z</time>
      </trkpt>
      <trkpt lat="49.02495" lon="6.917">
        <ele>219.9</ele>
        <time>2013-09-22T09:05:30Z</time>
      </trkpt>
      <trkpt lat="49.02491" lon="6.91692">
        <ele>220.5</ele>
        <time>2013-09-22T09:05:35Z</time>
      </trkpt>
      <trkpt lat="49.02488" lon="6.91685">
        <ele>221.4</ele>
        <time>2013-09-22T09:05:40Z</time>
      </trkpt>
      <trkpt lat="49.02485" lon="6.91676">
        <ele>220.3</ele>
        <time>2013-09-22T09:05:45Z</time>
      </trkpt>
      <trkpt lat="49.02482" lon="6.91669">
        <ele>220.6</ele>
        <time>2013-09-22T09:05:50Z</time>
      </trkpt>
      <trkpt lat="49.02477" lon="6.91663">
        <ele>220.3</ele>
        <time>2013-09-22T09:05:55Z</time>
      </trkpt>
      <trkpt lat="49.02473" lon="6.91658">
        <ele>219.9</ele>
        <time>2013-09-22T09:06:00Z</time>
      </trkpt>
      <trkpt lat="49.02468" lon="6.91657">
        <ele>220.2</ele>
        <time>2013-09-22T09:06:05Z</time>
      </trkpt>
      <trkpt lat="49.02463" lon="6.9166">
        <ele>219.7</ele>
        <time>2013-09-22T09:06:10Z</time>
      </trkpt>
      <trkpt lat="49.02458" lon="6.91665">
        <ele>219.6</ele>
        <time>2013-09-22T09:06:15Z</time>
      </trkpt>
      <trkpt lat="49.02452" lon="6.91673">
        <ele>219.9</ele>
        <time>2013-09-22T09:06:20Z</time>
      </trkpt>
      <trkpt lat="49.02449" lon="6.91682">
        <ele>220</ele>
        <time>2013-09-22T09:06:25Z</time>
      </trkpt>
      <trkpt lat="49.02447" lon="6.91691">
        <ele>219.7</ele>
        <time>2013-09-22T09:06:30Z</time>
      </trkpt>
      <trkpt lat="49.02445" lon="6.91701">
        <ele>219.9</ele>
        <time>2013-09-22T09:06:35Z</time>
      </trkpt>
      <trkpt lat="49.02444" lon="6.91711">
        <ele>220.4</ele>
        <time>2013-09-22T09:06:40Z</time>
      </trkpt>
      <trkpt lat="49.02443" lon="6.91721">
        <ele>220.6</ele>
        <time>2013-09-22T09:06:45Z</time>
      </trkpt>
      <trkpt lat="49.02443" lon="6.9173">
        <ele>220.1</ele>
        <time>2013-09-22T09:06:50Z</time>
      </trkpt>
      <trkpt lat="49.02443" lon="6.91739">
        <ele>220.1</ele>
        <time>2013-09-22T09:06:55Z</time>
      </trkpt>
      <trkpt lat="49.02445" lon="6.91747">
        <ele>220.9</ele>
        <time>2013-09-22T09:07:00Z</time>
      </trkpt>
      <trkpt lat="49.02448" lon="6.91755">
        <ele>220.8</ele>
        <time>2013-09-22T09:07:05Z</time>
      </trkpt>
      <trkpt lat="49.02452" lon="6.91762">
        <ele>221.3</ele>
        <time>2013-09-22T09:07:10Z</time>
      </trkpt>
      <trkpt lat="49.02456" lon="6.91769">
        <ele>221</ele>
        <time>2013-09-22T09:07:15Z</time>
      </trkpt>
      <trkpt lat="49.02459" lon="6.91774">
        <ele>220.4</ele>
        <time>2013-09-22T09:07:20Z</time>
      </trkpt>
      <trkpt lat="49.02463" lon="6.9178">
        <ele>220.5</ele>
        <time>2013-09-22T09:07:25Z</time>
      </trkpt>
      <trkpt lat="49.02467" lon="6.91787">
        <ele>220.6</ele>
        <time>2013-09-22T09:07:30Z</time>
      </trkpt>
      <trkpt lat="49.02471" lon="6.91794">
        <ele>222.1</ele>
        <time>2013-09-22T09:07:35Z</time>
      </trkpt>
      <trkpt lat="49.02474" lon="6.91801">
        <ele>220.8</ele>
        <time>2013-09-22T09:07:40Z</time>
      </trkpt>
      <trkpt lat="49.02478" lon="6.91809">
        <ele>221</ele>
        <time>2013-09-22T09:07:45Z</time>
      </trkpt>
      <trkpt lat="49.02483" lon="6.91817">
        <ele>220.9</ele>
        <time>2013-09-22T09:07:50Z</time>
      </trkpt>
      <trkpt lat="49.02487" lon="6.91826">
        <ele>220.7</ele>
        <time>2013-09-22T09:07:55Z</time>
      </trkpt>
      <trkpt lat="49.02492" lon="6.91834">
        <ele>221.1</ele>
        <time>2013-09-22T09:08:00Z</time>
      </trkpt>
      <trkpt lat="49.02496" lon="6.91842">
        <ele>221.1</ele>
        <time>2013-09-22T09:08:05Z</time>
      </trkpt>
      <trkpt lat="49.025" lon="6.9185">
        <ele>221.3</ele>
        <time>2013-09-22T09:08:10Z</time>
      </trkpt>
      <trkpt lat="49.02504" lon="6.91857">
        <ele>221.2</ele>
        <time>2013-09-22T09:08:15Z</time>
      </trkpt>
      <trkpt lat="49.02508" lon="6.91864">
        <ele>221.2</ele>
        <time>2013-09-22T09:08:20Z</time>
      </trkpt>
      <trkpt lat="49.02512" lon="6.91873">
        <ele>219.9</ele>
        <time>2013-09-22T09:08:25Z</time>
      </trkpt>
      <trkpt lat="49.02516" lon="6.91882">
        <ele>220.7</ele>
        <time>2013-09-22T09:08:30Z</time>
      </trkpt>
      <trkpt lat="49.0252" lon="6.91891">
        <ele>220.7</ele>
        <time>2013-09-22T09:08:35Z</time>
      </trkpt>
      <trkpt lat="49.02523" lon="6.919">
        <ele>221.4</ele>
        <time>2013-09-22T09:08:40Z</time>
      </trkpt>
      <trkpt lat="49.02525" lon="6.91909">
        <ele>220.3</ele>
        <time>2013-09-22T09:08:45Z</time>
      </trkpt>
      <trkpt lat="49.02528" lon="6.91918">
        <ele>220</ele>
        <time>2013-09-22T09:08:50Z</time>
      </trkpt>
      <trkpt lat="49.02531" lon="6.91927">
        <ele>220.1</ele>
        <time>2013-09-22T09:08:55Z</time>
      </trkpt>
      <trkpt lat="49.02535" lon="6.91936">
        <ele>219.5</ele>
        <time>2013-09-22T09:09:00Z</time>
      </trkpt>
      <trkpt lat="49.02539" lon="6.91945">
        <ele>220.7</ele>
        <time>2013-09-22T09:09:05Z</time>
      </trkpt>
      <trkpt lat="49.02543" lon="6.91955">
        <ele>220</ele>
        <time>2013-09-22T09:09:10Z</time>
      </trkpt>
      <trkpt lat="49.02546" lon="6.91964">
        <ele>219.8</ele>
        <time>2013-09-22T09:09:15Z</time>
      </trkpt>
      <trkpt lat="49.02549" lon="6.91972">
        <ele>219.7</ele>
        <time>2013-09-22T09:09:20Z</time>
      </trkpt>
      <trkpt lat="49.02553" lon="6.91979">
        <ele>219.4</ele>
        <time>2013-09-22T09:09:25Z</time>
      </trkpt>
      <trkpt lat="49.02556" lon="6.91988">
        <ele>219.8</ele>
        <time>2013-09-22T09:09:30Z</time>
      </trkpt>
      <trkpt lat="49.0256" lon="6.91997">
        <ele>219.4</ele>
        <time>2013-09-22T09:09:35Z</time>
      </trkpt>
      <trkpt lat="49.02563" lon="6.92005">
        <ele>218.8</ele>
        <time>2013-09-22T09:09:40Z</time>
      </trkpt>
      <trkpt lat="49.02567" lon="6.92015">
        <ele>218.3</ele>
        <time>2013-09-22T09:09:45Z</time>
      </trkpt>
      <trkpt lat="49.0257" lon="6.92024">
        <ele>219.8</ele>
        <time>2013-09-22T09:09:50Z</time>
      </trkpt>
      <trkpt lat="49.02574" lon="6.92033">
        <ele>219.6</ele>
        <time>2013-09-22T09:09:55Z</time>
      </trkpt>
      <trkpt lat="49.02577" lon="6.92041">
        <ele>219.6</ele>
        <time>2013-09-22T09:10:00Z</time>
      </trkpt>
      <trkpt lat="49.02578" lon="6.9205">
        <ele>219.8</ele>
        <time>2013-09-22T09:10:05Z</time>
      </trkpt>
      <trkpt lat="49.02577" lon="6.92056">
        <ele>219.8</ele>
        <time>2013-09-22T09:10:10Z</time>
      </trkpt>
      <trkpt lat="49.02576" lon="6.92062">
        <ele>219.8</ele>
        <time>2013-09-22T09:10:15Z</time>
      </trkpt>
      <trkpt lat="49.02573" lon="6.92068">
        <ele>220.4</ele>
        <time>2013-09-22T09:10:20Z</time>
      </trkpt>
      <trkpt lat="49.0257" lon="6.92073">
        <ele>220.2</ele>
        <time>2013-09-22T09:10:25Z</time>
      </trkpt>
      <trkpt lat="49.02566" lon="6.92078">
        <ele>221.4</ele>
        <time>2013-09-22T09:10:30Z</time>
      </trkpt>
      <trkpt lat="49.02563" lon="6.92084">
        <ele>221.3</ele>
        <time>2013-09-22T09:10:35Z</time>
      </trkpt>
      <trkpt lat="49.0256" lon="6.92091">
        <ele>222</ele>
        <time>2013-09-22T09:10:40Z</time>
      </trkpt>
      <trkpt lat="49.02558" lon="6.92098">
        <ele>222.9</ele>
        <time>2013-09-22T09:10:45Z</time>
      </trkpt>
      <trkpt lat="49.02558" lon="6.92106">
        <ele>224.3</ele>
        <time>2013-09-22T09:10:50Z</time>
      </trkpt>
      <trkpt lat="49.02559" lon="6.92112">
        <ele>224.5</ele>
        <time>2013-09-22T09:10:55Z</time>
      </trkpt>
      <trkpt lat="49.02561" lon="6.92119">
        <ele>224.8</ele>
        <time>2013-09-22T09:11:00Z</time>
      </trkpt>
      <trkpt lat="49.02563" lon="6.92126">
        <ele>223.9</ele>
        <time>2013-09-22T09:11:05Z</time>
      </trkpt>
      <trkpt lat="49.02565" lon="6.92133">
        <ele>224.5</ele>
        <time>2013-09-22T09:11:10Z</time>
      </trkpt>
      <trkpt lat="49.02568" lon="6.92141">
        <ele>223.9</ele>
        <time>2013-09-22T09:11:15Z</time>
      </trkpt>
      <trkpt lat="49.0257" lon="6.92149">
        <ele>224.2</ele>
        <time>2013-09-22T09:11:20Z</time>
      </trkpt>
      <trkpt lat="49.02573" lon="6.92156">
        <ele>224.7</ele>
        <time>2013-09-22T09:11:25Z</time>
      </trkpt>
      <trkpt lat="49.02576" lon="6.92164">
        <ele>223.7</ele>
        <time>2013-09-22T09:11:30Z</time>
      </trkpt>
      <trkpt lat="49.02578" lon="6.92171">
        <ele>224.1</ele>
        <time>2013-09-22T09:11:35Z</time>
      </trkpt>
      <trkpt lat="49.02581" lon="6.92179">
        <ele>224.5</ele>
        <time>2013-09-22T09:11:40Z</time>
      </trkpt>
      <trkpt lat="49.02584" lon="6.92186">
        <ele>224.4</ele>
        <time>2013-09-22T09:11:45Z</time>
      </trkpt>
      <trkpt lat="49.02587" lon="6.92193">
        <ele>224.1</ele>
        <time>2013-09-22T09:11:50Z</time>
      </trkpt>
      <trkpt lat="49.0259" lon="6.92199">
        <ele>224.5</ele>
        <time>2013-09-22T09:11:55Z</time>
      </trkpt>
      <trkpt lat="49.02593" lon="6.92207">
        <ele>224.5</ele>
        <time>2013-09-22T09:12:00Z</time>
      </trkpt>
      <trkpt lat="49.02595" lon="6.92215">
        <ele>224.8</ele>
        <time>2013-09-22T09:12:05Z</time>
      </trkpt>
      <trkpt lat="49.02598" lon="6.92225">
        <ele>224.7</ele>
        <time>2013-09-22T09:12:10Z</time>
      </trkpt>
      <trkpt lat="49.02603" lon="6.92237">
        <ele>224.3</ele>
        <time>2013-09-22T09:12:15Z</time>
      </trkpt>
      <trkpt lat="49.02607" lon="6.92247">
        <ele>224.8</ele>
        <time>2013-09-22T09:12:20Z</time>
      </trkpt>
      <trkpt lat="49.02611" lon="6.92257">
        <ele>223.7</ele>
        <time>2013-09-22T09:12:25Z</time>
      </trkpt>
      <trkpt lat="49.02614" lon="6.92265">
        <ele>223.1</ele>
        <time>2013-09-22T09:12:30Z</time>
      </trkpt>
      <trkpt lat="49.02617" lon="6.92272">
        <ele>222.8</ele>
        <time>2013-09-22T09:12:35Z</time>
      </trkpt>
      <trkpt lat="49.02618" lon="6.92279">
        <ele>222.5</ele>
        <time>2013-09-22T09:12:40Z</time>
      </trkpt>
      <trkpt lat="49.02621" lon="6.92286">
        <ele>222.3</ele>
        <time>2013-09-22T09:12:45Z</time>
      </trkpt>
      <trkpt lat="49.02624" lon="6.92294">
        <ele>221.7</ele>
        <time>2013-09-22T09:12:50Z</time>
      </trkpt>
      <trkpt lat="49.02627" lon="6.92302">
        <ele>220.4</ele>
        <time>2013-09-22T09:12:55Z</time>
      </trkpt>
      <trkpt lat="49.02631" lon="6.9231">
        <ele>221.6</ele>
        <time>2013-09-22T09:13:00Z</time>
      </trkpt>
      <trkpt lat="49.02634" lon="6.92317">
        <ele>221.2</ele>
        <time>2013-09-22T09:13:05Z</time>
      </trkpt>
      <trkpt lat="49.02638" lon="6.92325">
        <ele>221.6</ele>
        <time>2013-09-22T09:13:10Z</time>
      </trkpt>
      <trkpt lat="49.02641" lon="6.92334">
        <ele>221.4</ele>
        <time>2013-09-22T09:13:15Z</time>
      </trkpt>
      <trkpt lat="49.02645" lon="6.92344">
        <ele>221.4</ele>
        <time>2013-09-22T09:13:20Z</time>
      </trkpt>
      <trkpt lat="49.02648" lon="6.92355">
        <ele>221.8</ele>
        <time>2013-09-22T09:13:25Z</time>
      </trkpt>
      <trkpt lat="49.02652" lon="6.92364">
        <ele>221.4</ele>
        <time>2013-09-22T09:13:30Z</time>
      </trkpt>
      <trkpt lat="49.02655" lon="6.92372">
        <ele>221.8</ele>
        <time>2013-09-22T09:13:35Z</time>
      </trkpt>
      <trkpt lat="49.02658" lon="6.92379">
        <ele>221.7</ele>
        <time>2013-09-22T09:13:40Z</time>
      </trkpt>
      <trkpt lat="49.02661" lon="6.92387">
        <ele>221.1</ele>
        <time>2013-09-22T09:13:45Z</time>
      </trkpt>
      <trkpt lat="49.02665" lon="6.92395">
        <ele>221.2</ele>
        <time>2013-09-22T09:13:50Z</time>
      </trkpt>
      <trkpt lat="49.02668" lon="6.924">
        <ele>222.1</ele>
        <time>2013-09-22T09:13:55Z</time>
      </trkpt>
      <trkpt lat="49.02673" lon="6.92405">
        <ele>222.3</ele>
        <time>2013-09-22T09:14:00Z</time>
      </trkpt>
      <trkpt lat="49.02677" lon="6.92411">
        <ele>222.8</ele>
        <time>2013-09-22T09:14:05Z</time>
      </trkpt>
      <trkpt lat="49.02682" lon="6.92416">
        <ele>223.4</ele>
        <time>2013-09-22T09:14:10Z</time>
      </trkpt>
      <trkpt lat="49.02687" lon="6.92422">
        <ele>222.9</ele>
        <time>2013-09-22T09:14:15Z</time>
      </trkpt>
      <trkpt lat="49.02692" lon="6.92429">
        <ele>223.7</ele>
        <time>2013-09-22T09:14:20Z</time>
      </trkpt>
      <trkpt lat="49.02697" lon="6.92434">
        <ele>223.5</ele>
        <time>2013-09-22T09:14:25Z</time>
      </trkpt>
      <trkpt lat="49.02701" lon="6.9244">
        <ele>222.9</ele>
        <time>2013-09-22T09:14:30Z</time>
      </trkpt>
      <trkpt lat="49.02706" lon="6.92444">
        <ele>223.4</ele>
        <time>2013-09-22T09:14:35Z</time>
      </trkpt>
      <trkpt lat="49.02711" lon="6.92448">
        <ele>222.9</ele>
        <time>2013-09-22T09:14:40Z</time>
      </trkpt>
      <trkpt lat="49.02716" lon="6.92455">
        <ele>223.1</ele>
        <time>2013-09-22T09:14:45Z</time>
      </trkpt>
      <trkpt lat="49.02722" lon="6.92461">
        <ele>223.2</ele>
        <time>2013-09-22T09:14:50Z</time>
      </trkpt>
      <trkpt lat="49.02727" lon="6.92468">
        <ele>223.3</ele>
        <time>2013-09-22T09:14:55Z</time>
      </trkpt>
      <trkpt lat="49.02732" lon="6.92475">
        <ele>222.9</ele>
        <time>2013-09-22T09:15:00Z</time>
      </trkpt>
      <trkpt lat="49.02737" lon="6.92479">
        <ele>222</ele>
        <time>2013-09-22T09:15:05Z</time>
      </trkpt>
      <trkpt lat="49.02742" lon="6.92484">
        <ele>222.5</ele>
        <time>2013-09-22T09:15:10Z</time>
      </trkpt>
      <trkpt lat="49.02748" lon="6.92491">
        <ele>222.3</ele>
        <time>2013-09-22T09:15:15Z</time>
      </trkpt>
      <trkpt lat="49.02752" lon="6.92496">
        <ele>221.5</ele>
        <time>2013-09-22T09:15:20Z</time>
      </trkpt>
      <trkpt lat="49.02757" lon="6.92501">
        <ele>223</ele>
        <time>2013-09-22T09:15:25Z</time>
      </trkpt>
      <trkpt lat="49.02762" lon="6.92507">
        <ele>224</ele>
        <time>2013-09-22T09:15:30Z</time>
      </trkpt>
      <trkpt lat="49.02767" lon="6.92512">
        <ele>223.6</ele>
        <time>2013-09-22T09:15:35Z</time>
      </trkpt>
      <trkpt lat="49.02771" lon="6.92518">
        <ele>224</ele>
        <time>2013-09-22T09:15:40Z</time>
      </trkpt>
      <trkpt lat="49.02775" lon="6.92524">
        <ele>224.4</ele>
        <time>2013-09-22T09:15:45Z</time>
      </trkpt>
      <trkpt lat="49.02779" lon="6.92529">
        <ele>225.1</ele>
        <time>2013-09-22T09:15:50Z</time>
      </trkpt>
      <trkpt lat="49.02782" lon="6.92535">
        <ele>224.9</ele>
        <time>2013-09-22T09:15:55Z</time>
      </trkpt>
      <trkpt lat="49.02786" lon="6.9254">
        <ele>225.5</ele>
        <time>2013-09-22T09:16:00Z</time>
      </trkpt>
      <trkpt lat="49.02789" lon="6.92547">
        <ele>226.3</ele>
        <time>2013-09-22T09:16:05Z</time>
      </trkpt>
      <trkpt lat="49.02793" lon="6.92554">
        <ele>226.1</ele>
        <time>2013-09-22T09:16:10Z</time>
      </trkpt>
      <trkpt lat="49.02796" lon="6.92562">
        <ele>227.9</ele>
        <time>2013-09-22T09:16:15Z</time>
      </trkpt>
      <trkpt lat="49.02799" lon="6.9257">
        <ele>227</ele>
        <time>2013-09-22T09:16:20Z</time>
      </trkpt>
      <trkpt lat="49.02803" lon="6.92577">
        <ele>227.3</ele>
        <time>2013-09-22T09:16:25Z</time>
      </trkpt>
      <trkpt lat="49.02805" lon="6.92583">
        <ele>227.8</ele>
        <time>2013-09-22T09:16:30Z</time>
      </trkpt>
      <trkpt lat="49.02808" lon="6.92591">
        <ele>227.7</ele>
        <time>2013-09-22T09:16:35Z</time>
      </trkpt>
      <trkpt lat="49.02811" lon="6.92599">
        <ele>227.5</ele>
        <time>2013-09-22T09:16:40Z</time>
      </trkpt>
      <trkpt lat="49.02813" lon="6.92607">
        <ele>228.4</ele>
        <time>2013-09-22T09:16:45Z</time>
      </trkpt>
      <trkpt lat="49.02816" lon="6.92615">
        <ele>228.1</ele>
        <time>2013-09-22T09:16:50Z</time>
      </trkpt>
      <trkpt lat="49.02818" lon="6.92622">
        <ele>227.9</ele>
        <time>2013-09-22T09:16:55Z</time>
      </trkpt>
      <trkpt lat="49.0282" lon="6.92629">
        <ele>228</ele>
        <time>2013-09-22T09:17:00Z</time>
      </trkpt>
      <trkpt lat="49.02823" lon="6.92636">
        <ele>228.7</ele>
        <time>2013-09-22T09:17:05Z</time>
      </trkpt>
      <trkpt lat="49.02825" lon="6.92642">
        <ele>227.9</ele>
        <time>2013-09-22T09:17:10Z</time>
      </trkpt>
      <trkpt lat="49.02826" lon="6.92646">
        <ele>227.4</ele>
        <time>2013-09-22T09:17:15Z</time>
      </trkpt>
      <trkpt lat="49.02827" lon="6.92649">
        <ele>228.7</ele>
        <time>2013-09-22T09:17:20Z</time>
      </trkpt>
      <trkpt lat="49.02828" lon="6.92649">
        <ele>227.7</ele>
        <time>2013-09-22T09:17:25Z</time>
      </trkpt>
      <trkpt lat="49.02829" lon="6.92649">
        <ele>228.4</ele>
        <time>2013-09-22T09:17:30Z</time>
      </trkpt>
      <trkpt lat="49.02829" lon="6.92649">
        <ele>229</ele>
        <time>2013-09-22T09:17:35Z</time>
      </trkpt>
      <trkpt lat="49.02828" lon="6.92649">
        <ele>228.4</ele>
        <time>2013-09-22T09:17:40Z</time>
      </trkpt>
      <trkpt lat="49.02827" lon="6.92649">
        <ele>228.6</ele>
        <time>2013-09-22T09:17:45Z</time>
      </trkpt>
      <trkpt lat="49.02825" lon="6.92645">
        <ele>228.4</ele>
        <time>2013-09-22T09:17:50Z</time>
      </trkpt>
      <trkpt lat="49.02826" lon="6.92642">
        <ele>227.6</ele>
        <time>2013-09-22T09:17:55Z</time>
      </trkpt>
      <trkpt lat="49.02826" lon="6.9264">
        <ele>228</ele>
        <time>2013-09-22T09:18:00Z</time>
      </trkpt>
      <trkpt lat="49.02828" lon="6.92638">
        <ele>228.7</ele>
        <time>2013-09-22T09:18:05Z</time>
      </trkpt>
      <trkpt lat="49.02828" lon="6.92637">
        <ele>228.5</ele>
        <time>2013-09-22T09:18:10Z</time>
      </trkpt>
      <trkpt lat="49.02828" lon="6.92636">
        <ele>228.1</ele>
        <time>2013-09-22T09:18:15Z</time>
      </trkpt>
      <trkpt lat="49.02829" lon="6.92635">
        <ele>228.9</ele>
        <time>2013-09-22T09:18:20Z</time>
      </trkpt>
      <trkpt lat="49.02829" lon="6.92636">
        <ele>229.1</ele>
        <time>2013-09-22T09:18:25Z</time>
      </trkpt>
      <trkpt lat="49.02829" lon="6.92636">
        <ele>228.3</ele>
        <time>2013-09-22T09:18:30Z</time>
      </trkpt>
      <trkpt lat="49.02831" lon="6.92635">
        <ele>228.1</ele>
        <time>2013-09-22T09:18:35Z</time>
      </trkpt>
      <trkpt lat="49.02833" lon="6.92633">
        <ele>228.2</ele>
        <time>2013-09-22T09:18:40Z</time>
      </trkpt>
      <trkpt lat="49.02834" lon="6.9263">
        <ele>226.6</ele>
        <time>2013-09-22T09:18:45Z</time>
      </trkpt>
      <trkpt lat="49.02838" lon="6.92627">
        <ele>226</ele>
        <time>2013-09-22T09:18:50Z</time>
      </trkpt>
      <trkpt lat="49.02841" lon="6.92624">
        <ele>226.3</ele>
        <time>2013-09-22T09:18:55Z</time>
      </trkpt>
      <trkpt lat="49.02843" lon="6.92621">
        <ele>226</ele>
        <time>2013-09-22T09:19:00Z</time>
      </trkpt>
      <trkpt lat="49.02845" lon="6.92619">
        <ele>226.8</ele>
        <time>2013-09-22T09:19:05Z</time>
      </trkpt>
      <trkpt lat="49.02848" lon="6.92616">
        <ele>226.2</ele>
        <time>2013-09-22T09:19:10Z</time>
      </trkpt>
      <trkpt lat="49.0285" lon="6.92613">
        <ele>225.4</ele>
        <time>2013-09-22T09:19:15Z</time>
      </trkpt>
      <trkpt lat="49.02852" lon="6.92609">
        <ele>226</ele>
        <time>2013-09-22T09:19:20Z</time>
      </trkpt>
      <trkpt lat="49.02856" lon="6.92605">
        <ele>226.1</ele>
        <time>2013-09-22T09:19:25Z</time>
      </trkpt>
      <trkpt lat="49.0286" lon="6.92601">
        <ele>225.4</ele>
        <time>2013-09-22T09:19:30Z</time>
      </trkpt>
      <trkpt lat="49.02863" lon="6.92598">
        <ele>224.7</ele>
        <time>2013-09-22T09:19:35Z</time>
      </trkpt>
      <trkpt lat="49.02866" lon="6.92595">
        <ele>223.9</ele>
        <time>2013-09-22T09:19:40Z</time>
      </trkpt>
      <trkpt lat="49.02868" lon="6.92592">
        <ele>223</ele>
        <time>2013-09-22T09:19:45Z</time>
      </trkpt>
      <trkpt lat="49.02871" lon="6.92588">
        <ele>223.4</ele>
        <time>2013-09-22T09:19:50Z</time>
      </trkpt>
      <trkpt lat="49.02876" lon="6.92584">
        <ele>222.7</ele>
        <time>2013-09-22T09:19:55Z</time>
      </trkpt>
      <trkpt lat="49.0288" lon="6.92581">
        <ele>222.6</ele>
        <time>2013-09-22T09:20:00Z</time>
      </trkpt>
      <trkpt lat="49.02884" lon="6.92578">
        <ele>224.1</ele>
        <time>2013-09-22T09:20:05Z</time>
      </trkpt>
      <trkpt lat="49.02888" lon="6.92575">
        <ele>223.4</ele>
        <time>2013-09-22T09:20:10Z</time>
      </trkpt>
      <trkpt lat="49.02889" lon="6.92573">
        <ele>223.2</ele>
        <time>2013-09-22T09:20:15Z</time>
      </trkpt>
      <trkpt lat="49.02892" lon="6.92572">
        <ele>222.5</ele>
        <time>2013-09-22T09:20:20Z</time>
      </trkpt>
      <trkpt lat="49.02895" lon="6.92569">
        <ele>221.8</ele>
        <time>2013-09-22T09:20:25Z</time>
      </trkpt>
      <trkpt lat="49.02897" lon="6.92567">
        <ele>220.7</ele>
        <time>2013-09-22T09:20:30Z</time>
      </trkpt>
      <trkpt lat="49.02899" lon="6.92566">
        <ele>221.6</ele>
        <time>2013-09-22T09:20:35Z</time>
      </trkpt>
      <trkpt lat="49.02901" lon="6.92565">
        <ele>220.9</ele>
        <time>2013-09-22T09:20:40Z</time>
      </trkpt>
      <trkpt lat="49.02902" lon="6.92564">
        <ele>221.1</ele>
        <time>2013-09-22T09:20:45Z</time>
      </trkpt>
      <trkpt lat="49.02903" lon="6.92567">
        <ele>221</ele>
        <time>2013-09-22T09:20:50Z</time>
      </trkpt>
      <trkpt lat="49.02905" lon="6.92569">
        <ele>221.5</ele>
        <time>2013-09-22T09:20:55Z</time>
      </trkpt>
      <trkpt lat="49.02905" lon="6.9257">
        <ele>222.3</ele>
        <time>2013-09-22T09:21:00Z</time>
      </trkpt>
      <trkpt lat="49.02906" lon="6.92572">
        <ele>221.5</ele>
        <time>2013-09-22T09:21:05Z</time>
      </trkpt>
      <trkpt lat="49.02906" lon="6.92572">
        <ele>221.1</ele>
        <time>2013-09-22T09:21:10Z</time>
      </trkpt>
      <trkpt lat="49.02908" lon="6.92575">
        <ele>221.1</ele>
        <time>2013-09-22T09:21:15Z</time>
      </trkpt>
      <trkpt lat="49.02908" lon="6.92577">
        <ele>220.6</ele>
        <time>2013-09-22T09:21:20Z</time>
      </trkpt>
      <trkpt lat="49.02909" lon="6.92578">
        <ele>221</ele>
        <time>2013-09-22T09:21:27Z</time>
      </trkpt>
      <trkpt lat="49.02911" lon="6.92577">
        <ele>220.8</ele>
        <time>2013-09-22T09:21:32Z</time>
      </trkpt>
      <trkpt lat="49.0291" lon="6.92577">
        <ele>221.4</ele>
        <time>2013-09-22T09:21:37Z</time>
      </trkpt>
      <trkpt lat="49.0291" lon="6.92576">
        <ele>221.1</ele>
        <time>2013-09-22T09:21:42Z</time>
      </trkpt>
      <trkpt lat="49.02909" lon="6.92575">
        <ele>220.7</ele>
        <time>2013-09-22T09:21:47Z</time>
      </trkpt>
      <trkpt lat="49.02908" lon="6.92574">
        <ele>221.2</ele>
        <time>2013-09-22T09:21:52Z</time>
      </trkpt>
      <trkpt lat="49.02906" lon="6.92573">
        <ele>221</ele>
        <time>2013-09-22T09:21:58Z</time>
      </trkpt>
      <trkpt lat="49.02905" lon="6.92572">
        <ele>221.3</ele>
        <time>2013-09-22T09:22:03Z</time>
      </trkpt>
      <trkpt lat="49.02904" lon="6.92571">
        <ele>221.1</ele>
        <time>2013-09-22T09:22:08Z</time>
      </trkpt>
      <trkpt lat="49.02904" lon="6.9257">
        <ele>222</ele>
        <time>2013-09-22T09:22:13Z</time>
      </trkpt>
      <trkpt lat="49.02904" lon="6.92569">
        <ele>222.2</ele>
        <time>2013-09-22T09:22:18Z</time>
      </trkpt>
      <trkpt lat="49.02903" lon="6.92568">
        <ele>221.6</ele>
        <time>2013-09-22T09:22:23Z</time>
      </trkpt>
      <trkpt lat="49.02903" lon="6.92567">
        <ele>221.8</ele>
        <time>2013-09-22T09:22:28Z</time>
      </trkpt>
      <trkpt lat="49.02903" lon="6.92567">
        <ele>222.2</ele>
        <time>2013-09-22T09:22:33Z</time>
      </trkpt>
      <trkpt lat="49.02903" lon="6.92566">
        <ele>221.7</ele>
        <time>2013-09-22T09:22:38Z</time>
      </trkpt>
      <trkpt lat="49.02904" lon="6.92566">
        <ele>221.8</ele>
        <time>2013-09-22T09:22:43Z</time>
      </trkpt>
      <trkpt lat="49.02903" lon="6.92566">
        <ele>222.3</ele>
        <time>2013-09-22T09:22:48Z</time>
      </trkpt>
      <trkpt lat="49.02903" lon="6.92566">
        <ele>222.3</ele>
        <time>2013-09-22T09:22:53Z</time>
      </trkpt>
      <trkpt lat="49.02902" lon="6.92566">
        <ele>221.8</ele>
        <time>2013-09-22T09:22:58Z</time>
      </trkpt>
      <trkpt lat="49.02904" lon="6.92565">
        <ele>222.2</ele>
        <time>2013-09-22T09:23:03Z</time>
      </trkpt>
      <trkpt lat="49.02905" lon="6.92564">
        <ele>221.7</ele>
        <time>2013-09-22T09:23:08Z</time>
      </trkpt>
      <trkpt lat="49.02904" lon="6.92563">
        <ele>221.9</ele>
        <time>2013-09-22T09:23:13Z</time>
      </trkpt>
      <trkpt lat="49.02901" lon="6.92561">
        <ele>222</ele>
        <time>2013-09-22T09:23:18Z</time>
      </trkpt>
      <trkpt lat="49.029" lon="6.92561">
        <ele>222.3</ele>
        <time>2013-09-22T09:23:23Z</time>
      </trkpt>
      <trkpt lat="49.02902" lon="6.92561">
        <ele>222.1</ele>
        <time>2013-09-22T09:23:28Z</time>
      </trkpt>
      <trkpt lat="49.02902" lon="6.92561">
        <ele>221.4</ele>
        <time>2013-09-22T09:23:33Z</time>
      </trkpt>
      <trkpt lat="49.02902" lon="6.92563">
        <ele>221.5</ele>
        <time>2013-09-22T09:23:38Z</time>
      </trkpt>
      <trkpt lat="49.02907" lon="6.92565">
        <ele>222.3</ele>
        <time>2013-09-22T09:23:43Z</time>
      </trkpt>
      <trkpt lat="49.02908" lon="6.92565">
        <ele>222.5</ele>
        <time>2013-09-22T09:23:48Z</time>
      </trkpt>
      <trkpt lat="49.02904" lon="6.92565">
        <ele>222.8</ele>
        <time>2013-09-22T09:23:53Z</time>
      </trkpt>
      <trkpt lat="49.02899" lon="6.92564">
        <ele>223.1</ele>
        <time>2013-09-22T09:23:58Z</time>
      </trkpt>
      <trkpt lat="49.02899" lon="6.92565">
        <ele>223.2</ele>
        <time>2013-09-22T09:24:03Z</time>
      </trkpt>
      <trkpt lat="49.02899" lon="6.92566">
        <ele>222.9</ele>
        <time>2013-09-22T09:24:08Z</time>
      </trkpt>
      <trkpt lat="49.02904" lon="6.92567">
        <ele>222.3</ele>
        <time>2013-09-22T09:24:13Z</time>
      </trkpt>
      <trkpt lat="49.02905" lon="6.92567">
        <ele>222.7</ele>
        <time>2013-09-22T09:24:18Z</time>
      </trkpt>
      <trkpt lat="49.02909" lon="6.92568">
        <ele>222.7</ele>
        <time>2013-09-22T09:24:23Z</time>
      </trkpt>
      <trkpt lat="49.02908" lon="6.92567">
        <ele>223.2</ele>
        <time>2013-09-22T09:24:28Z</time>
      </trkpt>
      <trkpt lat="49.02914" lon="6.92567">
        <ele>223</ele>
        <time>2013-09-22T09:24:53Z</time>
      </trkpt>
      <trkpt lat="49.02913" lon="6.92567">
        <ele>222.6</ele>
        <time>2013-09-22T09:25:02Z</time>
      </trkpt>
      <trkpt lat="49.02914" lon="6.92567">
        <ele>222.9</ele>
        <time>2013-09-22T09:25:07Z</time>
      </trkpt>
      <trkpt lat="49.02907" lon="6.92567">
        <ele>222</ele>
        <time>2013-09-22T09:25:24Z</time>
      </trkpt>
      <trkpt lat="49.02907" lon="6.92567">
        <ele>222.9</ele>
        <time>2013-09-22T09:25:29Z</time>
      </trkpt>
      <trkpt lat="49.02905" lon="6.92568">
        <ele>223.8</ele>
        <time>2013-09-22T09:25:34Z</time>
      </trkpt>
      <trkpt lat="49.02906" lon="6.92569">
        <ele>223.7</ele>
        <time>2013-09-22T09:25:39Z</time>
      </trkpt>
      <trkpt lat="49.02905" lon="6.9257">
        <ele>223.9</ele>
        <time>2013-09-22T09:25:44Z</time>
      </trkpt>
      <trkpt lat="49.02907" lon="6.9257">
        <ele>223.8</ele>
        <time>2013-09-22T09:25:49Z</time>
      </trkpt>
      <trkpt lat="49.02909" lon="6.9257">
        <ele>222.9</ele>
        <time>2013-09-22T09:25:54Z</time>
      </trkpt>
      <trkpt lat="49.02907" lon="6.9257">
        <ele>223.5</ele>
        <time>2013-09-22T09:25:59Z</time>
      </trkpt>
      <trkpt lat="49.02907" lon="6.9257">
        <ele>223</ele>
        <time>2013-09-22T09:26:04Z</time>
      </trkpt>
      <trkpt lat="49.02906" lon="6.9257">
        <ele>223.7</ele>
        <time>2013-09-22T09:26:09Z</time>
      </trkpt>
      <trkpt lat="49.02906" lon="6.9257">
        <ele>224</ele>
        <time>2013-09-22T09:26:14Z</time>
      </trkpt>
      <trkpt lat="49.02907" lon="6.92569">
        <ele>223.4</ele>
        <time>2013-09-22T09:26:19Z</time>
      </trkpt>
      <trkpt lat="49.02907" lon="6.92568">
        <ele>223</ele>
        <time>2013-09-22T09:26:39Z</time>
      </trkpt>
      <trkpt lat="49.02907" lon="6.92568">
        <ele>224</ele>
        <time>2013-09-22T09:26:45Z</time>
      </trkpt>
      <trkpt lat="49.02908" lon="6.92567">
        <ele>224.1</ele>
        <time>2013-09-22T09:26:50Z</time>
      </trkpt>
      <trkpt lat="49.02909" lon="6.92567">
        <ele>224</ele>
        <time>2013-09-22T09:26:55Z</time>
      </trkpt>
      <trkpt lat="49.0291" lon="6.92567">
        <ele>223.7</ele>
        <time>2013-09-22T09:27:00Z</time>
      </trkpt>
      <trkpt lat="49.0291" lon="6.92567">
        <ele>224.3</ele>
        <time>2013-09-22T09:27:05Z</time>
      </trkpt>
      <trkpt lat="49.0291" lon="6.92566">
        <ele>225.7</ele>
        <time>2013-09-22T09:27:10Z</time>
      </trkpt>
      <trkpt lat="49.02911" lon="6.92565">
        <ele>224.9</ele>
        <time>2013-09-22T09:27:15Z</time>
      </trkpt>
      <trkpt lat="49.02912" lon="6.92564">
        <ele>224.9</ele>
        <time>2013-09-22T09:27:20Z</time>
      </trkpt>
      <trkpt lat="49.02913" lon="6.92563">
        <ele>224.5</ele>
        <time>2013-09-22T09:27:25Z</time>
      </trkpt>
      <trkpt lat="49.02914" lon="6.92563">
        <ele>225.2</ele>
        <time>2013-09-22T09:27:30Z</time>
      </trkpt>
      <trkpt lat="49.02915" lon="6.92562">
        <ele>224.9</ele>
        <time>2013-09-22T09:27:35Z</time>
      </trkpt>
      <trkpt lat="49.02915" lon="6.92563">
        <ele>225.2</ele>
        <time>2013-09-22T09:27:40Z</time>
      </trkpt>
      <trkpt lat="49.02915" lon="6.92564">
        <ele>225.3</ele>
        <time>2013-09-22T09:27:45Z</time>
      </trkpt>
      <trkpt lat="49.02915" lon="6.92564">
        <ele>225</ele>
        <time>2013-09-22T09:27:50Z</time>
      </trkpt>
      <trkpt lat="49.02914" lon="6.92566">
        <ele>225.7</ele>
        <time>2013-09-22T09:27:55Z</time>
      </trkpt>
      <trkpt lat="49.02912" lon="6.92567">
        <ele>225.4</ele>
        <time>2013-09-22T09:28:00Z</time>
      </trkpt>
      <trkpt lat="49.0291" lon="6.92568">
        <ele>225.4</ele>
        <time>2013-09-22T09:28:05Z</time>
      </trkpt>
      <trkpt lat="49.02908" lon="6.92568">
        <ele>225.6</ele>
        <time>2013-09-22T09:28:10Z</time>
      </trkpt>
      <trkpt lat="49.02907" lon="6.92569">
        <ele>225</ele>
        <time>2013-09-22T09:28:15Z</time>
      </trkpt>
      <trkpt lat="49.02906" lon="6.92569">
        <ele>225.1</ele>
        <time>2013-09-22T09:28:20Z</time>
      </trkpt>
      <trkpt lat="49.02905" lon="6.9257">
        <ele>225.7</ele>
        <time>2013-09-22T09:28:25Z</time>
      </trkpt>
      <trkpt lat="49.02905" lon="6.9257">
        <ele>226</ele>
        <time>2013-09-22T09:28:30Z</time>
      </trkpt>
      <trkpt lat="49.02904" lon="6.92571">
        <ele>225.9</ele>
        <time>2013-09-22T09:28:35Z</time>
      </trkpt>
      <trkpt lat="49.02904" lon="6.92571">
        <ele>225.5</ele>
        <time>2013-09-22T09:28:40Z</time>
      </trkpt>
      <trkpt lat="49.02903" lon="6.92572">
        <ele>224.3</ele>
        <time>2013-09-22T09:28:45Z</time>
      </trkpt>
      <trkpt lat="49.02903" lon="6.92573">
        <ele>225.2</ele>
        <time>2013-09-22T09:28:50Z</time>
      </trkpt>
      <trkpt lat="49.02903" lon="6.92573">
        <ele>225.2</ele>
        <time>2013-09-22T09:28:55Z</time>
      </trkpt>
      <trkpt lat="49.02902" lon="6.92574">
        <ele>225.2</ele>
        <time>2013-09-22T09:29:00Z</time>
      </trkpt>
      <trkpt lat="49.02902" lon="6.92573">
        <ele>225.8</ele>
        <time>2013-09-22T09:29:05Z</time>
      </trkpt>
      <trkpt lat="49.02902" lon="6.92573">
        <ele>226.3</ele>
        <time>2013-09-22T09:29:10Z</time>
      </trkpt>
      <trkpt lat="49.02902" lon="6.92573">
        <ele>225.6</ele>
        <time>2013-09-22T09:29:15Z</time>
      </trkpt>
      <trkpt lat="49.02902" lon="6.92573">
        <ele>226.1</ele>
        <time>2013-09-22T09:29:20Z</time>
      </trkpt>
      <trkpt lat="49.02902" lon="6.92573">
        <ele>226.5</ele>
        <time>2013-09-22T09:29:25Z</time>
      </trkpt>
      <trkpt lat="49.02902" lon="6.92573">
        <ele>225.8</ele>
        <time>2013-09-22T09:29:30Z</time>
      </trkpt>
      <trkpt lat="49.02902" lon="6.92573">
        <ele>225.7</ele>
        <time>2013-09-22T09:29:35Z</time>
      </trkpt>
      <trkpt lat="49.02902" lon="6.92573">
        <ele>226.1</ele>
        <time>2013-09-22T09:29:40Z</time>
      </trkpt>
      <trkpt lat="49.02902" lon="6.92573">
        <ele>226</ele>
        <time>2013-09-22T09:29:45Z</time>
      </trkpt>
      <trkpt lat="49.02902" lon="6.92572">
        <ele>226.4</ele>
        <time>2013-09-22T09:29:50Z</time>
      </trkpt>
      <trkpt lat="49.02902" lon="6.92572">
        <ele>226.2</ele>
        <time>2013-09-22T09:29:55Z</time>
      </trkpt>
      <trkpt lat="49.02902" lon="6.92572">
        <ele>225.5</ele>
        <time>2013-09-22T09:30:00Z</time>
      </trkpt>
      <trkpt lat="49.02902" lon="6.92573">
        <ele>226.1</ele>
        <time>2013-09-22T09:30:05Z</time>
      </trkpt>
      <trkpt lat="49.02902" lon="6.92572">
        <ele>225.1</ele>
        <time>2013-09-22T09:30:10Z</time>
      </trkpt>
      <trkpt lat="49.02901" lon="6.92572">
        <ele>226.4</ele>
        <time>2013-09-22T09:30:15Z</time>
      </trkpt>
      <trkpt lat="49.02901" lon="6.9257">
        <ele>225.2</ele>
        <time>2013-09-22T09:30:20Z</time>
      </trkpt>
      <trkpt lat="49.02901" lon="6.92569">
        <ele>226.3</ele>
        <time>2013-09-22T09:30:25Z</time>
      </trkpt>
      <trkpt lat="49.02901" lon="6.92567">
        <ele>227.9</ele>
        <time>2013-09-22T09:30:30Z</time>
      </trkpt>
      <trkpt lat="49.02901" lon="6.92567">
        <ele>227.4</ele>
        <time>2013-09-22T09:30:35Z</time>
      </trkpt>
      <trkpt lat="49.029" lon="6.92566">
        <ele>226.9</ele>
        <time>2013-09-22T09:30:40Z</time>
      </trkpt>
      <trkpt lat="49.029" lon="6.92566">
        <ele>227.3</ele>
        <time>2013-09-22T09:30:45Z</time>
      </trkpt>
      <trkpt lat="49.029" lon="6.92566">
        <ele>228</ele>
        <time>2013-09-22T09:30:50Z</time>
      </trkpt>
      <trkpt lat="49.029" lon="6.92566">
        <ele>227.5</ele>
        <time>2013-09-22T09:30:55Z</time>
      </trkpt>
      <trkpt lat="49.02899" lon="6.92566">
        <ele>227.3</ele>
        <time>2013-09-22T09:31:00Z</time>
      </trkpt>
      <trkpt lat="49.02898" lon="6.92566">
        <ele>227.1</ele>
        <time>2013-09-22T09:31:05Z</time>
      </trkpt>
      <trkpt lat="49.02897" lon="6.92566">
        <ele>226.7</ele>
        <time>2013-09-22T09:31:10Z</time>
      </trkpt>
      <trkpt lat="49.02896" lon="6.92566">
        <ele>227.3</ele>
        <time>2013-09-22T09:31:15Z</time>
      </trkpt>
      <trkpt lat="49.02897" lon="6.92566">
        <ele>227.6</ele>
        <time>2013-09-22T09:31:20Z</time>
      </trkpt>
      <trkpt lat="49.02897" lon="6.92566">
        <ele>228</ele>
        <time>2013-09-22T09:31:25Z</time>
      </trkpt>
      <trkpt lat="49.02898" lon="6.92566">
        <ele>227.4</ele>
        <time>2013-09-22T09:31:30Z</time>
      </trkpt>
      <trkpt lat="49.02898" lon="6.92566">
        <ele>227.4</ele>
        <time>2013-09-22T09:31:35Z</time>
      </trkpt>
      <trkpt lat="49.02899" lon="6.92567">
        <ele>227</ele>
        <time>2013-09-22T09:31:40Z</time>
      </trkpt>
      <trkpt lat="49.029" lon="6.92567">
        <ele>227.2</ele>
        <time>2013-09-22T09:31:45Z</time>
      </trkpt>
      <trkpt lat="49.029" lon="6.92567">
        <ele>227.2</ele>
        <time>2013-09-22T09:31:50Z</time>
      </trkpt>
      <trkpt lat="49.029" lon="6.92568">
        <ele>227</ele>
        <time>2013-09-22T09:31:55Z</time>
      </trkpt>
      <trkpt lat="49.029" lon="6.92568">
        <ele>227.9</ele>
        <time>2013-09-22T09:32:00Z</time>
      </trkpt>
      <trkpt lat="49.02901" lon="6.92568">
        <ele>227.2</ele>
        <time>2013-09-22T09:32:05Z</time>
      </trkpt>
      <trkpt lat="49.02901" lon="6.92569">
        <ele>227.8</ele>
        <time>2013-09-22T09:32:10Z</time>
      </trkpt>
      <trkpt lat="49.02901" lon="6.92569">
        <ele>227.6</ele>
        <time>2013-09-22T09:32:15Z</time>
      </trkpt>
      <trkpt lat="49.02901" lon="6.92568">
        <ele>227.5</ele>
        <time>2013-09-22T09:32:20Z</time>
      </trkpt>
      <trkpt lat="49.02901" lon="6.92568">
        <ele>227.8</ele>
        <time>2013-09-22T09:32:25Z</time>
      </trkpt>
      <trkpt lat="49.02901" lon="6.92568">
        <ele>228.2</ele>
        <time>2013-09-22T09:32:30Z</time>
      </trkpt>
      <trkpt lat="49.02901" lon="6.92568">
        <ele>227.8</ele>
        <time>2013-09-22T09:32:35Z</time>
      </trkpt>
      <trkpt lat="49.02901" lon="6.92567">
        <ele>227.9</ele>
        <time>2013-09-22T09:32:40Z</time>
      </trkpt>
      <trkpt lat="49.02901" lon="6.92567">
        <ele>228.1</ele>
        <time>2013-09-22T09:32:45Z</time>
      </trkpt>
      <trkpt lat="49.02901" lon="6.92566">
        <ele>228</ele>
        <time>2013-09-22T09:32:50Z</time>
      </trkpt>
      <trkpt lat="49.02901" lon="6.92566">
        <ele>228.7</ele>
        <time>2013-09-22T09:32:55Z</time>
      </trkpt>
      <trkpt lat="49.02901" lon="6.92566">
        <ele>228.5</ele>
        <time>2013-09-22T09:33:00Z</time>
      </trkpt>
      <trkpt lat="49.02901" lon="6.92566">
        <ele>228.5</ele>
        <time>2013-09-22T09:33:05Z</time>
      </trkpt>
      <trkpt lat="49.02901" lon="6.92566">
        <ele>228.8</ele>
        <time>2013-09-22T09:33:10Z</time>
      </trkpt>
      <trkpt lat="49.02901" lon="6.92566">
        <ele>228.7</ele>
        <time>2013-09-22T09:33:15Z</time>
      </trkpt>
      <trkpt lat="49.029" lon="6.92567">
        <ele>228.8</ele>
        <time>2013-09-22T09:33:20Z</time>
      </trkpt>
      <trkpt lat="49.029" lon="6.92567">
        <ele>229</ele>
        <time>2013-09-22T09:33:25Z</time>
      </trkpt>
      <trkpt lat="49.02899" lon="6.92567">
        <ele>229.5</ele>
        <time>2013-09-22T09:33:30Z</time>
      </trkpt>
      <trkpt lat="49.02899" lon="6.92567">
        <ele>228.9</ele>
        <time>2013-09-22T09:33:35Z</time>
      </trkpt>
      <trkpt lat="49.02899" lon="6.92567">
        <ele>229</ele>
        <time>2013-09-22T09:33:40Z</time>
      </trkpt>
      <trkpt lat="49.02899" lon="6.92567">
        <ele>229.2</ele>
        <time>2013-09-22T09:33:45Z</time>
      </trkpt>
      <trkpt lat="49.02899" lon="6.92568">
        <ele>229.1</ele>
        <time>2013-09-22T09:33:50Z</time>
      </trkpt>
      <trkpt lat="49.02898" lon="6.92568">
        <ele>228.5</ele>
        <time>2013-09-22T09:33:55Z</time>
      </trkpt>
      <trkpt lat="49.02898" lon="6.92568">
        <ele>228.5</ele>
        <time>2013-09-22T09:34:00Z</time>
      </trkpt>
      <trkpt lat="49.02899" lon="6.92568">
        <ele>229.4</ele>
        <time>2013-09-22T09:34:05Z</time>
      </trkpt>
      <trkpt lat="49.029" lon="6.92568">
        <ele>229</ele>
        <time>2013-09-22T09:34:10Z</time>
      </trkpt>
      <trkpt lat="49.029" lon="6.92569">
        <ele>228.9</ele>
        <time>2013-09-22T09:34:15Z</time>
      </trkpt>
      <trkpt lat="49.029" lon="6.92569">
        <ele>228.7</ele>
        <time>2013-09-22T09:34:20Z</time>
      </trkpt>
      <trkpt lat="49.02901" lon="6.9257">
        <ele>229.4</ele>
        <time>2013-09-22T09:34:25Z</time>
      </trkpt>
      <trkpt lat="49.02901" lon="6.92572">
        <ele>229.6</ele>
        <time>2013-09-22T09:34:30Z</time>
      </trkpt>
      <trkpt lat="49.02902" lon="6.92573">
        <ele>229.4</ele>
        <time>2013-09-22T09:34:35Z</time>
      </trkpt>
      <trkpt lat="49.02902" lon="6.92573">
        <ele>229.1</ele>
        <time>2013-09-22T09:34:40Z</time>
      </trkpt>
      <trkpt lat="49.02902" lon="6.92574">
        <ele>229.2</ele>
        <time>2013-09-22T09:34:45Z</time>
      </trkpt>
      <trkpt lat="49.02902" lon="6.92574">
        <ele>229.1</ele>
        <time>2013-09-22T09:34:50Z</time>
      </trkpt>
      <trkpt lat="49.02903" lon="6.92574">
        <ele>229.2</ele>
        <time>2013-09-22T09:34:55Z</time>
      </trkpt>
      <trkpt lat="49.02902" lon="6.92574">
        <ele>229.8</ele>
        <time>2013-09-22T09:35:00Z</time>
      </trkpt>
      <trkpt lat="49.02901" lon="6.92575">
        <ele>229.3</ele>
        <time>2013-09-22T09:35:05Z</time>
      </trkpt>
      <trkpt lat="49.02901" lon="6.92575">
        <ele>229.7</ele>
        <time>2013-09-22T09:35:10Z</time>
      </trkpt>
      <trkpt lat="49.029" lon="6.92573">
        <ele>229.5</ele>
        <time>2013-09-22T09:35:15Z</time>
      </trkpt>
      <trkpt lat="49.029" lon="6.92572">
        <ele>230</ele>
        <time>2013-09-22T09:35:20Z</time>
      </trkpt>
      <trkpt lat="49.029" lon="6.92572">
        <ele>229.9</ele>
        <time>2013-09-22T09:35:25Z</time>
      </trkpt>
      <trkpt lat="49.02902" lon="6.92572">
        <ele>229.7</ele>
        <time>2013-09-22T09:35:30Z</time>
      </trkpt>
      <trkpt lat="49.02902" lon="6.92572">
        <ele>229.8</ele>
        <time>2013-09-22T09:35:35Z</time>
      </trkpt>
      <trkpt lat="49.02901" lon="6.92572">
        <ele>229.9</ele>
        <time>2013-09-22T09:35:40Z</time>
      </trkpt>
      <trkpt lat="49.02901" lon="6.92572">
        <ele>230</ele>
        <time>2013-09-22T09:35:45Z</time>
      </trkpt>
      <trkpt lat="49.02901" lon="6.92572">
        <ele>231.8</ele>
        <time>2013-09-22T09:35:50Z</time>
      </trkpt>
      <trkpt lat="49.02901" lon="6.92573">
        <ele>230.4</ele>
        <time>2013-09-22T09:35:55Z</time>
      </trkpt>
      <trkpt lat="49.02902" lon="6.92574">
        <ele>230.3</ele>
        <time>2013-09-22T09:36:00Z</time>
      </trkpt>
      <trkpt lat="49.02902" lon="6.92575">
        <ele>230.3</ele>
        <time>2013-09-22T09:36:05Z</time>
      </trkpt>
      <trkpt lat="49.02902" lon="6.92575">
        <ele>230.2</ele>
        <time>2013-09-22T09:36:10Z</time>
      </trkpt>
      <trkpt lat="49.02902" lon="6.92576">
        <ele>229.4</ele>
        <time>2013-09-22T09:36:15Z</time>
      </trkpt>
      <trkpt lat="49.02902" lon="6.92576">
        <ele>230.1</ele>
        <time>2013-09-22T09:36:20Z</time>
      </trkpt>
      <trkpt lat="49.02902" lon="6.92575">
        <ele>230.8</ele>
        <time>2013-09-22T09:36:25Z</time>
      </trkpt>
      <trkpt lat="49.02902" lon="6.92575">
        <ele>229.9</ele>
        <time>2013-09-22T09:36:30Z</time>
      </trkpt>
      <trkpt lat="49.02902" lon="6.92575">
        <ele>229.2</ele>
        <time>2013-09-22T09:36:35Z</time>
      </trkpt>
      <trkpt lat="49.02902" lon="6.92576">
        <ele>230.4</ele>
        <time>2013-09-22T09:36:40Z</time>
      </trkpt>
      <trkpt lat="49.02903" lon="6.92576">
        <ele>230.4</ele>
        <time>2013-09-22T09:36:45Z</time>
      </trkpt>
      <trkpt lat="49.02903" lon="6.92577">
        <ele>230.3</ele>
        <time>2013-09-22T09:36:50Z</time>
      </trkpt>
      <trkpt lat="49.02903" lon="6.92577">
        <ele>230.1</ele>
        <time>2013-09-22T09:36:55Z</time>
      </trkpt>
      <trkpt lat="49.02903" lon="6.92576">
        <ele>229.6</ele>
        <time>2013-09-22T09:37:00Z</time>
      </trkpt>
      <trkpt lat="49.02902" lon="6.92575">
        <ele>230.5</ele>
        <time>2013-09-22T09:37:05Z</time>
      </trkpt>
      <trkpt lat="49.02902" lon="6.92575">
        <ele>230.7</ele>
        <time>2013-09-22T09:37:10Z</time>
      </trkpt>
      <trkpt lat="49.02902" lon="6.92576">
        <ele>231.5</ele>
        <time>2013-09-22T09:37:15Z</time>
      </trkpt>
      <trkpt lat="49.02902" lon="6.92575">
        <ele>231.6</ele>
        <time>2013-09-22T09:37:20Z</time>
      </trkpt>
      <trkpt lat="49.02903" lon="6.92576">
        <ele>230.5</ele>
        <time>2013-09-22T09:37:25Z</time>
      </trkpt>
      <trkpt lat="49.02906" lon="6.92583">
        <ele>231</ele>
        <time>2013-09-22T09:37:30Z</time>
      </trkpt>
      <trkpt lat="49.02911" lon="6.92591">
        <ele>231.3</ele>
        <time>2013-09-22T09:37:35Z</time>
      </trkpt>
      <trkpt lat="49.02915" lon="6.92598">
        <ele>231.4</ele>
        <time>2013-09-22T09:37:40Z</time>
      </trkpt>
      <trkpt lat="49.02919" lon="6.92605">
        <ele>231.4</ele>
        <time>2013-09-22T09:37:45Z</time>
      </trkpt>
      <trkpt lat="49.02922" lon="6.9261">
        <ele>231.1</ele>
        <time>2013-09-22T09:37:50Z</time>
      </trkpt>
      <trkpt lat="49.02927" lon="6.92614">
        <ele>231.4</ele>
        <time>2013-09-22T09:37:55Z</time>
      </trkpt>
      <trkpt lat="49.02932" lon="6.9262">
        <ele>231.9</ele>
        <time>2013-09-22T09:38:00Z</time>
      </trkpt>
      <trkpt lat="49.02938" lon="6.92627">
        <ele>231.8</ele>
        <time>2013-09-22T09:38:05Z</time>
      </trkpt>
      <trkpt lat="49.02942" lon="6.92634">
        <ele>231</ele>
        <time>2013-09-22T09:38:10Z</time>
      </trkpt>
      <trkpt lat="49.02946" lon="6.92639">
        <ele>231.4</ele>
        <time>2013-09-22T09:38:15Z</time>
      </trkpt>
      <trkpt lat="49.0295" lon="6.92646">
        <ele>231.1</ele>
        <time>2013-09-22T09:38:20Z</time>
      </trkpt>
      <trkpt lat="49.02954" lon="6.92654">
        <ele>231.2</ele>
        <time>2013-09-22T09:38:25Z</time>
      </trkpt>
      <trkpt lat="49.02957" lon="6.92662">
        <ele>231.6</ele>
        <time>2013-09-22T09:38:30Z</time>
      </trkpt>
      <trkpt lat="49.0296" lon="6.9267">
        <ele>232</ele>
        <time>2013-09-22T09:38:35Z</time>
      </trkpt>
      <trkpt lat="49.02963" lon="6.92676">
        <ele>231.3</ele>
        <time>2013-09-22T09:38:40Z</time>
      </trkpt>
      <trkpt lat="49.02967" lon="6.92684">
        <ele>231</ele>
        <time>2013-09-22T09:38:45Z</time>
      </trkpt>
      <trkpt lat="49.02971" lon="6.92692">
        <ele>231.3</ele>
        <time>2013-09-22T09:38:50Z</time>
      </trkpt>
      <trkpt lat="49.02975" lon="6.92698">
        <ele>232.4</ele>
        <time>2013-09-22T09:38:55Z</time>
      </trkpt>
      <trkpt lat="49.02979" lon="6.92706">
        <ele>230.9</ele>
        <time>2013-09-22T09:39:00Z</time>
      </trkpt>
      <trkpt lat="49.02983" lon="6.92714">
        <ele>231.3</ele>
        <time>2013-09-22T09:39:05Z</time>
      </trkpt>
      <trkpt lat="49.02987" lon="6.92721">
        <ele>231.5</ele>
        <time>2013-09-22T09:39:10Z</time>
      </trkpt>
      <trkpt lat="49.02991" lon="6.92727">
        <ele>231.4</ele>
        <time>2013-09-22T09:39:15Z</time>
      </trkpt>
      <trkpt lat="49.02994" lon="6.92735">
        <ele>231.5</ele>
        <time>2013-09-22T09:39:20Z</time>
      </trkpt>
      <trkpt lat="49.02999" lon="6.92746">
        <ele>231.9</ele>
        <time>2013-09-22T09:39:25Z</time>
      </trkpt>
      <trkpt lat="49.03002" lon="6.92756">
        <ele>231.9</ele>
        <time>2013-09-22T09:39:30Z</time>
      </trkpt>
      <trkpt lat="49.03006" lon="6.92766">
        <ele>231.9</ele>
        <time>2013-09-22T09:39:35Z</time>
      </trkpt>
      <trkpt lat="49.0301" lon="6.92774">
        <ele>232.4</ele>
        <time>2013-09-22T09:39:40Z</time>
      </trkpt>
      <trkpt lat="49.03012" lon="6.92783">
        <ele>232.5</ele>
        <time>2013-09-22T09:39:45Z</time>
      </trkpt>
      <trkpt lat="49.03014" lon="6.92786">
        <ele>231.9</ele>
        <time>2013-09-22T09:39:50Z</time>
      </trkpt>
      <trkpt lat="49.03017" lon="6.92795">
        <ele>232.6</ele>
        <time>2013-09-22T09:39:55Z</time>
      </trkpt>
      <trkpt lat="49.0302" lon="6.92806">
        <ele>232.8</ele>
        <time>2013-09-22T09:40:00Z</time>
      </trkpt>
      <trkpt lat="49.03024" lon="6.92817">
        <ele>232.7</ele>
        <time>2013-09-22T09:40:05Z</time>
      </trkpt>
      <trkpt lat="49.03026" lon="6.92827">
        <ele>232.2</ele>
        <time>2013-09-22T09:40:10Z</time>
      </trkpt>
      <trkpt lat="49.03027" lon="6.92836">
        <ele>232.3</ele>
        <time>2013-09-22T09:40:15Z</time>
      </trkpt>
      <trkpt lat="49.03028" lon="6.92844">
        <ele>232.8</ele>
        <time>2013-09-22T09:40:20Z</time>
      </trkpt>
      <trkpt lat="49.0303" lon="6.9285">
        <ele>233.7</ele>
        <time>2013-09-22T09:40:25Z</time>
      </trkpt>
      <trkpt lat="49.03033" lon="6.92851">
        <ele>233</ele>
        <time>2013-09-22T09:40:30Z</time>
      </trkpt>
      <trkpt lat="49.03037" lon="6.92849">
        <ele>233.9</ele>
        <time>2013-09-22T09:40:35Z</time>
      </trkpt>
      <trkpt lat="49.03041" lon="6.92846">
        <ele>234.4</ele>
        <time>2013-09-22T09:40:40Z</time>
      </trkpt>
      <trkpt lat="49.03046" lon="6.92844">
        <ele>233.7</ele>
        <time>2013-09-22T09:40:45Z</time>
      </trkpt>
      <trkpt lat="49.03052" lon="6.9284">
        <ele>233.8</ele>
        <time>2013-09-22T09:40:50Z</time>
      </trkpt>
      <trkpt lat="49.03058" lon="6.92836">
        <ele>234.2</ele>
        <time>2013-09-22T09:40:55Z</time>
      </trkpt>
      <trkpt lat="49.03063" lon="6.92832">
        <ele>233.3</ele>
        <time>2013-09-22T09:41:00Z</time>
      </trkpt>
      <trkpt lat="49.03069" lon="6.92828">
        <ele>233.5</ele>
        <time>2013-09-22T09:41:05Z</time>
      </trkpt>
      <trkpt lat="49.03075" lon="6.92823">
        <ele>234.4</ele>
        <time>2013-09-22T09:41:10Z</time>
      </trkpt>
      <trkpt lat="49.03079" lon="6.92819">
        <ele>234.9</ele>
        <time>2013-09-22T09:41:15Z</time>
      </trkpt>
      <trkpt lat="49.03084" lon="6.92815">
        <ele>233.6</ele>
        <time>2013-09-22T09:41:20Z</time>
      </trkpt>
      <trkpt lat="49.03089" lon="6.92811">
        <ele>234</ele>
        <time>2013-09-22T09:41:25Z</time>
      </trkpt>
      <trkpt lat="49.03091" lon="6.9281">
        <ele>234</ele>
        <time>2013-09-22T09:41:30Z</time>
      </trkpt>
      <trkpt lat="49.03094" lon="6.92807">
        <ele>234.4</ele>
        <time>2013-09-22T09:41:35Z</time>
      </trkpt>
      <trkpt lat="49.03098" lon="6.92805">
        <ele>234.5</ele>
        <time>2013-09-22T09:41:40Z</time>
      </trkpt>
      <trkpt lat="49.03101" lon="6.92803">
        <ele>235</ele>
        <time>2013-09-22T09:41:45Z</time>
      </trkpt>
      <trkpt lat="49.03102" lon="6.92803">
        <ele>233.9</ele>
        <time>2013-09-22T09:41:50Z</time>
      </trkpt>
      <trkpt lat="49.03103" lon="6.92803">
        <ele>234.1</ele>
        <time>2013-09-22T09:41:55Z</time>
      </trkpt>
      <trkpt lat="49.03104" lon="6.92805">
        <ele>233.8</ele>
        <time>2013-09-22T09:42:00Z</time>
      </trkpt>
      <trkpt lat="49.03104" lon="6.92806">
        <ele>234.8</ele>
        <time>2013-09-22T09:42:05Z</time>
      </trkpt>
      <trkpt lat="49.03105" lon="6.92807">
        <ele>235.3</ele>
        <time>2013-09-22T09:42:10Z</time>
      </trkpt>
      <trkpt lat="49.03106" lon="6.92808">
        <ele>234.8</ele>
        <time>2013-09-22T09:42:15Z</time>
      </trkpt>
      <trkpt lat="49.03107" lon="6.92809">
        <ele>234.8</ele>
        <time>2013-09-22T09:42:20Z</time>
      </trkpt>
      <trkpt lat="49.03107" lon="6.92809">
        <ele>234.7</ele>
        <time>2013-09-22T09:42:25Z</time>
      </trkpt>
      <trkpt lat="49.03107" lon="6.9281">
        <ele>234.5</ele>
        <time>2013-09-22T09:42:30Z</time>
      </trkpt>
      <trkpt lat="49.03105" lon="6.9281">
        <ele>234.8</ele>
        <time>2013-09-22T09:42:35Z</time>
      </trkpt>
      <trkpt lat="49.03102" lon="6.92811">
        <ele>234.8</ele>
        <time>2013-09-22T09:42:40Z</time>
      </trkpt>
      <trkpt lat="49.03097" lon="6.92813">
        <ele>235.6</ele>
        <time>2013-09-22T09:42:45Z</time>
      </trkpt>
      <trkpt lat="49.03094" lon="6.92813">
        <ele>235.4</ele>
        <time>2013-09-22T09:42:50Z</time>
      </trkpt>
      <trkpt lat="49.03092" lon="6.92812">
        <ele>235</ele>
        <time>2013-09-22T09:42:55Z</time>
      </trkpt>
      <trkpt lat="49.0309" lon="6.92812">
        <ele>235.1</ele>
        <time>2013-09-22T09:43:00Z</time>
      </trkpt>
      <trkpt lat="49.03086" lon="6.92815">
        <ele>235.9</ele>
        <time>2013-09-22T09:43:05Z</time>
      </trkpt>
      <trkpt lat="49.0308" lon="6.92817">
        <ele>235.8</ele>
        <time>2013-09-22T09:43:10Z</time>
      </trkpt>
      <trkpt lat="49.03075" lon="6.9282">
        <ele>235.7</ele>
        <time>2013-09-22T09:43:15Z</time>
      </trkpt>
      <trkpt lat="49.03072" lon="6.92822">
        <ele>235.7</ele>
        <time>2013-09-22T09:43:20Z</time>
      </trkpt>
      <trkpt lat="49.03069" lon="6.92823">
        <ele>235.8</ele>
        <time>2013-09-22T09:43:25Z</time>
      </trkpt>
      <trkpt lat="49.03066" lon="6.92825">
        <ele>235.7</ele>
        <time>2013-09-22T09:43:30Z</time>
      </trkpt>
      <trkpt lat="49.03062" lon="6.92827">
        <ele>236.3</ele>
        <time>2013-09-22T09:43:35Z</time>
      </trkpt>
      <trkpt lat="49.03058" lon="6.92829">
        <ele>235.9</ele>
        <time>2013-09-22T09:43:40Z</time>
      </trkpt>
      <trkpt lat="49.03055" lon="6.92832">
        <ele>235.7</ele>
        <time>2013-09-22T09:43:45Z</time>
      </trkpt>
      <trkpt lat="49.03051" lon="6.92835">
        <ele>235.4</ele>
        <time>2013-09-22T09:43:50Z</time>
      </trkpt>
      <trkpt lat="49.03047" lon="6.92836">
        <ele>236.6</ele>
        <time>2013-09-22T09:43:55Z</time>
      </trkpt>
      <trkpt lat="49.03044" lon="6.92835">
        <ele>236.3</ele>
        <time>2013-09-22T09:44:00Z</time>
      </trkpt>
      <trkpt lat="49.03041" lon="6.92832">
        <ele>236.7</ele>
        <time>2013-09-22T09:44:05Z</time>
      </trkpt>
      <trkpt lat="49.03037" lon="6.92827">
        <ele>235.7</ele>
        <time>2013-09-22T09:44:10Z</time>
      </trkpt>
      <trkpt lat="49.03032" lon="6.92821">
        <ele>235.5</ele>
        <time>2013-09-22T09:44:15Z</time>
      </trkpt>
      <trkpt lat="49.03029" lon="6.92814">
        <ele>235.4</ele>
        <time>2013-09-22T09:44:20Z</time>
      </trkpt>
      <trkpt lat="49.03026" lon="6.92806">
        <ele>236.3</ele>
        <time>2013-09-22T09:44:25Z</time>
      </trkpt>
      <trkpt lat="49.03024" lon="6.92799">
        <ele>236</ele>
        <time>2013-09-22T09:44:30Z</time>
      </trkpt>
      <trkpt lat="49.03022" lon="6.92793">
        <ele>236.1</ele>
        <time>2013-09-22T09:44:35Z</time>
      </trkpt>
      <trkpt lat="49.0302" lon="6.92786">
        <ele>236</ele>
        <time>2013-09-22T09:44:40Z</time>
      </trkpt>
      <trkpt lat="49.03018" lon="6.9278">
        <ele>236.2</ele>
        <time>2013-09-22T09:44:45Z</time>
      </trkpt>
      <trkpt lat="49.03016" lon="6.92774">
        <ele>236.1</ele>
        <time>2013-09-22T09:44:50Z</time>
      </trkpt>
      <trkpt lat="49.03013" lon="6.92766">
        <ele>235.6</ele>
        <time>2013-09-22T09:44:55Z</time>
      </trkpt>
      <trkpt lat="49.0301" lon="6.9276">
        <ele>236.6</ele>
        <time>2013-09-22T09:45:00Z</time>
      </trkpt>
      <trkpt lat="49.03006" lon="6.92753">
        <ele>236.7</ele>
        <time>2013-09-22T09:45:05Z</time>
      </trkpt>
      <trkpt lat="49.03004" lon="6.92748">
        <ele>236</ele>
        <time>2013-09-22T09:45:10Z</time>
      </trkpt>
      <trkpt lat="49.03" lon="6.92741">
        <ele>236.3</ele>
        <time>2013-09-22T09:45:15Z</time>
      </trkpt>
      <trkpt lat="49.02997" lon="6.92735">
        <ele>236.9</ele>
        <time>2013-09-22T09:45:20Z</time>
      </trkpt>
      <trkpt lat="49.02994" lon="6.92729">
        <ele>236.8</ele>
        <time>2013-09-22T09:45:25Z</time>
      </trkpt>
      <trkpt lat="49.02991" lon="6.92723">
        <ele>236.3</ele>
        <time>2013-09-22T09:45:30Z</time>
      </trkpt>
      <trkpt lat="49.02988" lon="6.92717">
        <ele>236.6</ele>
        <time>2013-09-22T09:45:35Z</time>
      </trkpt>
      <trkpt lat="49.02984" lon="6.9271">
        <ele>235.9</ele>
        <time>2013-09-22T09:45:40Z</time>
      </trkpt>
      <trkpt lat="49.02981" lon="6.92704">
        <ele>235.5</ele>
        <time>2013-09-22T09:45:45Z</time>
      </trkpt>
      <trkpt lat="49.02978" lon="6.92699">
        <ele>235.7</ele>
        <time>2013-09-22T09:45:50Z</time>
      </trkpt>
      <trkpt lat="49.02975" lon="6.92693">
        <ele>235.3</ele>
        <time>2013-09-22T09:45:55Z</time>
      </trkpt>
      <trkpt lat="49.02971" lon="6.92687">
        <ele>236.7</ele>
        <time>2013-09-22T09:46:00Z</time>
      </trkpt>
      <trkpt lat="49.02966" lon="6.9268">
        <ele>236.9</ele>
        <time>2013-09-22T09:46:05Z</time>
      </trkpt>
      <trkpt lat="49.02962" lon="6.92674">
        <ele>236.4</ele>
        <time>2013-09-22T09:46:10Z</time>
      </trkpt>
      <trkpt lat="49.02958" lon="6.92667">
        <ele>237.7</ele>
        <time>2013-09-22T09:46:15Z</time>
      </trkpt>
      <trkpt lat="49.02953" lon="6.9266">
        <ele>237</ele>
        <time>2013-09-22T09:46:20Z</time>
      </trkpt>
      <trkpt lat="49.02949" lon="6.92654">
        <ele>237.3</ele>
        <time>2013-09-22T09:46:25Z</time>
      </trkpt>
      <trkpt lat="49.02945" lon="6.9265">
        <ele>237.2</ele>
        <time>2013-09-22T09:46:30Z</time>
      </trkpt>
      <trkpt lat="49.02943" lon="6.92645">
        <ele>237.7</ele>
        <time>2013-09-22T09:46:35Z</time>
      </trkpt>
      <trkpt lat="49.0294" lon="6.92641">
        <ele>237.4</ele>
        <time>2013-09-22T09:46:40Z</time>
      </trkpt>
      <trkpt lat="49.02937" lon="6.92636">
        <ele>238.1</ele>
        <time>2013-09-22T09:46:45Z</time>
      </trkpt>
      <trkpt lat="49.02936" lon="6.92632">
        <ele>238.4</ele>
        <time>2013-09-22T09:46:50Z</time>
      </trkpt>
      <trkpt lat="49.02933" lon="6.92628">
        <ele>238.2</ele>
        <time>2013-09-22T09:46:55Z</time>
      </trkpt>
      <trkpt lat="49.02929" lon="6.92624">
        <ele>238.1</ele>
        <time>2013-09-22T09:47:00Z</time>
      </trkpt>
      <trkpt lat="49.02926" lon="6.92619">
        <ele>238.5</ele>
        <time>2013-09-22T09:47:05Z</time>
      </trkpt>
      <trkpt lat="49.02923" lon="6.92615">
        <ele>238.7</ele>
        <time>2013-09-22T09:47:10Z</time>
      </trkpt>
      <trkpt lat="49.02919" lon="6.92609">
        <ele>238.7</ele>
        <time>2013-09-22T09:47:15Z</time>
      </trkpt>
      <trkpt lat="49.02917" lon="6.92603">
        <ele>238</ele>
        <time>2013-09-22T09:47:20Z</time>
      </trkpt>
      <trkpt lat="49.02915" lon="6.92596">
        <ele>237.3</ele>
        <time>2013-09-22T09:47:25Z</time>
      </trkpt>
      <trkpt lat="49.02913" lon="6.92592">
        <ele>237.9</ele>
        <time>2013-09-22T09:47:30Z</time>
      </trkpt>
      <trkpt lat="49.02913" lon="6.9259">
        <ele>238</ele>
        <time>2013-09-22T09:47:35Z</time>
      </trkpt>
      <trkpt lat="49.02911" lon="6.92585">
        <ele>238.3</ele>
        <time>2013-09-22T09:47:40Z</time>
      </trkpt>
      <trkpt lat="49.0291" lon="6.92581">
        <ele>239</ele>
        <time>2013-09-22T09:47:45Z</time>
      </trkpt>
      <trkpt lat="49.0291" lon="6.9258">
        <ele>237.4</ele>
        <time>2013-09-22T09:47:50Z</time>
      </trkpt>
      <trkpt lat="49.0291" lon="6.92578">
        <ele>237.6</ele>
        <time>2013-09-22T09:47:55Z</time>
      </trkpt>
      <trkpt lat="49.02909" lon="6.92577">
        <ele>237.3</ele>
        <time>2013-09-22T09:48:00Z</time>
      </trkpt>
      <trkpt lat="49.02909" lon="6.92576">
        <ele>237.9</ele>
        <time>2013-09-22T09:48:05Z</time>
      </trkpt>
      <trkpt lat="49.02909" lon="6.92575">
        <ele>238.2</ele>
        <time>2013-09-22T09:48:10Z</time>
      </trkpt>
      <trkpt lat="49.02909" lon="6.92575">
        <ele>238.1</ele>
        <time>2013-09-22T09:48:15Z</time>
      </trkpt>
      <trkpt lat="49.02909" lon="6.92576">
        <ele>237.7</ele>
        <time>2013-09-22T09:48:20Z</time>
      </trkpt>
      <trkpt lat="49.02909" lon="6.92577">
        <ele>238.4</ele>
        <time>2013-09-22T09:48:25Z</time>
      </trkpt>
      <trkpt lat="49.02907" lon="6.92577">
        <ele>237</ele>
        <time>2013-09-22T09:48:30Z</time>
      </trkpt>
      <trkpt lat="49.02907" lon="6.92576">
        <ele>238.5</ele>
        <time>2013-09-22T09:48:35Z</time>
      </trkpt>
      <trkpt lat="49.02906" lon="6.92575">
        <ele>238.9</ele>
        <time>2013-09-22T09:48:40Z</time>
      </trkpt>
      <trkpt lat="49.02905" lon="6.92574">
        <ele>238.7</ele>
        <time>2013-09-22T09:48:45Z</time>
      </trkpt>
      <trkpt lat="49.02903" lon="6.92572">
        <ele>237.5</ele>
        <time>2013-09-22T09:48:50Z</time>
      </trkpt>
      <trkpt lat="49.02902" lon="6.9257">
        <ele>239</ele>
        <time>2013-09-22T09:48:55Z</time>
      </trkpt>
      <trkpt lat="49.02901" lon="6.92568">
        <ele>238.6</ele>
        <time>2013-09-22T09:49:00Z</time>
      </trkpt>
      <trkpt lat="49.02901" lon="6.92567">
        <ele>238.5</ele>
        <time>2013-09-22T09:49:05Z</time>
      </trkpt>
      <trkpt lat="49.02901" lon="6.92567">
        <ele>238.1</ele>
        <time>2013-09-22T09:49:10Z</time>
      </trkpt>
      <trkpt lat="49.02901" lon="6.92567">
        <ele>238.1</ele>
        <time>2013-09-22T09:49:15Z</time>
      </trkpt>
      <trkpt lat="49.02901" lon="6.92568">
        <ele>237.9</ele>
        <time>2013-09-22T09:49:20Z</time>
      </trkpt>
      <trkpt lat="49.02901" lon="6.92568">
        <ele>237.4</ele>
        <time>2013-09-22T09:49:25Z</time>
      </trkpt>
      <trkpt lat="49.02901" lon="6.92569">
        <ele>238.2</ele>
        <time>2013-09-22T09:49:30Z</time>
      </trkpt>
      <trkpt lat="49.029" lon="6.9257">
        <ele>238.1</ele>
        <time>2013-09-22T09:49:35Z</time>
      </trkpt>
      <trkpt lat="49.029" lon="6.92571">
        <ele>238.5</ele>
        <time>2013-09-22T09:49:40Z</time>
      </trkpt>
      <trkpt lat="49.02901" lon="6.92571">
        <ele>239.3</ele>
        <time>2013-09-22T09:49:45Z</time>
      </trkpt>
      <trkpt lat="49.02901" lon="6.92571">
        <ele>239.1</ele>
        <time>2013-09-22T09:49:50Z</time>
      </trkpt>
      <trkpt lat="49.02901" lon="6.92572">
        <ele>238.9</ele>
        <time>2013-09-22T09:49:55Z</time>
      </trkpt>
      <trkpt lat="49.02901" lon="6.92571">
        <ele>239.2</ele>
        <time>2013-09-22T09:50:00Z</time>
      </trkpt>
      <trkpt lat="49.02901" lon="6.92572">
        <ele>238.5</ele>
        <time>2013-09-22T09:50:05Z</time>
      </trkpt>
      <trkpt lat="49.02902" lon="6.92575">
        <ele>237.9</ele>
        <time>2013-09-22T09:50:10Z</time>
      </trkpt>
      <trkpt lat="49.02903" lon="6.92576">
        <ele>238.1</ele>
        <time>2013-09-22T09:50:15Z</time>
      </trkpt>
      <trkpt lat="49.02904" lon="6.92578">
        <ele>238.4</ele>
        <time>2013-09-22T09:50:20Z</time>
      </trkpt>
      <trkpt lat="49.02906" lon="6.9258">
        <ele>238.6</ele>
        <time>2013-09-22T09:50:25Z</time>
      </trkpt>
      <trkpt lat="49.02905" lon="6.92581">
        <ele>238.6</ele>
        <time>2013-09-22T09:50:30Z</time>
      </trkpt>
      <trkpt lat="49.02906" lon="6.92581">
        <ele>238.6</ele>
        <time>2013-09-22T09:50:35Z</time>
      </trkpt>
      <trkpt lat="49.02906" lon="6.92581">
        <ele>238.2</ele>
        <time>2013-09-22T09:50:40Z</time>
      </trkpt>
      <trkpt lat="49.02906" lon="6.92581">
        <ele>237.7</ele>
        <time>2013-09-22T09:50:45Z</time>
      </trkpt>
      <trkpt lat="49.02906" lon="6.92582">
        <ele>237.8</ele>
        <time>2013-09-22T09:50:50Z</time>
      </trkpt>
      <trkpt lat="49.02906" lon="6.92582">
        <ele>238.2</ele>
        <time>2013-09-22T09:50:55Z</time>
      </trkpt>
      <trkpt lat="49.02906" lon="6.92582">
        <ele>238.4</ele>
        <time>2013-09-22T09:51:00Z</time>
      </trkpt>
      <trkpt lat="49.02907" lon="6.92582">
        <ele>237.8</ele>
        <time>2013-09-22T09:51:05Z</time>
      </trkpt>
      <trkpt lat="49.02907" lon="6.92582">
        <ele>238.4</ele>
        <time>2013-09-22T09:51:10Z</time>
      </trkpt>
      <trkpt lat="49.02908" lon="6.9258">
        <ele>237.6</ele>
        <time>2013-09-22T09:51:15Z</time>
      </trkpt>
      <trkpt lat="49.02907" lon="6.92577">
        <ele>238.1</ele>
        <time>2013-09-22T09:51:20Z</time>
      </trkpt>
      <trkpt lat="49.02905" lon="6.92575">
        <ele>239.1</ele>
        <time>2013-09-22T09:51:25Z</time>
      </trkpt>
      <trkpt lat="49.02904" lon="6.92575">
        <ele>238.5</ele>
        <time>2013-09-22T09:51:30Z</time>
      </trkpt>
      <trkpt lat="49.02903" lon="6.92573">
        <ele>238.9</ele>
        <time>2013-09-22T09:51:35Z</time>
      </trkpt>
      <trkpt lat="49.02903" lon="6.92572">
        <ele>238.2</ele>
        <time>2013-09-22T09:51:40Z</time>
      </trkpt>
      <trkpt lat="49.02902" lon="6.92572">
        <ele>238.1</ele>
        <time>2013-09-22T09:51:45Z</time>
      </trkpt>
      <trkpt lat="49.02903" lon="6.92572">
        <ele>238.7</ele>
        <time>2013-09-22T09:51:50Z</time>
      </trkpt>
      <trkpt lat="49.02903" lon="6.92572">
        <ele>238.2</ele>
        <time>2013-09-22T09:51:55Z</time>
      </trkpt>
      <trkpt lat="49.02903" lon="6.92572">
        <ele>238.3</ele>
        <time>2013-09-22T09:52:00Z</time>
      </trkpt>
      <trkpt lat="49.02903" lon="6.92572">
        <ele>238.3</ele>
        <time>2013-09-22T09:52:05Z</time>
      </trkpt>
      <trkpt lat="49.02902" lon="6.92571">
        <ele>237.3</ele>
        <time>2013-09-22T09:52:10Z</time>
      </trkpt>
      <trkpt lat="49.02902" lon="6.9257">
        <ele>237.4</ele>
        <time>2013-09-22T09:52:15Z</time>
      </trkpt>
      <trkpt lat="49.02902" lon="6.92569">
        <ele>238.9</ele>
        <time>2013-09-22T09:52:20Z</time>
      </trkpt>
      <trkpt lat="49.02902" lon="6.92568">
        <ele>239.7</ele>
        <time>2013-09-22T09:52:25Z</time>
      </trkpt>
      <trkpt lat="49.02901" lon="6.92567">
        <ele>238.5</ele>
        <time>2013-09-22T09:52:30Z</time>
      </trkpt>
      <trkpt lat="49.02901" lon="6.92566">
        <ele>237.5</ele>
        <time>2013-09-22T09:52:35Z</time>
      </trkpt>
      <trkpt lat="49.02901" lon="6.92564">
        <ele>237.8</ele>
        <time>2013-09-22T09:52:40Z</time>
      </trkpt>
      <trkpt lat="49.02901" lon="6.92564">
        <ele>238.7</ele>
        <time>2013-09-22T09:52:45Z</time>
      </trkpt>
      <trkpt lat="49.02901" lon="6.92563">
        <ele>237.9</ele>
        <time>2013-09-22T09:52:50Z</time>
      </trkpt>
      <trkpt lat="49.029" lon="6.92563">
        <ele>239.1</ele>
        <time>2013-09-22T09:52:55Z</time>
      </trkpt>
      <trkpt lat="49.029" lon="6.92563">
        <ele>238.3</ele>
        <time>2013-09-22T09:53:00Z</time>
      </trkpt>
      <trkpt lat="49.029" lon="6.92564">
        <ele>238.5</ele>
        <time>2013-09-22T09:53:05Z</time>
      </trkpt>
      <trkpt lat="49.029" lon="6.92564">
        <ele>238.6</ele>
        <time>2013-09-22T09:53:10Z</time>
      </trkpt>
      <trkpt lat="49.02901" lon="6.92564">
        <ele>238.7</ele>
        <time>2013-09-22T09:53:15Z</time>
      </trkpt>
      <trkpt lat="49.02902" lon="6.92565">
        <ele>238.2</ele>
        <time>2013-09-22T09:53:20Z</time>
      </trkpt>
      <trkpt lat="49.02902" lon="6.92565">
        <ele>238.7</ele>
        <time>2013-09-22T09:53:25Z</time>
      </trkpt>
      <trkpt lat="49.02902" lon="6.92565">
        <ele>239</ele>
        <time>2013-09-22T09:53:30Z</time>
      </trkpt>
      <trkpt lat="49.02903" lon="6.92566">
        <ele>237.9</ele>
        <time>2013-09-22T09:53:35Z</time>
      </trkpt>
      <trkpt lat="49.02903" lon="6.92566">
        <ele>238.2</ele>
        <time>2013-09-22T09:53:40Z</time>
      </trkpt>
      <trkpt lat="49.02904" lon="6.92567">
        <ele>238.8</ele>
        <time>2013-09-22T09:53:45Z</time>
      </trkpt>
      <trkpt lat="49.02904" lon="6.92568">
        <ele>238.6</ele>
        <time>2013-09-22T09:53:50Z</time>
      </trkpt>
      <trkpt lat="49.02904" lon="6.9257">
        <ele>238.3</ele>
        <time>2013-09-22T09:53:55Z</time>
      </trkpt>
      <trkpt lat="49.02904" lon="6.92571">
        <ele>237.8</ele>
        <time>2013-09-22T09:54:00Z</time>
      </trkpt>
      <trkpt lat="49.02904" lon="6.92572">
        <ele>238.6</ele>
        <time>2013-09-22T09:54:05Z</time>
      </trkpt>
      <trkpt lat="49.02904" lon="6.92573">
        <ele>238.9</ele>
        <time>2013-09-22T09:54:10Z</time>
      </trkpt>
      <trkpt lat="49.02904" lon="6.92574">
        <ele>238.7</ele>
        <time>2013-09-22T09:54:15Z</time>
      </trkpt>
      <trkpt lat="49.02905" lon="6.92576">
        <ele>238.8</ele>
        <time>2013-09-22T09:54:20Z</time>
      </trkpt>
      <trkpt lat="49.02905" lon="6.92579">
        <ele>237.8</ele>
        <time>2013-09-22T09:54:25Z</time>
      </trkpt>
      <trkpt lat="49.02905" lon="6.92579">
        <ele>238.6</ele>
        <time>2013-09-22T09:54:30Z</time>
      </trkpt>
      <trkpt lat="49.02905" lon="6.92579">
        <ele>238.6</ele>
        <time>2013-09-22T09:54:35Z</time>
      </trkpt>
      <trkpt lat="49.02905" lon="6.92578">
        <ele>238.3</ele>
        <time>2013-09-22T09:54:40Z</time>
      </trkpt>
      <trkpt lat="49.02905" lon="6.92578">
        <ele>238.6</ele>
        <time>2013-09-22T09:54:45Z</time>
      </trkpt>
      <trkpt lat="49.02908" lon="6.92575">
        <ele>239.1</ele>
        <time>2013-09-22T09:54:50Z</time>
      </trkpt>
      <trkpt lat="49.02909" lon="6.92572">
        <ele>238.6</ele>
        <time>2013-09-22T09:54:55Z</time>
      </trkpt>
      <trkpt lat="49.02907" lon="6.9257">
        <ele>239.1</ele>
        <time>2013-09-22T09:55:00Z</time>
      </trkpt>
      <trkpt lat="49.02905" lon="6.92567">
        <ele>238.5</ele>
        <time>2013-09-22T09:55:05Z</time>
      </trkpt>
      <trkpt lat="49.02904" lon="6.92566">
        <ele>238.1</ele>
        <time>2013-09-22T09:55:10Z</time>
      </trkpt>
      <trkpt lat="49.02904" lon="6.92566">
        <ele>238.2</ele>
        <time>2013-09-22T09:55:15Z</time>
      </trkpt>
      <trkpt lat="49.02904" lon="6.92566">
        <ele>238.7</ele>
        <time>2013-09-22T09:55:20Z</time>
      </trkpt>
      <trkpt lat="49.02904" lon="6.92567">
        <ele>238.7</ele>
        <time>2013-09-22T09:55:25Z</time>
      </trkpt>
      <trkpt lat="49.02903" lon="6.92569">
        <ele>239.3</ele>
        <time>2013-09-22T09:55:30Z</time>
      </trkpt>
      <trkpt lat="49.02904" lon="6.9257">
        <ele>237.5</ele>
        <time>2013-09-22T09:55:35Z</time>
      </trkpt>
      <trkpt lat="49.02903" lon="6.9257">
        <ele>238.6</ele>
        <time>2013-09-22T09:55:40Z</time>
      </trkpt>
      <trkpt lat="49.02904" lon="6.92572">
        <ele>238.8</ele>
        <time>2013-09-22T09:55:45Z</time>
      </trkpt>
      <trkpt lat="49.02906" lon="6.92572">
        <ele>238.7</ele>
        <time>2013-09-22T09:55:50Z</time>
      </trkpt>
      <trkpt lat="49.02906" lon="6.92573">
        <ele>238.9</ele>
        <time>2013-09-22T09:55:55Z</time>
      </trkpt>
      <trkpt lat="49.02907" lon="6.92573">
        <ele>238.1</ele>
        <time>2013-09-22T09:56:00Z</time>
      </trkpt>
      <trkpt lat="49.02907" lon="6.92573">
        <ele>238.6</ele>
        <time>2013-09-22T09:56:05Z</time>
      </trkpt>
      <trkpt lat="49.02907" lon="6.92574">
        <ele>238.5</ele>
        <time>2013-09-22T09:56:10Z</time>
      </trkpt>
      <trkpt lat="49.02908" lon="6.92575">
        <ele>237.8</ele>
        <time>2013-09-22T09:56:15Z</time>
      </trkpt>
      <trkpt lat="49.02909" lon="6.92575">
        <ele>238.4</ele>
        <time>2013-09-22T09:56:20Z</time>
      </trkpt>
      <trkpt lat="49.02911" lon="6.92576">
        <ele>238.4</ele>
        <time>2013-09-22T09:56:25Z</time>
      </trkpt>
      <trkpt lat="49.02913" lon="6.92576">
        <ele>239.1</ele>
        <time>2013-09-22T09:56:30Z</time>
      </trkpt>
      <trkpt lat="49.02913" lon="6.92576">
        <ele>238.1</ele>
        <time>2013-09-22T09:56:35Z</time>
      </trkpt>
      <trkpt lat="49.02913" lon="6.92576">
        <ele>237.6</ele>
        <time>2013-09-22T09:56:40Z</time>
      </trkpt>
      <trkpt lat="49.02912" lon="6.92576">
        <ele>238.6</ele>
        <time>2013-09-22T09:56:45Z</time>
      </trkpt>
      <trkpt lat="49.02911" lon="6.92576">
        <ele>239.2</ele>
        <time>2013-09-22T09:56:50Z</time>
      </trkpt>
      <trkpt lat="49.02909" lon="6.92575">
        <ele>238.2</ele>
        <time>2013-09-22T09:56:55Z</time>
      </trkpt>
      <trkpt lat="49.02907" lon="6.92575">
        <ele>238</ele>
        <time>2013-09-22T09:57:00Z</time>
      </trkpt>
      <trkpt lat="49.02905" lon="6.92574">
        <ele>238.2</ele>
        <time>2013-09-22T09:57:05Z</time>
      </trkpt>
      <trkpt lat="49.02904" lon="6.92574">
        <ele>238.5</ele>
        <time>2013-09-22T09:57:10Z</time>
      </trkpt>
      <trkpt lat="49.02903" lon="6.92574">
        <ele>238.2</ele>
        <time>2013-09-22T09:57:15Z</time>
      </trkpt>
      <trkpt lat="49.02904" lon="6.92575">
        <ele>238.1</ele>
        <time>2013-09-22T09:57:20Z</time>
      </trkpt>
      <trkpt lat="49.02904" lon="6.92575">
        <ele>238.6</ele>
        <time>2013-09-22T09:57:25Z</time>
      </trkpt>
      <trkpt lat="49.02904" lon="6.92575">
        <ele>238.3</ele>
        <time>2013-09-22T09:57:30Z</time>
      </trkpt>
      <trkpt lat="49.02904" lon="6.92574">
        <ele>237.6</ele>
        <time>2013-09-22T09:57:35Z</time>
      </trkpt>
      <trkpt lat="49.02903" lon="6.92574">
        <ele>238.7</ele>
        <time>2013-09-22T09:57:40Z</time>
      </trkpt>
      <trkpt lat="49.02903" lon="6.92573">
        <ele>239</ele>
        <time>2013-09-22T09:57:45Z</time>
      </trkpt>
      <trkpt lat="49.02903" lon="6.92574">
        <ele>238.6</ele>
        <time>2013-09-22T09:57:50Z</time>
      </trkpt>
      <trkpt lat="49.02902" lon="6.92574">
        <ele>239.5</ele>
        <time>2013-09-22T09:57:55Z</time>
      </trkpt>
      <trkpt lat="49.02902" lon="6.92575">
        <ele>238.8</ele>
        <time>2013-09-22T09:58:00Z</time>
      </trkpt>
      <trkpt lat="49.02902" lon="6.92575">
        <ele>239.1</ele>
        <time>2013-09-22T09:58:05Z</time>
      </trkpt>
      <trkpt lat="49.02902" lon="6.92575">
        <ele>238.2</ele>
        <time>2013-09-22T09:58:10Z</time>
      </trkpt>
      <trkpt lat="49.02901" lon="6.92576">
        <ele>239</ele>
        <time>2013-09-22T09:58:15Z</time>
      </trkpt>
      <trkpt lat="49.02901" lon="6.92578">
        <ele>238.6</ele>
        <time>2013-09-22T09:58:20Z</time>
      </trkpt>
      <trkpt lat="49.02901" lon="6.92578">
        <ele>238.9</ele>
        <time>2013-09-22T09:58:25Z</time>
      </trkpt>
      <trkpt lat="49.02902" lon="6.92578">
        <ele>238.2</ele>
        <time>2013-09-22T09:58:30Z</time>
      </trkpt>
      <trkpt lat="49.02902" lon="6.92578">
        <ele>238</ele>
        <time>2013-09-22T09:58:35Z</time>
      </trkpt>
      <trkpt lat="49.02902" lon="6.92579">
        <ele>237.8</ele>
        <time>2013-09-22T09:58:40Z</time>
      </trkpt>
      <trkpt lat="49.02902" lon="6.92578">
        <ele>238.3</ele>
        <time>2013-09-22T09:58:45Z</time>
      </trkpt>
      <trkpt lat="49.02902" lon="6.92578">
        <ele>238.6</ele>
        <time>2013-09-22T09:58:50Z</time>
      </trkpt>
      <trkpt lat="49.02902" lon="6.92577">
        <ele>238.9</ele>
        <time>2013-09-22T09:58:55Z</time>
      </trkpt>
      <trkpt lat="49.02904" lon="6.92577">
        <ele>239.2</ele>
        <time>2013-09-22T09:59:00Z</time>
      </trkpt>
      <trkpt lat="49.02905" lon="6.92578">
        <ele>238.3</ele>
        <time>2013-09-22T09:59:05Z</time>
      </trkpt>
      <trkpt lat="49.02906" lon="6.92581">
        <ele>237.6</ele>
        <time>2013-09-22T09:59:10Z</time>
      </trkpt>
      <trkpt lat="49.02909" lon="6.92586">
        <ele>237.2</ele>
        <time>2013-09-22T09:59:15Z</time>
      </trkpt>
      <trkpt lat="49.0291" lon="6.92587">
        <ele>238.3</ele>
        <time>2013-09-22T09:59:20Z</time>
      </trkpt>
      <trkpt lat="49.02913" lon="6.92592">
        <ele>237.7</ele>
        <time>2013-09-22T09:59:25Z</time>
      </trkpt>
      <trkpt lat="49.02916" lon="6.92598">
        <ele>237.7</ele>
        <time>2013-09-22T09:59:30Z</time>
      </trkpt>
      <trkpt lat="49.02919" lon="6.92604">
        <ele>238.3</ele>
        <time>2013-09-22T09:59:35Z</time>
      </trkpt>
      <trkpt lat="49.02922" lon="6.92611">
        <ele>238.5</ele>
        <time>2013-09-22T09:59:40Z</time>
      </trkpt>
      <trkpt lat="49.02925" lon="6.92617">
        <ele>238.4</ele>
        <time>2013-09-22T09:59:45Z</time>
      </trkpt>
      <trkpt lat="49.02929" lon="6.92624">
        <ele>238.5</ele>
        <time>2013-09-22T09:59:50Z</time>
      </trkpt>
      <trkpt lat="49.02931" lon="6.92628">
        <ele>238.9</ele>
        <time>2013-09-22T09:59:55Z</time>
      </trkpt>
      <trkpt lat="49.02934" lon="6.92631">
        <ele>238.8</ele>
        <time>2013-09-22T10:00:00Z</time>
      </trkpt>
      <trkpt lat="49.02938" lon="6.92635">
        <ele>238.7</ele>
        <time>2013-09-22T10:00:05Z</time>
      </trkpt>
      <trkpt lat="49.02941" lon="6.92639">
        <ele>238.6</ele>
        <time>2013-09-22T10:00:10Z</time>
      </trkpt>
      <trkpt lat="49.02944" lon="6.92644">
        <ele>238.9</ele>
        <time>2013-09-22T10:00:15Z</time>
      </trkpt>
      <trkpt lat="49.02948" lon="6.92645">
        <ele>238.8</ele>
        <time>2013-09-22T10:00:20Z</time>
      </trkpt>
      <trkpt lat="49.02951" lon="6.92649">
        <ele>238.9</ele>
        <time>2013-09-22T10:00:25Z</time>
      </trkpt>
      <trkpt lat="49.02954" lon="6.92653">
        <ele>238.2</ele>
        <time>2013-09-22T10:00:30Z</time>
      </trkpt>
      <trkpt lat="49.02957" lon="6.9266">
        <ele>237.7</ele>
        <time>2013-09-22T10:00:35Z</time>
      </trkpt>
      <trkpt lat="49.0296" lon="6.92667">
        <ele>237.4</ele>
        <time>2013-09-22T10:00:40Z</time>
      </trkpt>
      <trkpt lat="49.02963" lon="6.92674">
        <ele>239</ele>
        <time>2013-09-22T10:00:45Z</time>
      </trkpt>
      <trkpt lat="49.02967" lon="6.92681">
        <ele>238.7</ele>
        <time>2013-09-22T10:00:50Z</time>
      </trkpt>
      <trkpt lat="49.02971" lon="6.92688">
        <ele>238.3</ele>
        <time>2013-09-22T10:00:55Z</time>
      </trkpt>
      <trkpt lat="49.02975" lon="6.92696">
        <ele>239.4</ele>
        <time>2013-09-22T10:01:00Z</time>
      </trkpt>
      <trkpt lat="49.0298" lon="6.92703">
        <ele>239</ele>
        <time>2013-09-22T10:01:05Z</time>
      </trkpt>
      <trkpt lat="49.02984" lon="6.9271">
        <ele>238.4</ele>
        <time>2013-09-22T10:01:10Z</time>
      </trkpt>
      <trkpt lat="49.02987" lon="6.92717">
        <ele>238.1</ele>
        <time>2013-09-22T10:01:15Z</time>
      </trkpt>
      <trkpt lat="49.02991" lon="6.92724">
        <ele>238.3</ele>
        <time>2013-09-22T10:01:20Z</time>
      </trkpt>
      <trkpt lat="49.02994" lon="6.92731">
        <ele>238.5</ele>
        <time>2013-09-22T10:01:25Z</time>
      </trkpt>
      <trkpt lat="49.02996" lon="6.92737">
        <ele>238.6</ele>
        <time>2013-09-22T10:01:30Z</time>
      </trkpt>
      <trkpt lat="49.02999" lon="6.92742">
        <ele>238.1</ele>
        <time>2013-09-22T10:01:35Z</time>
      </trkpt>
      <trkpt lat="49.03001" lon="6.92748">
        <ele>237.3</ele>
        <time>2013-09-22T10:01:40Z</time>
      </trkpt>
      <trkpt lat="49.03004" lon="6.92757">
        <ele>238.8</ele>
        <time>2013-09-22T10:01:45Z</time>
      </trkpt>
      <trkpt lat="49.03006" lon="6.92765">
        <ele>238.8</ele>
        <time>2013-09-22T10:01:50Z</time>
      </trkpt>
      <trkpt lat="49.0301" lon="6.92772">
        <ele>239.2</ele>
        <time>2013-09-22T10:01:55Z</time>
      </trkpt>
      <trkpt lat="49.03012" lon="6.9278">
        <ele>238.4</ele>
        <time>2013-09-22T10:02:00Z</time>
      </trkpt>
      <trkpt lat="49.03015" lon="6.92788">
        <ele>238.4</ele>
        <time>2013-09-22T10:02:05Z</time>
      </trkpt>
      <trkpt lat="49.03018" lon="6.92796">
        <ele>238.6</ele>
        <time>2013-09-22T10:02:10Z</time>
      </trkpt>
      <trkpt lat="49.03021" lon="6.92804">
        <ele>238.4</ele>
        <time>2013-09-22T10:02:15Z</time>
      </trkpt>
      <trkpt lat="49.03023" lon="6.92811">
        <ele>238.8</ele>
        <time>2013-09-22T10:02:20Z</time>
      </trkpt>
      <trkpt lat="49.03024" lon="6.92818">
        <ele>238</ele>
        <time>2013-09-22T10:02:25Z</time>
      </trkpt>
      <trkpt lat="49.03025" lon="6.92826">
        <ele>238.6</ele>
        <time>2013-09-22T10:02:30Z</time>
      </trkpt>
      <trkpt lat="49.03026" lon="6.92834">
        <ele>239.4</ele>
        <time>2013-09-22T10:02:35Z</time>
      </trkpt>
      <trkpt lat="49.03027" lon="6.9284">
        <ele>238.7</ele>
        <time>2013-09-22T10:02:40Z</time>
      </trkpt>
      <trkpt lat="49.03029" lon="6.92846">
        <ele>239.6</ele>
        <time>2013-09-22T10:02:45Z</time>
      </trkpt>
      <trkpt lat="49.03034" lon="6.92849">
        <ele>239.8</ele>
        <time>2013-09-22T10:02:50Z</time>
      </trkpt>
      <trkpt lat="49.03039" lon="6.92847">
        <ele>239.7</ele>
        <time>2013-09-22T10:02:55Z</time>
      </trkpt>
      <trkpt lat="49.03044" lon="6.92845">
        <ele>239.4</ele>
        <time>2013-09-22T10:03:00Z</time>
      </trkpt>
      <trkpt lat="49.0305" lon="6.92844">
        <ele>239.8</ele>
        <time>2013-09-22T10:03:05Z</time>
      </trkpt>
      <trkpt lat="49.03055" lon="6.9284">
        <ele>240.2</ele>
        <time>2013-09-22T10:03:10Z</time>
      </trkpt>
      <trkpt lat="49.03061" lon="6.92836">
        <ele>238.9</ele>
        <time>2013-09-22T10:03:15Z</time>
      </trkpt>
      <trkpt lat="49.03067" lon="6.92833">
        <ele>239.7</ele>
        <time>2013-09-22T10:03:20Z</time>
      </trkpt>
      <trkpt lat="49.03072" lon="6.92829">
        <ele>239.3</ele>
        <time>2013-09-22T10:03:25Z</time>
      </trkpt>
      <trkpt lat="49.03078" lon="6.92826">
        <ele>239.4</ele>
        <time>2013-09-22T10:03:30Z</time>
      </trkpt>
      <trkpt lat="49.03083" lon="6.92822">
        <ele>239.5</ele>
        <time>2013-09-22T10:03:35Z</time>
      </trkpt>
      <trkpt lat="49.03089" lon="6.92819">
        <ele>239.3</ele>
        <time>2013-09-22T10:03:40Z</time>
      </trkpt>
      <trkpt lat="49.03095" lon="6.92814">
        <ele>239.3</ele>
        <time>2013-09-22T10:03:45Z</time>
      </trkpt>
      <trkpt lat="49.03101" lon="6.92811">
        <ele>239.4</ele>
        <time>2013-09-22T10:03:50Z</time>
      </trkpt>
      <trkpt lat="49.03108" lon="6.92807">
        <ele>239.8</ele>
        <time>2013-09-22T10:03:55Z</time>
      </trkpt>
      <trkpt lat="49.03113" lon="6.92804">
        <ele>240.1</ele>
        <time>2013-09-22T10:04:00Z</time>
      </trkpt>
      <trkpt lat="49.03118" lon="6.928">
        <ele>238.7</ele>
        <time>2013-09-22T10:04:05Z</time>
      </trkpt>
      <trkpt lat="49.03121" lon="6.92797">
        <ele>239.2</ele>
        <time>2013-09-22T10:04:10Z</time>
      </trkpt>
      <trkpt lat="49.03127" lon="6.92792">
        <ele>239.7</ele>
        <time>2013-09-22T10:04:15Z</time>
      </trkpt>
      <trkpt lat="49.03131" lon="6.92787">
        <ele>240.2</ele>
        <time>2013-09-22T10:04:20Z</time>
      </trkpt>
      <trkpt lat="49.03137" lon="6.92783">
        <ele>240.4</ele>
        <time>2013-09-22T10:04:25Z</time>
      </trkpt>
      <trkpt lat="49.03142" lon="6.92782">
        <ele>239.8</ele>
        <time>2013-09-22T10:04:30Z</time>
      </trkpt>
      <trkpt lat="49.03145" lon="6.92783">
        <ele>239.6</ele>
        <time>2013-09-22T10:04:35Z</time>
      </trkpt>
      <trkpt lat="49.03147" lon="6.92787">
        <ele>239</ele>
        <time>2013-09-22T10:04:40Z</time>
      </trkpt>
      <trkpt lat="49.0315" lon="6.92795">
        <ele>238.9</ele>
        <time>2013-09-22T10:04:45Z</time>
      </trkpt>
      <trkpt lat="49.03152" lon="6.92803">
        <ele>239.1</ele>
        <time>2013-09-22T10:04:50Z</time>
      </trkpt>
      <trkpt lat="49.03154" lon="6.92812">
        <ele>238.7</ele>
        <time>2013-09-22T10:04:55Z</time>
      </trkpt>
      <trkpt lat="49.03156" lon="6.9282">
        <ele>237.6</ele>
        <time>2013-09-22T10:05:00Z</time>
      </trkpt>
      <trkpt lat="49.03158" lon="6.92828">
        <ele>238.1</ele>
        <time>2013-09-22T10:05:05Z</time>
      </trkpt>
      <trkpt lat="49.0316" lon="6.92836">
        <ele>238.4</ele>
        <time>2013-09-22T10:05:10Z</time>
      </trkpt>
      <trkpt lat="49.03162" lon="6.92844">
        <ele>237.6</ele>
        <time>2013-09-22T10:05:15Z</time>
      </trkpt>
      <trkpt lat="49.03165" lon="6.92851">
        <ele>237</ele>
        <time>2013-09-22T10:05:20Z</time>
      </trkpt>
      <trkpt lat="49.03167" lon="6.92859">
        <ele>236.5</ele>
        <time>2013-09-22T10:05:25Z</time>
      </trkpt>
      <trkpt lat="49.03169" lon="6.92866">
        <ele>237</ele>
        <time>2013-09-22T10:05:30Z</time>
      </trkpt>
      <trkpt lat="49.03171" lon="6.92874">
        <ele>237.6</ele>
        <time>2013-09-22T10:05:35Z</time>
      </trkpt>
      <trkpt lat="49.03174" lon="6.92882">
        <ele>237.2</ele>
        <time>2013-09-22T10:05:40Z</time>
      </trkpt>
      <trkpt lat="49.03177" lon="6.9289">
        <ele>235.8</ele>
        <time>2013-09-22T10:05:45Z</time>
      </trkpt>
      <trkpt lat="49.03181" lon="6.92897">
        <ele>236.5</ele>
        <time>2013-09-22T10:05:50Z</time>
      </trkpt>
      <trkpt lat="49.03184" lon="6.92905">
        <ele>236</ele>
        <time>2013-09-22T10:05:55Z</time>
      </trkpt>
      <trkpt lat="49.03187" lon="6.92913">
        <ele>236.1</ele>
        <time>2013-09-22T10:06:00Z</time>
      </trkpt>
      <trkpt lat="49.03189" lon="6.92921">
        <ele>235.9</ele>
        <time>2013-09-22T10:06:05Z</time>
      </trkpt>
      <trkpt lat="49.03191" lon="6.92928">
        <ele>236.3</ele>
        <time>2013-09-22T10:06:10Z</time>
      </trkpt>
      <trkpt lat="49.03195" lon="6.92935">
        <ele>236.4</ele>
        <time>2013-09-22T10:06:15Z</time>
      </trkpt>
      <trkpt lat="49.03198" lon="6.92942">
        <ele>236</ele>
        <time>2013-09-22T10:06:20Z</time>
      </trkpt>
      <trkpt lat="49.03201" lon="6.9295">
        <ele>236.3</ele>
        <time>2013-09-22T10:06:25Z</time>
      </trkpt>
      <trkpt lat="49.03204" lon="6.92958">
        <ele>237</ele>
        <time>2013-09-22T10:06:30Z</time>
      </trkpt>
      <trkpt lat="49.03207" lon="6.92965">
        <ele>237.6</ele>
        <time>2013-09-22T10:06:35Z</time>
      </trkpt>
      <trkpt lat="49.03211" lon="6.92973">
        <ele>237.3</ele>
        <time>2013-09-22T10:06:40Z</time>
      </trkpt>
      <trkpt lat="49.03214" lon="6.92981">
        <ele>237.5</ele>
        <time>2013-09-22T10:06:45Z</time>
      </trkpt>
      <trkpt lat="49.03217" lon="6.9299">
        <ele>237.5</ele>
        <time>2013-09-22T10:06:50Z</time>
      </trkpt>
      <trkpt lat="49.0322" lon="6.92998">
        <ele>237.6</ele>
        <time>2013-09-22T10:06:55Z</time>
      </trkpt>
      <trkpt lat="49.03223" lon="6.93006">
        <ele>238.5</ele>
        <time>2013-09-22T10:07:00Z</time>
      </trkpt>
      <trkpt lat="49.03226" lon="6.93013">
        <ele>237.5</ele>
        <time>2013-09-22T10:07:05Z</time>
      </trkpt>
      <trkpt lat="49.03229" lon="6.9302">
        <ele>238.1</ele>
        <time>2013-09-22T10:07:10Z</time>
      </trkpt>
      <trkpt lat="49.03231" lon="6.93028">
        <ele>238</ele>
        <time>2013-09-22T10:07:15Z</time>
      </trkpt>
      <trkpt lat="49.03233" lon="6.93035">
        <ele>237.7</ele>
        <time>2013-09-22T10:07:20Z</time>
      </trkpt>
      <trkpt lat="49.03234" lon="6.93041">
        <ele>237.4</ele>
        <time>2013-09-22T10:07:25Z</time>
      </trkpt>
      <trkpt lat="49.03236" lon="6.93049">
        <ele>237.4</ele>
        <time>2013-09-22T10:07:30Z</time>
      </trkpt>
      <trkpt lat="49.03237" lon="6.93056">
        <ele>237.5</ele>
        <time>2013-09-22T10:07:35Z</time>
      </trkpt>
      <trkpt lat="49.0324" lon="6.93064">
        <ele>237.3</ele>
        <time>2013-09-22T10:07:40Z</time>
      </trkpt>
      <trkpt lat="49.03242" lon="6.93071">
        <ele>237.6</ele>
        <time>2013-09-22T10:07:45Z</time>
      </trkpt>
      <trkpt lat="49.03245" lon="6.93079">
        <ele>237</ele>
        <time>2013-09-22T10:07:50Z</time>
      </trkpt>
      <trkpt lat="49.03247" lon="6.93088">
        <ele>237.2</ele>
        <time>2013-09-22T10:07:55Z</time>
      </trkpt>
      <trkpt lat="49.03249" lon="6.93096">
        <ele>237</ele>
        <time>2013-09-22T10:08:00Z</time>
      </trkpt>
      <trkpt lat="49.03251" lon="6.93104">
        <ele>236.5</ele>
        <time>2013-09-22T10:08:05Z</time>
      </trkpt>
      <trkpt lat="49.03253" lon="6.93111">
        <ele>237.7</ele>
        <time>2013-09-22T10:08:10Z</time>
      </trkpt>
      <trkpt lat="49.03255" lon="6.93119">
        <ele>237.4</ele>
        <time>2013-09-22T10:08:15Z</time>
      </trkpt>
      <trkpt lat="49.03257" lon="6.93127">
        <ele>237.8</ele>
        <time>2013-09-22T10:08:20Z</time>
      </trkpt>
      <trkpt lat="49.03259" lon="6.93135">
        <ele>237.9</ele>
        <time>2013-09-22T10:08:25Z</time>
      </trkpt>
      <trkpt lat="49.03261" lon="6.93144">
        <ele>237.2</ele>
        <time>2013-09-22T10:08:30Z</time>
      </trkpt>
      <trkpt lat="49.03264" lon="6.93152">
        <ele>238.1</ele>
        <time>2013-09-22T10:08:35Z</time>
      </trkpt>
      <trkpt lat="49.03266" lon="6.93161">
        <ele>237.7</ele>
        <time>2013-09-22T10:08:40Z</time>
      </trkpt>
      <trkpt lat="49.03268" lon="6.9317">
        <ele>238.2</ele>
        <time>2013-09-22T10:08:45Z</time>
      </trkpt>
      <trkpt lat="49.03269" lon="6.93178">
        <ele>238.1</ele>
        <time>2013-09-22T10:08:50Z</time>
      </trkpt>
      <trkpt lat="49.03271" lon="6.93186">
        <ele>237.6</ele>
        <time>2013-09-22T10:08:55Z</time>
      </trkpt>
      <trkpt lat="49.03274" lon="6.93193">
        <ele>238</ele>
        <time>2013-09-22T10:09:00Z</time>
      </trkpt>
      <trkpt lat="49.03277" lon="6.93201">
        <ele>237.6</ele>
        <time>2013-09-22T10:09:05Z</time>
      </trkpt>
      <trkpt lat="49.03279" lon="6.93209">
        <ele>238.4</ele>
        <time>2013-09-22T10:09:10Z</time>
      </trkpt>
      <trkpt lat="49.03281" lon="6.93217">
        <ele>238.6</ele>
        <time>2013-09-22T10:09:15Z</time>
      </trkpt>
      <trkpt lat="49.03282" lon="6.93226">
        <ele>238.5</ele>
        <time>2013-09-22T10:09:20Z</time>
      </trkpt>
      <trkpt lat="49.03284" lon="6.93234">
        <ele>237.8</ele>
        <time>2013-09-22T10:09:25Z</time>
      </trkpt>
      <trkpt lat="49.03286" lon="6.93242">
        <ele>238.9</ele>
        <time>2013-09-22T10:09:30Z</time>
      </trkpt>
      <trkpt lat="49.03288" lon="6.9325">
        <ele>238.8</ele>
        <time>2013-09-22T10:09:35Z</time>
      </trkpt>
      <trkpt lat="49.0329" lon="6.93258">
        <ele>239.3</ele>
        <time>2013-09-22T10:09:40Z</time>
      </trkpt>
      <trkpt lat="49.03292" lon="6.93265">
        <ele>238.1</ele>
        <time>2013-09-22T10:09:45Z</time>
      </trkpt>
      <trkpt lat="49.03295" lon="6.93273">
        <ele>239.2</ele>
        <time>2013-09-22T10:09:50Z</time>
      </trkpt>
      <trkpt lat="49.03297" lon="6.93281">
        <ele>239.8</ele>
        <time>2013-09-22T10:09:55Z</time>
      </trkpt>
      <trkpt lat="49.03299" lon="6.93289">
        <ele>239.8</ele>
        <time>2013-09-22T10:10:00Z</time>
      </trkpt>
      <trkpt lat="49.03301" lon="6.93297">
        <ele>240.5</ele>
        <time>2013-09-22T10:10:05Z</time>
      </trkpt>
      <trkpt lat="49.03303" lon="6.93304">
        <ele>240.2</ele>
        <time>2013-09-22T10:10:10Z</time>
      </trkpt>
      <trkpt lat="49.03305" lon="6.93313">
        <ele>239.7</ele>
        <time>2013-09-22T10:10:15Z</time>
      </trkpt>
      <trkpt lat="49.03306" lon="6.93321">
        <ele>239.9</ele>
        <time>2013-09-22T10:10:20Z</time>
      </trkpt>
      <trkpt lat="49.03308" lon="6.93329">
        <ele>238.8</ele>
        <time>2013-09-22T10:10:25Z</time>
      </trkpt>
      <trkpt lat="49.03309" lon="6.93333">
        <ele>238.9</ele>
        <time>2013-09-22T10:10:30Z</time>
      </trkpt>
      <trkpt lat="49.03309" lon="6.93339">
        <ele>237.7</ele>
        <time>2013-09-22T10:10:35Z</time>
      </trkpt>
      <trkpt lat="49.03307" lon="6.93346">
        <ele>238.5</ele>
        <time>2013-09-22T10:10:40Z</time>
      </trkpt>
      <trkpt lat="49.03307" lon="6.93353">
        <ele>238.4</ele>
        <time>2013-09-22T10:10:45Z</time>
      </trkpt>
      <trkpt lat="49.03307" lon="6.9336">
        <ele>239.1</ele>
        <time>2013-09-22T10:10:50Z</time>
      </trkpt>
      <trkpt lat="49.03307" lon="6.93369">
        <ele>238.8</ele>
        <time>2013-09-22T10:10:55Z</time>
      </trkpt>
      <trkpt lat="49.03307" lon="6.93377">
        <ele>238.5</ele>
        <time>2013-09-22T10:11:00Z</time>
      </trkpt>
      <trkpt lat="49.03308" lon="6.93386">
        <ele>238.6</ele>
        <time>2013-09-22T10:11:05Z</time>
      </trkpt>
      <trkpt lat="49.03309" lon="6.93395">
        <ele>238.1</ele>
        <time>2013-09-22T10:11:10Z</time>
      </trkpt>
      <trkpt lat="49.03309" lon="6.93403">
        <ele>238.4</ele>
        <time>2013-09-22T10:11:15Z</time>
      </trkpt>
      <trkpt lat="49.0331" lon="6.93412">
        <ele>238.3</ele>
        <time>2013-09-22T10:11:20Z</time>
      </trkpt>
      <trkpt lat="49.03311" lon="6.93421">
        <ele>238.5</ele>
        <time>2013-09-22T10:11:25Z</time>
      </trkpt>
      <trkpt lat="49.03311" lon="6.9343">
        <ele>237.9</ele>
        <time>2013-09-22T10:11:30Z</time>
      </trkpt>
      <trkpt lat="49.03313" lon="6.9344">
        <ele>237.3</ele>
        <time>2013-09-22T10:11:35Z</time>
      </trkpt>
      <trkpt lat="49.03314" lon="6.93448">
        <ele>237.1</ele>
        <time>2013-09-22T10:11:40Z</time>
      </trkpt>
      <trkpt lat="49.03314" lon="6.93457">
        <ele>237.9</ele>
        <time>2013-09-22T10:11:45Z</time>
      </trkpt>
      <trkpt lat="49.03315" lon="6.93464">
        <ele>237.3</ele>
        <time>2013-09-22T10:11:50Z</time>
      </trkpt>
      <trkpt lat="49.03316" lon="6.93473">
        <ele>237.8</ele>
        <time>2013-09-22T10:11:55Z</time>
      </trkpt>
      <trkpt lat="49.03318" lon="6.9348">
        <ele>237.1</ele>
        <time>2013-09-22T10:12:00Z</time>
      </trkpt>
      <trkpt lat="49.03319" lon="6.93488">
        <ele>237.9</ele>
        <time>2013-09-22T10:12:05Z</time>
      </trkpt>
      <trkpt lat="49.0332" lon="6.93496">
        <ele>237.9</ele>
        <time>2013-09-22T10:12:10Z</time>
      </trkpt>
      <trkpt lat="49.0332" lon="6.93504">
        <ele>237.8</ele>
        <time>2013-09-22T10:12:15Z</time>
      </trkpt>
      <trkpt lat="49.03321" lon="6.93512">
        <ele>237.8</ele>
        <time>2013-09-22T10:12:20Z</time>
      </trkpt>
      <trkpt lat="49.03324" lon="6.93518">
        <ele>237.6</ele>
        <time>2013-09-22T10:12:25Z</time>
      </trkpt>
      <trkpt lat="49.03329" lon="6.93522">
        <ele>238.3</ele>
        <time>2013-09-22T10:12:30Z</time>
      </trkpt>
      <trkpt lat="49.03334" lon="6.93523">
        <ele>238.3</ele>
        <time>2013-09-22T10:12:35Z</time>
      </trkpt>
      <trkpt lat="49.03339" lon="6.93523">
        <ele>238.5</ele>
        <time>2013-09-22T10:12:40Z</time>
      </trkpt>
      <trkpt lat="49.03342" lon="6.93521">
        <ele>237.3</ele>
        <time>2013-09-22T10:12:45Z</time>
      </trkpt>
      <trkpt lat="49.03346" lon="6.9352">
        <ele>238.4</ele>
        <time>2013-09-22T10:12:50Z</time>
      </trkpt>
      <trkpt lat="49.0335" lon="6.93519">
        <ele>239.4</ele>
        <time>2013-09-22T10:12:55Z</time>
      </trkpt>
      <trkpt lat="49.03354" lon="6.93517">
        <ele>240.4</ele>
        <time>2013-09-22T10:13:00Z</time>
      </trkpt>
      <trkpt lat="49.03358" lon="6.93516">
        <ele>240.3</ele>
        <time>2013-09-22T10:13:05Z</time>
      </trkpt>
      <trkpt lat="49.03363" lon="6.93514">
        <ele>240.9</ele>
        <time>2013-09-22T10:13:10Z</time>
      </trkpt>
      <trkpt lat="49.03368" lon="6.93513">
        <ele>240.9</ele>
        <time>2013-09-22T10:13:15Z</time>
      </trkpt>
      <trkpt lat="49.03372" lon="6.93512">
        <ele>241.9</ele>
        <time>2013-09-22T10:13:20Z</time>
      </trkpt>
      <trkpt lat="49.03376" lon="6.93512">
        <ele>242</ele>
        <time>2013-09-22T10:13:25Z</time>
      </trkpt>
      <trkpt lat="49.03381" lon="6.93512">
        <ele>243.9</ele>
        <time>2013-09-22T10:13:30Z</time>
      </trkpt>
      <trkpt lat="49.03385" lon="6.93512">
        <ele>244.4</ele>
        <time>2013-09-22T10:13:35Z</time>
      </trkpt>
      <trkpt lat="49.03389" lon="6.93512">
        <ele>244</ele>
        <time>2013-09-22T10:13:40Z</time>
      </trkpt>
      <trkpt lat="49.03394" lon="6.93511">
        <ele>244.7</ele>
        <time>2013-09-22T10:13:45Z</time>
      </trkpt>
      <trkpt lat="49.03399" lon="6.93511">
        <ele>245.9</ele>
        <time>2013-09-22T10:13:50Z</time>
      </trkpt>
      <trkpt lat="49.03404" lon="6.93513">
        <ele>246.9</ele>
        <time>2013-09-22T10:13:55Z</time>
      </trkpt>
      <trkpt lat="49.03409" lon="6.93517">
        <ele>247.3</ele>
        <time>2013-09-22T10:14:00Z</time>
      </trkpt>
      <trkpt lat="49.03413" lon="6.93524">
        <ele>248.4</ele>
        <time>2013-09-22T10:14:05Z</time>
      </trkpt>
      <trkpt lat="49.03416" lon="6.93532">
        <ele>248.7</ele>
        <time>2013-09-22T10:14:10Z</time>
      </trkpt>
      <trkpt lat="49.03418" lon="6.93541">
        <ele>248</ele>
        <time>2013-09-22T10:14:15Z</time>
      </trkpt>
      <trkpt lat="49.0342" lon="6.93549">
        <ele>246.9</ele>
        <time>2013-09-22T10:14:20Z</time>
      </trkpt>
      <trkpt lat="49.03422" lon="6.93557">
        <ele>247.7</ele>
        <time>2013-09-22T10:14:25Z</time>
      </trkpt>
      <trkpt lat="49.03423" lon="6.93566">
        <ele>247.9</ele>
        <time>2013-09-22T10:14:30Z</time>
      </trkpt>
      <trkpt lat="49.03425" lon="6.93574">
        <ele>248</ele>
        <time>2013-09-22T10:14:35Z</time>
      </trkpt>
      <trkpt lat="49.03426" lon="6.93582">
        <ele>247.2</ele>
        <time>2013-09-22T10:14:40Z</time>
      </trkpt>
      <trkpt lat="49.03428" lon="6.9359">
        <ele>247.5</ele>
        <time>2013-09-22T10:14:45Z</time>
      </trkpt>
      <trkpt lat="49.03429" lon="6.93598">
        <ele>246.8</ele>
        <time>2013-09-22T10:14:50Z</time>
      </trkpt>
      <trkpt lat="49.03431" lon="6.93605">
        <ele>247.1</ele>
        <time>2013-09-22T10:14:55Z</time>
      </trkpt>
      <trkpt lat="49.03433" lon="6.93614">
        <ele>246</ele>
        <time>2013-09-22T10:15:00Z</time>
      </trkpt>
      <trkpt lat="49.03434" lon="6.93621">
        <ele>246.8</ele>
        <time>2013-09-22T10:15:05Z</time>
      </trkpt>
      <trkpt lat="49.03435" lon="6.93629">
        <ele>246.7</ele>
        <time>2013-09-22T10:15:10Z</time>
      </trkpt>
      <trkpt lat="49.03437" lon="6.93637">
        <ele>246.2</ele>
        <time>2013-09-22T10:15:15Z</time>
      </trkpt>
      <trkpt lat="49.03438" lon="6.93645">
        <ele>246</ele>
        <time>2013-09-22T10:15:20Z</time>
      </trkpt>
      <trkpt lat="49.0344" lon="6.93654">
        <ele>245.3</ele>
        <time>2013-09-22T10:15:25Z</time>
      </trkpt>
      <trkpt lat="49.03442" lon="6.93661">
        <ele>245.3</ele>
        <time>2013-09-22T10:15:30Z</time>
      </trkpt>
      <trkpt lat="49.03444" lon="6.9367">
        <ele>244.5</ele>
        <time>2013-09-22T10:15:35Z</time>
      </trkpt>
      <trkpt lat="49.03445" lon="6.93678">
        <ele>243.9</ele>
        <time>2013-09-22T10:15:40Z</time>
      </trkpt>
      <trkpt lat="49.03447" lon="6.93687">
        <ele>244.4</ele>
        <time>2013-09-22T10:15:45Z</time>
      </trkpt>
      <trkpt lat="49.03448" lon="6.93696">
        <ele>244.2</ele>
        <time>2013-09-22T10:15:50Z</time>
      </trkpt>
      <trkpt lat="49.0345" lon="6.93703">
        <ele>244</ele>
        <time>2013-09-22T10:15:55Z</time>
      </trkpt>
      <trkpt lat="49.03451" lon="6.93711">
        <ele>243.5</ele>
        <time>2013-09-22T10:16:00Z</time>
      </trkpt>
      <trkpt lat="49.03454" lon="6.93718">
        <ele>243.3</ele>
        <time>2013-09-22T10:16:05Z</time>
      </trkpt>
      <trkpt lat="49.03455" lon="6.93724">
        <ele>243</ele>
        <time>2013-09-22T10:16:10Z</time>
      </trkpt>
      <trkpt lat="49.03457" lon="6.93732">
        <ele>243.6</ele>
        <time>2013-09-22T10:16:15Z</time>
      </trkpt>
      <trkpt lat="49.03459" lon="6.9374">
        <ele>242.7</ele>
        <time>2013-09-22T10:16:20Z</time>
      </trkpt>
      <trkpt lat="49.03462" lon="6.93747">
        <ele>242.2</ele>
        <time>2013-09-22T10:16:25Z</time>
      </trkpt>
      <trkpt lat="49.03464" lon="6.93754">
        <ele>242.2</ele>
        <time>2013-09-22T10:16:30Z</time>
      </trkpt>
      <trkpt lat="49.03466" lon="6.93761">
        <ele>242.3</ele>
        <time>2013-09-22T10:16:35Z</time>
      </trkpt>
      <trkpt lat="49.03466" lon="6.93769">
        <ele>240.4</ele>
        <time>2013-09-22T10:16:40Z</time>
      </trkpt>
      <trkpt lat="49.03467" lon="6.93776">
        <ele>241.9</ele>
        <time>2013-09-22T10:16:45Z</time>
      </trkpt>
      <trkpt lat="49.03468" lon="6.93782">
        <ele>241.7</ele>
        <time>2013-09-22T10:16:50Z</time>
      </trkpt>
      <trkpt lat="49.03469" lon="6.9379">
        <ele>241.1</ele>
        <time>2013-09-22T10:16:55Z</time>
      </trkpt>
      <trkpt lat="49.03471" lon="6.938">
        <ele>241.4</ele>
        <time>2013-09-22T10:17:00Z</time>
      </trkpt>
      <trkpt lat="49.03474" lon="6.93808">
        <ele>241.1</ele>
        <time>2013-09-22T10:17:05Z</time>
      </trkpt>
      <trkpt lat="49.03478" lon="6.93812">
        <ele>241.1</ele>
        <time>2013-09-22T10:17:10Z</time>
      </trkpt>
      <trkpt lat="49.03481" lon="6.93817">
        <ele>240.4</ele>
        <time>2013-09-22T10:17:15Z</time>
      </trkpt>
      <trkpt lat="49.03485" lon="6.93818">
        <ele>239.9</ele>
        <time>2013-09-22T10:17:20Z</time>
      </trkpt>
      <trkpt lat="49.03489" lon="6.93819">
        <ele>240.2</ele>
        <time>2013-09-22T10:17:25Z</time>
      </trkpt>
      <trkpt lat="49.03493" lon="6.93818">
        <ele>241.7</ele>
        <time>2013-09-22T10:17:30Z</time>
      </trkpt>
      <trkpt lat="49.03498" lon="6.93818">
        <ele>241.9</ele>
        <time>2013-09-22T10:17:35Z</time>
      </trkpt>
      <trkpt lat="49.03503" lon="6.93818">
        <ele>242.1</ele>
        <time>2013-09-22T10:17:40Z</time>
      </trkpt>
      <trkpt lat="49.03509" lon="6.93817">
        <ele>241.9</ele>
        <time>2013-09-22T10:17:45Z</time>
      </trkpt>
      <trkpt lat="49.03514" lon="6.93816">
        <ele>241.7</ele>
        <time>2013-09-22T10:17:50Z</time>
      </trkpt>
      <trkpt lat="49.03518" lon="6.93815">
        <ele>241.3</ele>
        <time>2013-09-22T10:17:55Z</time>
      </trkpt>
      <trkpt lat="49.03523" lon="6.93815">
        <ele>241.5</ele>
        <time>2013-09-22T10:18:00Z</time>
      </trkpt>
      <trkpt lat="49.03526" lon="6.93817">
        <ele>240.8</ele>
        <time>2013-09-22T10:18:05Z</time>
      </trkpt>
      <trkpt lat="49.03532" lon="6.93816">
        <ele>240.7</ele>
        <time>2013-09-22T10:18:10Z</time>
      </trkpt>
      <trkpt lat="49.03538" lon="6.93816">
        <ele>240.9</ele>
        <time>2013-09-22T10:18:15Z</time>
      </trkpt>
      <trkpt lat="49.03545" lon="6.93817">
        <ele>240.4</ele>
        <time>2013-09-22T10:18:20Z</time>
      </trkpt>
      <trkpt lat="49.03552" lon="6.93816">
        <ele>240.2</ele>
        <time>2013-09-22T10:18:25Z</time>
      </trkpt>
      <trkpt lat="49.03558" lon="6.93815">
        <ele>240.2</ele>
        <time>2013-09-22T10:18:30Z</time>
      </trkpt>
      <trkpt lat="49.03564" lon="6.93813">
        <ele>239.9</ele>
        <time>2013-09-22T10:18:35Z</time>
      </trkpt>
      <trkpt lat="49.0357" lon="6.93811">
        <ele>240</ele>
        <time>2013-09-22T10:18:40Z</time>
      </trkpt>
      <trkpt lat="49.03575" lon="6.93807">
        <ele>240.6</ele>
        <time>2013-09-22T10:18:45Z</time>
      </trkpt>
      <trkpt lat="49.03581" lon="6.93804">
        <ele>240.3</ele>
        <time>2013-09-22T10:18:50Z</time>
      </trkpt>
      <trkpt lat="49.03587" lon="6.93803">
        <ele>239.5</ele>
        <time>2013-09-22T10:18:55Z</time>
      </trkpt>
      <trkpt lat="49.03593" lon="6.93802">
        <ele>239.9</ele>
        <time>2013-09-22T10:19:00Z</time>
      </trkpt>
      <trkpt lat="49.03598" lon="6.93807">
        <ele>239.9</ele>
        <time>2013-09-22T10:19:05Z</time>
      </trkpt>
      <trkpt lat="49.03601" lon="6.93815">
        <ele>238.8</ele>
        <time>2013-09-22T10:19:10Z</time>
      </trkpt>
      <trkpt lat="49.03601" lon="6.93823">
        <ele>238.9</ele>
        <time>2013-09-22T10:19:15Z</time>
      </trkpt>
      <trkpt lat="49.03601" lon="6.93829">
        <ele>239.1</ele>
        <time>2013-09-22T10:19:20Z</time>
      </trkpt>
      <trkpt lat="49.036" lon="6.93837">
        <ele>239.7</ele>
        <time>2013-09-22T10:19:25Z</time>
      </trkpt>
      <trkpt lat="49.03599" lon="6.93843">
        <ele>239.1</ele>
        <time>2013-09-22T10:19:30Z</time>
      </trkpt>
      <trkpt lat="49.03597" lon="6.93851">
        <ele>239.8</ele>
        <time>2013-09-22T10:19:35Z</time>
      </trkpt>
      <trkpt lat="49.03596" lon="6.9386">
        <ele>238.5</ele>
        <time>2013-09-22T10:19:40Z</time>
      </trkpt>
      <trkpt lat="49.03596" lon="6.93868">
        <ele>239.1</ele>
        <time>2013-09-22T10:19:45Z</time>
      </trkpt>
      <trkpt lat="49.03597" lon="6.93878">
        <ele>238.9</ele>
        <time>2013-09-22T10:19:50Z</time>
      </trkpt>
      <trkpt lat="49.03596" lon="6.93887">
        <ele>238.5</ele>
        <time>2013-09-22T10:19:55Z</time>
      </trkpt>
      <trkpt lat="49.03597" lon="6.93894">
        <ele>239.7</ele>
        <time>2013-09-22T10:20:00Z</time>
      </trkpt>
      <trkpt lat="49.036" lon="6.93901">
        <ele>238.7</ele>
        <time>2013-09-22T10:20:05Z</time>
      </trkpt>
      <trkpt lat="49.03604" lon="6.93908">
        <ele>238.7</ele>
        <time>2013-09-22T10:20:10Z</time>
      </trkpt>
      <trkpt lat="49.03607" lon="6.93915">
        <ele>238.3</ele>
        <time>2013-09-22T10:20:15Z</time>
      </trkpt>
      <trkpt lat="49.0361" lon="6.93924">
        <ele>239.3</ele>
        <time>2013-09-22T10:20:20Z</time>
      </trkpt>
      <trkpt lat="49.03611" lon="6.93935">
        <ele>239.4</ele>
        <time>2013-09-22T10:20:25Z</time>
      </trkpt>
      <trkpt lat="49.03613" lon="6.93944">
        <ele>239.2</ele>
        <time>2013-09-22T10:20:30Z</time>
      </trkpt>
      <trkpt lat="49.03614" lon="6.93952">
        <ele>239.2</ele>
        <time>2013-09-22T10:20:35Z</time>
      </trkpt>
      <trkpt lat="49.03615" lon="6.9396">
        <ele>239.9</ele>
        <time>2013-09-22T10:20:40Z</time>
      </trkpt>
      <trkpt lat="49.03615" lon="6.93968">
        <ele>239.1</ele>
        <time>2013-09-22T10:20:45Z</time>
      </trkpt>
      <trkpt lat="49.03616" lon="6.93975">
        <ele>239.5</ele>
        <time>2013-09-22T10:20:50Z</time>
      </trkpt>
      <trkpt lat="49.03618" lon="6.93982">
        <ele>237.9</ele>
        <time>2013-09-22T10:20:55Z</time>
      </trkpt>
      <trkpt lat="49.03618" lon="6.93988">
        <ele>237.8</ele>
        <time>2013-09-22T10:21:00Z</time>
      </trkpt>
      <trkpt lat="49.03618" lon="6.93989">
        <ele>238.8</ele>
        <time>2013-09-22T10:21:05Z</time>
      </trkpt>
      <trkpt lat="49.03618" lon="6.9399">
        <ele>238.4</ele>
        <time>2013-09-22T10:21:10Z</time>
      </trkpt>
      <trkpt lat="49.03618" lon="6.93989">
        <ele>238.1</ele>
        <time>2013-09-22T10:21:15Z</time>
      </trkpt>
      <trkpt lat="49.03618" lon="6.93989">
        <ele>238.3</ele>
        <time>2013-09-22T10:21:19Z</time>
      </trkpt>
      <trkpt lat="49.03618" lon="6.93989">
        <ele>238.3</ele>
        <time>2013-09-22T10:21:19Z</time>
      </trkpt>
    </trkseg>
  </trk>
</gpx>